Wetterdaten: Dienstag, 12.06.2018
Datum Zeit Temp. A. Feuchte A. Luftdruck Regen Wind Richtung Richtung Sonnenschein ET UV Solar Taupunkt Windchill Windböen
12.06.2018 00:00 16,4 °C 88 % 1006,3 hPa 0,0 mm 5,0 km/h (1 Bft) SW 228 ° 0 min 0,000 mm 0,0 UV-I 0 W/m² 14,4 °C 16,4 °C 8,0 km/h (2 Bft)
12.06.2018 00:01 16,4 °C 87 % 1006,2 hPa 0,0 mm 3,2 km/h (1 Bft) SW 228 ° 0 min 0,000 mm 0,0 UV-I 0 W/m² 14,2 °C 16,4 °C 3,2 km/h (1 Bft)
12.06.2018 00:02 16,4 °C 87 % 1006,2 hPa 0,0 mm 3,2 km/h (1 Bft) SW 228 ° 0 min 0,000 mm 0,0 UV-I 0 W/m² 14,2 °C 16,4 °C 3,2 km/h (1 Bft)
12.06.2018 00:03 16,4 °C 87 % 1006,3 hPa 0,0 mm 3,0 km/h (1 Bft) SW 225 ° 0 min 0,000 mm 0,0 UV-I 0 W/m² 14,2 °C 16,4 °C 8,0 km/h (2 Bft)
12.06.2018 00:04 16,4 °C 87 % 1006,3 hPa 0,0 mm 2,7 km/h (1 Bft) S-SW 192 ° 0 min 0,000 mm 0,0 UV-I 0 W/m² 14,2 °C 16,4 °C 4,8 km/h (1 Bft)
12.06.2018 00:05 16,4 °C 87 % 1006,3 hPa 0,0 mm 4,4 km/h (1 Bft) SW 216 ° 0 min 0,000 mm 0,0 UV-I 0 W/m² 14,2 °C 16,4 °C 9,7 km/h (2 Bft)
12.06.2018 00:06 16,4 °C 86 % 1006,3 hPa 0,0 mm 4,9 km/h (1 Bft) W-SW 238 ° 0 min 0,000 mm 0,0 UV-I 0 W/m² 14,1 °C 16,4 °C 6,4 km/h (2 Bft)
12.06.2018 00:07 16,5 °C 86 % 1006,2 hPa 0,0 mm 3,6 km/h (1 Bft) S-SW 207 ° 0 min 0,000 mm 0,0 UV-I 0 W/m² 14,1 °C 16,5 °C 6,4 km/h (2 Bft)
12.06.2018 00:08 16,5 °C 86 % 1006,2 hPa 0,0 mm 4,1 km/h (1 Bft) SW 227 ° 0 min 0,000 mm 0,0 UV-I 0 W/m² 14,1 °C 16,5 °C 6,4 km/h (2 Bft)
12.06.2018 00:09 16,5 °C 86 % 1006,3 hPa 0,0 mm 4,4 km/h (1 Bft) S-SW 211 ° 0 min 0,000 mm 0,0 UV-I 0 W/m² 14,1 °C 16,5 °C 6,4 km/h (2 Bft)
12.06.2018 00:10 16,6 °C 86 % 1006,3 hPa 0,0 mm 4,7 km/h (1 Bft) W-SW 242 ° 0 min 0,000 mm 0,0 UV-I 0 W/m² 14,2 °C 16,6 °C 6,4 km/h (2 Bft)
12.06.2018 00:11 16,5 °C 86 % 1006,3 hPa 0,0 mm 1,6 km/h (1 Bft) S-SW 209 ° 0 min 0,000 mm 0,0 UV-I 0 W/m² 14,1 °C 16,5 °C 4,8 km/h (1 Bft)
12.06.2018 00:12 16,4 °C 86 % 1006,2 hPa 0,0 mm 2,8 km/h (1 Bft) S-SW 208 ° 0 min 0,000 mm 0,0 UV-I 0 W/m² 14,1 °C 16,4 °C 6,4 km/h (2 Bft)
12.06.2018 00:13 16,4 °C 86 % 1006,2 hPa 0,0 mm 1,0 km/h (0 Bft) S-SW 208 ° 0 min 0,000 mm 0,0 UV-I 0 W/m² 14,1 °C 16,4 °C 4,8 km/h (1 Bft)
12.06.2018 00:14 16,3 °C 86 % 1006,2 hPa 0,0 mm 1,5 km/h (1 Bft) S-SW 208 ° 0 min 0,000 mm 0,0 UV-I 0 W/m² 14,0 °C 16,3 °C 4,8 km/h (1 Bft)
12.06.2018 00:15 16,2 °C 86 % 1006,2 hPa 0,0 mm 1,2 km/h (1 Bft) S-SW 208 ° 0 min 0,000 mm 0,0 UV-I 0 W/m² 13,9 °C 16,2 °C 1,6 km/h (1 Bft)
12.06.2018 00:16 16,2 °C 87 % 1006,3 hPa 0,0 mm 0,1 km/h (0 Bft) S-SW 208 ° 0 min 0,000 mm 0,0 UV-I 0 W/m² 14,0 °C 16,2 °C 1,6 km/h (1 Bft)
12.06.2018 00:17 16,1 °C 86 % 1006,3 hPa 0,0 mm 0,9 km/h (0 Bft) SW 234 ° 0 min 0,000 mm 0,0 UV-I 0 W/m² 13,8 °C 16,1 °C 3,2 km/h (1 Bft)
12.06.2018 00:18 16,1 °C 87 % 1006,3 hPa 0,0 mm 2,0 km/h (1 Bft) S-SW 208 ° 0 min 0,000 mm 0,0 UV-I 0 W/m² 13,9 °C 16,1 °C 4,8 km/h (1 Bft)
12.06.2018 00:19 15,9 °C 87 % 1006,3 hPa 0,0 mm 0,8 km/h (0 Bft) S-SW 208 ° 0 min 0,000 mm 0,0 UV-I 0 W/m² 13,7 °C 15,9 °C 1,6 km/h (1 Bft)
12.06.2018 00:20 15,9 °C 87 % 1006,3 hPa 0,0 mm 0,5 km/h (0 Bft) S-SW 208 ° 0 min 0,000 mm 0,0 UV-I 0 W/m² 13,7 °C 15,9 °C 3,2 km/h (1 Bft)
12.06.2018 00:21 15,9 °C 88 % 1006,3 hPa 0,0 mm 0,9 km/h (0 Bft) S-SW 208 ° 0 min 0,000 mm 0,0 UV-I 0 W/m² 13,9 °C 15,9 °C 3,2 km/h (1 Bft)
12.06.2018 00:22 15,8 °C 88 % 1006,4 hPa 0,0 mm 0,7 km/h (0 Bft) S-SW 208 ° 0 min 0,000 mm 0,0 UV-I 0 W/m² 13,8 °C 15,8 °C 3,2 km/h (1 Bft)
12.06.2018 00:23 15,8 °C 87 % 1006,4 hPa 0,0 mm 2,9 km/h (1 Bft) S-SW 201 ° 0 min 0,000 mm 0,0 UV-I 0 W/m² 13,6 °C 15,8 °C 4,8 km/h (1 Bft)
12.06.2018 00:24 15,7 °C 88 % 1006,3 hPa 0,0 mm 2,8 km/h (1 Bft) S-SW 201 ° 0 min 0,000 mm 0,0 UV-I 0 W/m² 13,7 °C 15,7 °C 6,4 km/h (2 Bft)
12.06.2018 00:25 15,7 °C 88 % 1006,3 hPa 0,0 mm 0,1 km/h (0 Bft) S-SW 201 ° 0 min 0,000 mm 0,0 UV-I 0 W/m² 13,7 °C 15,7 °C 1,6 km/h (1 Bft)
12.06.2018 00:26 15,7 °C 88 % 1006,2 hPa 0,0 mm 1,1 km/h (1 Bft) S-SW 201 ° 0 min 0,000 mm 0,0 UV-I 0 W/m² 13,7 °C 15,7 °C 3,2 km/h (1 Bft)
12.06.2018 00:27 15,7 °C 88 % 1006,2 hPa 0,0 mm 0,1 km/h (0 Bft) S-SW 201 ° 0 min 0,000 mm 0,0 UV-I 0 W/m² 13,7 °C 15,7 °C 1,6 km/h (1 Bft)
12.06.2018 00:28 15,6 °C 88 % 1006,2 hPa 0,0 mm 0,3 km/h (0 Bft) S-SW 201 ° 0 min 0,000 mm 0,0 UV-I 0 W/m² 13,6 °C 15,6 °C 1,6 km/h (1 Bft)
12.06.2018 00:29 15,6 °C 88 % 1006,2 hPa 0,0 mm 2,3 km/h (1 Bft) S 188 ° 0 min 0,000 mm 0,0 UV-I 0 W/m² 13,6 °C 15,6 °C 4,8 km/h (1 Bft)
12.06.2018 00:30 15,5 °C 88 % 1006,2 hPa 0,0 mm 0,4 km/h (0 Bft) S 191 ° 0 min 0,000 mm 0,0 UV-I 0 W/m² 13,5 °C 15,5 °C 3,2 km/h (1 Bft)
12.06.2018 00:31 15,5 °C 88 % 1006,3 hPa 0,0 mm 1,6 km/h (1 Bft) S 191 ° 0 min 0,000 mm 0,0 UV-I 0 W/m² 13,5 °C 15,5 °C 3,2 km/h (1 Bft)
12.06.2018 00:32 15,5 °C 88 % 1006,3 hPa 0,0 mm 0,0 km/h (0 Bft) S 191 ° 0 min 0,000 mm 0,0 UV-I 0 W/m² 13,5 °C 15,5 °C 0,0 km/h (0 Bft)
12.06.2018 00:33 15,6 °C 88 % 1006,3 hPa 0,0 mm 0,2 km/h (0 Bft) S 191 ° 0 min 0,000 mm 0,0 UV-I 0 W/m² 13,6 °C 15,6 °C 1,6 km/h (1 Bft)
12.06.2018 00:34 15,6 °C 88 % 1006,3 hPa 0,0 mm 0,0 km/h (0 Bft) S 191 ° 0 min 0,000 mm 0,0 UV-I 0 W/m² 13,6 °C 15,6 °C 0,0 km/h (0 Bft)
12.06.2018 00:35 15,6 °C 88 % 1006,3 hPa 0,0 mm 0,0 km/h (0 Bft) S 191 ° 0 min 0,000 mm 0,0 UV-I 0 W/m² 13,6 °C 15,6 °C 0,0 km/h (0 Bft)
12.06.2018 00:36 15,4 °C 89 % 1006,3 hPa 0,0 mm 0,0 km/h (0 Bft) S 191 ° 0 min 0,000 mm 0,0 UV-I 0 W/m² 13,6 °C 15,4 °C 0,0 km/h (0 Bft)
12.06.2018 00:37 15,4 °C 89 % 1006,3 hPa 0,0 mm 0,0 km/h (0 Bft) S 191 ° 0 min 0,000 mm 0,0 UV-I 0 W/m² 13,6 °C 15,4 °C 0,0 km/h (0 Bft)
12.06.2018 00:38 15,3 °C 89 % 1006,3 hPa 0,0 mm 0,0 km/h (0 Bft) S 191 ° 0 min 0,000 mm 0,0 UV-I 0 W/m² 13,5 °C 15,3 °C 0,0 km/h (0 Bft)
12.06.2018 00:39 15,3 °C 89 % 1006,3 hPa 0,0 mm 0,0 km/h (0 Bft) S 191 ° 0 min 0,000 mm 0,0 UV-I 0 W/m² 13,5 °C 15,3 °C 0,0 km/h (0 Bft)
12.06.2018 00:40 15,2 °C 89 % 1006,3 hPa 0,0 mm 0,0 km/h (0 Bft) S 191 ° 0 min 0,000 mm 0,0 UV-I 0 W/m² 13,4 °C 15,2 °C 0,0 km/h (0 Bft)
12.06.2018 00:41 15,1 °C 90 % 1006,3 hPa 0,0 mm 0,0 km/h (0 Bft) S 191 ° 0 min 0,000 mm 0,0 UV-I 0 W/m² 13,5 °C 15,1 °C 0,0 km/h (0 Bft)
12.06.2018 00:42 15,1 °C 90 % 1006,3 hPa 0,0 mm 0,0 km/h (0 Bft) S 191 ° 0 min 0,000 mm 0,0 UV-I 0 W/m² 13,5 °C 15,1 °C 0,0 km/h (0 Bft)
12.06.2018 00:43 14,9 °C 90 % 1006,3 hPa 0,0 mm 0,2 km/h (0 Bft) S 191 ° 0 min 0,000 mm 0,0 UV-I 0 W/m² 13,3 °C 14,9 °C 1,6 km/h (1 Bft)
12.06.2018 00:44 14,9 °C 90 % 1006,3 hPa 0,0 mm 0,6 km/h (0 Bft) S 191 ° 0 min 0,000 mm 0,0 UV-I 0 W/m² 13,3 °C 14,9 °C 1,6 km/h (1 Bft)
12.06.2018 00:45 14,9 °C 90 % 1006,3 hPa 0,0 mm 0,0 km/h (0 Bft) S 191 ° 0 min 0,000 mm 0,0 UV-I 0 W/m² 13,3 °C 14,9 °C 0,0 km/h (0 Bft)
12.06.2018 00:46 14,9 °C 90 % 1006,3 hPa 0,0 mm 0,2 km/h (0 Bft) S 191 ° 0 min 0,000 mm 0,0 UV-I 0 W/m² 13,3 °C 14,9 °C 1,6 km/h (1 Bft)
12.06.2018 00:47 14,9 °C 90 % 1006,3 hPa 0,0 mm 2,0 km/h (1 Bft) S 191 ° 0 min 0,000 mm 0,0 UV-I 0 W/m² 13,3 °C 14,9 °C 3,2 km/h (1 Bft)
12.06.2018 00:48 14,9 °C 90 % 1006,3 hPa 0,0 mm 2,2 km/h (1 Bft) S 191 ° 0 min 0,000 mm 0,0 UV-I 0 W/m² 13,3 °C 14,9 °C 3,2 km/h (1 Bft)
12.06.2018 00:49 14,9 °C 90 % 1006,3 hPa 0,0 mm 1,8 km/h (1 Bft) S 191 ° 0 min 0,000 mm 0,0 UV-I 0 W/m² 13,3 °C 14,9 °C 3,2 km/h (1 Bft)
12.06.2018 00:50 14,9 °C 90 % 1006,3 hPa 0,0 mm 1,8 km/h (1 Bft) S 191 ° 0 min 0,000 mm 0,0 UV-I 0 W/m² 13,3 °C 14,9 °C 3,2 km/h (1 Bft)
12.06.2018 00:51 15,0 °C 90 % 1006,2 hPa 0,0 mm 0,1 km/h (0 Bft) S 191 ° 0 min 0,000 mm 0,0 UV-I 0 W/m² 13,4 °C 15,0 °C 1,6 km/h (1 Bft)
12.06.2018 00:52 14,9 °C 90 % 1006,2 hPa 0,0 mm 0,0 km/h (0 Bft) S 191 ° 0 min 0,000 mm 0,0 UV-I 0 W/m² 13,3 °C 14,9 °C 0,0 km/h (0 Bft)
12.06.2018 00:53 14,9 °C 90 % 1006,2 hPa 0,0 mm 0,0 km/h (0 Bft) S 191 ° 0 min 0,000 mm 0,0 UV-I 0 W/m² 13,3 °C 14,9 °C 0,0 km/h (0 Bft)
12.06.2018 00:54 15,0 °C 90 % 1006,2 hPa 0,0 mm 0,0 km/h (0 Bft) S 191 ° 0 min 0,000 mm 0,0 UV-I 0 W/m² 13,4 °C 15,0 °C 0,0 km/h (0 Bft)
12.06.2018 00:55 15,0 °C 90 % 1006,3 hPa 0,0 mm 0,0 km/h (0 Bft) S 191 ° 0 min 0,000 mm 0,0 UV-I 0 W/m² 13,4 °C 15,0 °C 0,0 km/h (0 Bft)
12.06.2018 00:56 14,9 °C 90 % 1006,3 hPa 0,0 mm 0,0 km/h (0 Bft) S 191 ° 0 min 0,000 mm 0,0 UV-I 0 W/m² 13,3 °C 14,9 °C 0,0 km/h (0 Bft)
12.06.2018 00:57 14,9 °C 90 % 1006,2 hPa 0,0 mm 0,0 km/h (0 Bft) S 191 ° 0 min 0,000 mm 0,0 UV-I 0 W/m² 13,3 °C 14,9 °C 0,0 km/h (0 Bft)
12.06.2018 00:58 14,9 °C 90 % 1006,2 hPa 0,0 mm 0,0 km/h (0 Bft) S 191 ° 0 min 0,000 mm 0,0 UV-I 0 W/m² 13,3 °C 14,9 °C 0,0 km/h (0 Bft)
12.06.2018 00:59 14,8 °C 90 % 1006,3 hPa 0,0 mm 0,0 km/h (0 Bft) S 191 ° 0 min 0,000 mm 0,0 UV-I 0 W/m² 13,2 °C 14,8 °C 0,0 km/h (0 Bft)
12.06.2018 01:00 14,8 °C 90 % 1006,3 hPa 0,0 mm 2,0 km/h (1 Bft) S 191 ° 0 min 0,000 mm 0,0 UV-I 0 W/m² 13,2 °C 14,8 °C 4,8 km/h (1 Bft)
12.06.2018 01:01 14,7 °C 89 % 1006,3 hPa 0,0 mm 3,9 km/h (1 Bft) S 191 ° 0 min 0,000 mm 0,0 UV-I 0 W/m² 12,9 °C 14,7 °C 4,8 km/h (1 Bft)
12.06.2018 01:02 14,7 °C 90 % 1006,3 hPa 0,0 mm 3,4 km/h (1 Bft) S 191 ° 0 min 0,000 mm 0,0 UV-I 0 W/m² 13,1 °C 14,7 °C 4,8 km/h (1 Bft)
12.06.2018 01:03 14,5 °C 90 % 1006,3 hPa 0,0 mm 2,6 km/h (1 Bft) S 191 ° 0 min 0,000 mm 0,0 UV-I 0 W/m² 12,9 °C 14,5 °C 3,2 km/h (1 Bft)
12.06.2018 01:04 14,4 °C 90 % 1006,3 hPa 0,0 mm 2,2 km/h (1 Bft) S 191 ° 0 min 0,000 mm 0,0 UV-I 0 W/m² 12,8 °C 14,4 °C 3,2 km/h (1 Bft)
12.06.2018 01:05 14,3 °C 90 % 1006,3 hPa 0,0 mm 3,2 km/h (1 Bft) S 191 ° 0 min 0,000 mm 0,0 UV-I 0 W/m² 12,7 °C 14,3 °C 4,8 km/h (1 Bft)
12.06.2018 01:06 14,3 °C 90 % 1006,3 hPa 0,0 mm 3,8 km/h (1 Bft) S 191 ° 0 min 0,000 mm 0,0 UV-I 0 W/m² 12,7 °C 14,3 °C 4,8 km/h (1 Bft)
12.06.2018 01:07 14,2 °C 90 % 1006,3 hPa 0,0 mm 3,8 km/h (1 Bft) S 191 ° 0 min 0,000 mm 0,0 UV-I 0 W/m² 12,6 °C 14,2 °C 4,8 km/h (1 Bft)
12.06.2018 01:08 14,2 °C 90 % 1006,2 hPa 0,0 mm 3,2 km/h (1 Bft) S 191 ° 0 min 0,000 mm 0,0 UV-I 0 W/m² 12,6 °C 14,2 °C 4,8 km/h (1 Bft)
12.06.2018 01:09 14,2 °C 91 % 1006,2 hPa 0,0 mm 3,0 km/h (1 Bft) S 191 ° 0 min 0,000 mm 0,0 UV-I 0 W/m² 12,8 °C 14,2 °C 4,8 km/h (1 Bft)
12.06.2018 01:10 14,1 °C 91 % 1006,2 hPa 0,0 mm 3,2 km/h (1 Bft) S 191 ° 0 min 0,000 mm 0,0 UV-I 0 W/m² 12,7 °C 14,1 °C 4,8 km/h (1 Bft)
12.06.2018 01:11 14,1 °C 91 % 1006,2 hPa 0,0 mm 3,4 km/h (1 Bft) S 191 ° 0 min 0,000 mm 0,0 UV-I 0 W/m² 12,7 °C 14,1 °C 4,8 km/h (1 Bft)
12.06.2018 01:12 14,1 °C 91 % 1006,2 hPa 0,0 mm 3,0 km/h (1 Bft) S 191 ° 0 min 0,000 mm 0,0 UV-I 0 W/m² 12,7 °C 14,1 °C 6,4 km/h (2 Bft)
12.06.2018 01:13 14,1 °C 91 % 1006,2 hPa 0,0 mm 4,2 km/h (1 Bft) S 191 ° 0 min 0,000 mm 0,0 UV-I 0 W/m² 12,7 °C 14,1 °C 4,8 km/h (1 Bft)
12.06.2018 01:14 14,0 °C 91 % 1006,1 hPa 0,0 mm 3,1 km/h (1 Bft) S 191 ° 0 min 0,000 mm 0,0 UV-I 0 W/m² 12,6 °C 14,0 °C 4,8 km/h (1 Bft)
12.06.2018 01:15 14,1 °C 91 % 1006,1 hPa 0,0 mm 2,5 km/h (1 Bft) S 191 ° 0 min 0,000 mm 0,0 UV-I 0 W/m² 12,7 °C 14,1 °C 3,2 km/h (1 Bft)
12.06.2018 01:16 14,1 °C 91 % 1006,1 hPa 0,0 mm 3,0 km/h (1 Bft) S 191 ° 0 min 0,000 mm 0,0 UV-I 0 W/m² 12,7 °C 14,1 °C 4,8 km/h (1 Bft)
12.06.2018 01:17 14,1 °C 92 % 1006,1 hPa 0,0 mm 3,0 km/h (1 Bft) S 191 ° 0 min 0,000 mm 0,0 UV-I 0 W/m² 12,8 °C 14,1 °C 4,8 km/h (1 Bft)
12.06.2018 01:18 14,1 °C 92 % 1006,1 hPa 0,0 mm 3,2 km/h (1 Bft) S 191 ° 0 min 0,000 mm 0,0 UV-I 0 W/m² 12,8 °C 14,1 °C 4,8 km/h (1 Bft)
12.06.2018 01:19 14,1 °C 91 % 1006,1 hPa 0,0 mm 1,7 km/h (1 Bft) S 191 ° 0 min 0,000 mm 0,0 UV-I 0 W/m² 12,7 °C 14,1 °C 3,2 km/h (1 Bft)
12.06.2018 01:20 14,1 °C 92 % 1006,1 hPa 0,0 mm 0,3 km/h (0 Bft) S 191 ° 0 min 0,000 mm 0,0 UV-I 0 W/m² 12,8 °C 14,1 °C 1,6 km/h (1 Bft)
12.06.2018 01:21 14,1 °C 91 % 1006,1 hPa 0,0 mm 0,0 km/h (0 Bft) S 191 ° 0 min 0,000 mm 0,0 UV-I 0 W/m² 12,7 °C 14,1 °C 0,0 km/h (0 Bft)
12.06.2018 01:22 14,1 °C 91 % 1006,0 hPa 0,0 mm 0,0 km/h (0 Bft) S 191 ° 0 min 0,000 mm 0,0 UV-I 0 W/m² 12,7 °C 14,1 °C 0,0 km/h (0 Bft)
12.06.2018 01:23 14,1 °C 91 % 1005,9 hPa 0,0 mm 1,5 km/h (1 Bft) S 191 ° 0 min 0,000 mm 0,0 UV-I 0 W/m² 12,7 °C 14,1 °C 3,2 km/h (1 Bft)
12.06.2018 01:24 14,0 °C 91 % 1006,0 hPa 0,0 mm 0,0 km/h (0 Bft) S 191 ° 0 min 0,000 mm 0,0 UV-I 0 W/m² 12,6 °C 14,0 °C 0,0 km/h (0 Bft)
12.06.2018 01:25 14,0 °C 92 % 1006,0 hPa 0,0 mm 0,0 km/h (0 Bft) S 191 ° 0 min 0,000 mm 0,0 UV-I 0 W/m² 12,7 °C 14,0 °C 0,0 km/h (0 Bft)
12.06.2018 01:26 14,0 °C 92 % 1006,0 hPa 0,0 mm 1,6 km/h (1 Bft) S 191 ° 0 min 0,000 mm 0,0 UV-I 0 W/m² 12,7 °C 14,0 °C 3,2 km/h (1 Bft)
12.06.2018 01:27 14,1 °C 92 % 1005,9 hPa 0,0 mm 1,6 km/h (1 Bft) S 191 ° 0 min 0,000 mm 0,0 UV-I 0 W/m² 12,8 °C 14,1 °C 3,2 km/h (1 Bft)
12.06.2018 01:28 14,1 °C 92 % 1005,9 hPa 0,0 mm 0,6 km/h (0 Bft) S 191 ° 0 min 0,000 mm 0,0 UV-I 0 W/m² 12,8 °C 14,1 °C 3,2 km/h (1 Bft)
12.06.2018 01:29 14,1 °C 92 % 1006,0 hPa 0,0 mm 0,0 km/h (0 Bft) S 191 ° 0 min 0,000 mm 0,0 UV-I 0 W/m² 12,8 °C 14,1 °C 0,0 km/h (0 Bft)
12.06.2018 01:30 14,2 °C 92 % 1006,0 hPa 0,0 mm 0,0 km/h (0 Bft) S 191 ° 0 min 0,000 mm 0,0 UV-I 0 W/m² 12,9 °C 14,2 °C 0,0 km/h (0 Bft)
12.06.2018 01:31 14,2 °C 92 % 1006,0 hPa 0,0 mm 3,9 km/h (1 Bft) S 191 ° 0 min 0,000 mm 0,0 UV-I 0 W/m² 12,9 °C 14,2 °C 6,4 km/h (2 Bft)
12.06.2018 01:32 14,3 °C 92 % 1006,0 hPa 0,0 mm 3,3 km/h (1 Bft) S 191 ° 0 min 0,000 mm 0,0 UV-I 0 W/m² 13,0 °C 14,3 °C 4,8 km/h (1 Bft)
12.06.2018 01:33 14,3 °C 92 % 1006,0 hPa 0,0 mm 1,2 km/h (1 Bft) S 191 ° 0 min 0,000 mm 0,0 UV-I 0 W/m² 13,0 °C 14,3 °C 3,2 km/h (1 Bft)
12.06.2018 01:34 14,4 °C 92 % 1006,0 hPa 0,0 mm 3,1 km/h (1 Bft) S-SW 192 ° 0 min 0,000 mm 0,0 UV-I 0 W/m² 13,1 °C 14,4 °C 6,4 km/h (2 Bft)
12.06.2018 01:35 14,5 °C 92 % 1006,0 hPa 0,0 mm 5,0 km/h (1 Bft) S-SW 205 ° 0 min 0,000 mm 0,0 UV-I 0 W/m² 13,2 °C 14,5 °C 9,7 km/h (2 Bft)
12.06.2018 01:36 14,6 °C 92 % 1006,0 hPa 0,0 mm 5,0 km/h (1 Bft) S-SW 196 ° 0 min 0,000 mm 0,0 UV-I 0 W/m² 13,3 °C 14,6 °C 9,7 km/h (2 Bft)
12.06.2018 01:37 14,6 °C 91 % 1006,0 hPa 0,0 mm 4,1 km/h (1 Bft) S-SW 196 ° 0 min 0,000 mm 0,0 UV-I 0 W/m² 13,1 °C 14,6 °C 8,0 km/h (2 Bft)
12.06.2018 01:38 14,7 °C 91 % 1006,0 hPa 0,0 mm 2,5 km/h (1 Bft) S-SW 196 ° 0 min 0,000 mm 0,0 UV-I 0 W/m² 13,2 °C 14,7 °C 4,8 km/h (1 Bft)
12.06.2018 01:39 14,7 °C 91 % 1006,0 hPa 0,0 mm 1,5 km/h (1 Bft) S 185 ° 0 min 0,000 mm 0,0 UV-I 0 W/m² 13,2 °C 14,7 °C 4,8 km/h (1 Bft)
12.06.2018 01:40 14,8 °C 91 % 1005,9 hPa 0,0 mm 1,2 km/h (1 Bft) S 186 ° 0 min 0,000 mm 0,0 UV-I 0 W/m² 13,3 °C 14,8 °C 3,2 km/h (1 Bft)
12.06.2018 01:41 14,8 °C 91 % 1006,0 hPa 0,0 mm 1,9 km/h (1 Bft) S 188 ° 0 min 0,000 mm 0,0 UV-I 0 W/m² 13,3 °C 14,8 °C 4,8 km/h (1 Bft)
12.06.2018 01:42 14,8 °C 91 % 1006,0 hPa 0,0 mm 1,6 km/h (1 Bft) S 191 ° 0 min 0,000 mm 0,0 UV-I 0 W/m² 13,3 °C 14,8 °C 6,4 km/h (2 Bft)
12.06.2018 01:43 14,8 °C 91 % 1006,0 hPa 0,0 mm 2,0 km/h (1 Bft) S-SW 193 ° 0 min 0,000 mm 0,0 UV-I 0 W/m² 13,3 °C 14,8 °C 6,4 km/h (2 Bft)
12.06.2018 01:44 14,8 °C 91 % 1006,0 hPa 0,0 mm 3,0 km/h (1 Bft) S-SW 193 ° 0 min 0,000 mm 0,0 UV-I 0 W/m² 13,3 °C 14,8 °C 4,8 km/h (1 Bft)
12.06.2018 01:45 14,7 °C 91 % 1006,0 hPa 0,0 mm 1,0 km/h (0 Bft) S-SW 193 ° 0 min 0,000 mm 0,0 UV-I 0 W/m² 13,2 °C 14,7 °C 4,8 km/h (1 Bft)
12.06.2018 01:46 14,7 °C 91 % 1005,9 hPa 0,0 mm 1,0 km/h (0 Bft) S-SW 193 ° 0 min 0,000 mm 0,0 UV-I 0 W/m² 13,2 °C 14,7 °C 1,6 km/h (1 Bft)
12.06.2018 01:47 14,7 °C 91 % 1005,9 hPa 0,0 mm 0,9 km/h (0 Bft) S-SW 193 ° 0 min 0,000 mm 0,0 UV-I 0 W/m² 13,2 °C 14,7 °C 3,2 km/h (1 Bft)
12.06.2018 01:48 14,7 °C 91 % 1005,9 hPa 0,0 mm 0,7 km/h (0 Bft) S-SW 193 ° 0 min 0,000 mm 0,0 UV-I 0 W/m² 13,2 °C 14,7 °C 1,6 km/h (1 Bft)
12.06.2018 01:49 14,6 °C 91 % 1006,0 hPa 0,0 mm 2,0 km/h (1 Bft) S-SW 195 ° 0 min 0,000 mm 0,0 UV-I 0 W/m² 13,1 °C 14,6 °C 3,2 km/h (1 Bft)
12.06.2018 01:50 14,6 °C 91 % 1006,0 hPa 0,0 mm 2,6 km/h (1 Bft) S 190 ° 0 min 0,000 mm 0,0 UV-I 0 W/m² 13,1 °C 14,6 °C 6,4 km/h (2 Bft)
12.06.2018 01:51 14,6 °C 91 % 1006,0 hPa 0,0 mm 4,4 km/h (1 Bft) S-SW 200 ° 0 min 0,000 mm 0,0 UV-I 0 W/m² 13,1 °C 14,6 °C 8,0 km/h (2 Bft)
12.06.2018 01:52 14,6 °C 91 % 1006,0 hPa 0,0 mm 1,7 km/h (1 Bft) S-SW 200 ° 0 min 0,000 mm 0,0 UV-I 0 W/m² 13,1 °C 14,6 °C 3,2 km/h (1 Bft)
12.06.2018 01:53 14,6 °C 91 % 1006,0 hPa 0,0 mm 4,0 km/h (1 Bft) S-SW 204 ° 0 min 0,000 mm 0,0 UV-I 0 W/m² 13,1 °C 14,6 °C 6,4 km/h (2 Bft)
12.06.2018 01:54 14,6 °C 91 % 1006,0 hPa 0,0 mm 0,2 km/h (0 Bft) S-SW 201 ° 0 min 0,000 mm 0,0 UV-I 0 W/m² 13,1 °C 14,6 °C 1,6 km/h (1 Bft)
12.06.2018 01:55 14,6 °C 91 % 1006,0 hPa 0,0 mm 0,8 km/h (0 Bft) S-SW 201 ° 0 min 0,000 mm 0,0 UV-I 0 W/m² 13,1 °C 14,6 °C 3,2 km/h (1 Bft)
12.06.2018 01:56 14,6 °C 91 % 1006,0 hPa 0,0 mm 0,5 km/h (0 Bft) S-SW 201 ° 0 min 0,000 mm 0,0 UV-I 0 W/m² 13,1 °C 14,6 °C 1,6 km/h (1 Bft)
12.06.2018 01:57 14,5 °C 91 % 1006,0 hPa 0,0 mm 0,2 km/h (0 Bft) S-SW 201 ° 0 min 0,000 mm 0,0 UV-I 0 W/m² 13,0 °C 14,5 °C 1,6 km/h (1 Bft)
12.06.2018 01:58 14,4 °C 91 % 1005,9 hPa 0,0 mm 3,1 km/h (1 Bft) S 186 ° 0 min 0,000 mm 0,0 UV-I 0 W/m² 12,9 °C 14,4 °C 8,0 km/h (2 Bft)
12.06.2018 01:59 14,4 °C 91 % 1006,0 hPa 0,0 mm 0,0 km/h (0 Bft) S 186 ° 0 min 0,000 mm 0,0 UV-I 0 W/m² 12,9 °C 14,4 °C 0,0 km/h (0 Bft)
12.06.2018 02:00 14,4 °C 91 % 1006,0 hPa 0,0 mm 0,0 km/h (0 Bft) S 186 ° 0 min 0,000 mm 0,0 UV-I 0 W/m² 12,9 °C 14,4 °C 0,0 km/h (0 Bft)
12.06.2018 02:01 14,3 °C 91 % 1006,0 hPa 0,0 mm 0,0 km/h (0 Bft) S 186 ° 0 min 0,000 mm 0,0 UV-I 0 W/m² 12,8 °C 14,3 °C 0,0 km/h (0 Bft)
12.06.2018 02:02 14,3 °C 91 % 1006,1 hPa 0,0 mm 0,0 km/h (0 Bft) S 186 ° 0 min 0,000 mm 0,0 UV-I 0 W/m² 12,8 °C 14,3 °C 0,0 km/h (0 Bft)
12.06.2018 02:03 14,2 °C 91 % 1006,1 hPa 0,0 mm 0,0 km/h (0 Bft) S 186 ° 0 min 0,000 mm 0,0 UV-I 0 W/m² 12,8 °C 14,2 °C 0,0 km/h (0 Bft)
12.06.2018 02:04 14,2 °C 91 % 1006,1 hPa 0,0 mm 0,0 km/h (0 Bft) S 186 ° 0 min 0,000 mm 0,0 UV-I 0 W/m² 12,8 °C 14,2 °C 0,0 km/h (0 Bft)
12.06.2018 02:05 14,2 °C 91 % 1006,1 hPa 0,0 mm 0,6 km/h (0 Bft) S 186 ° 0 min 0,000 mm 0,0 UV-I 0 W/m² 12,8 °C 14,2 °C 1,6 km/h (1 Bft)
12.06.2018 02:06 14,2 °C 92 % 1006,1 hPa 0,0 mm 0,0 km/h (0 Bft) S 186 ° 0 min 0,000 mm 0,0 UV-I 0 W/m² 12,9 °C 14,2 °C 0,0 km/h (0 Bft)
12.06.2018 02:07 14,1 °C 92 % 1006,1 hPa 0,0 mm 0,0 km/h (0 Bft) S 186 ° 0 min 0,000 mm 0,0 UV-I 0 W/m² 12,8 °C 14,1 °C 0,0 km/h (0 Bft)
12.06.2018 02:08 14,1 °C 92 % 1006,1 hPa 0,0 mm 0,0 km/h (0 Bft) S 186 ° 0 min 0,000 mm 0,0 UV-I 0 W/m² 12,8 °C 14,1 °C 0,0 km/h (0 Bft)
12.06.2018 02:09 14,1 °C 91 % 1006,1 hPa 0,0 mm 0,9 km/h (0 Bft) S 186 ° 0 min 0,000 mm 0,0 UV-I 0 W/m² 12,7 °C 14,1 °C 3,2 km/h (1 Bft)
12.06.2018 02:10 14,1 °C 92 % 1006,0 hPa 0,0 mm 1,8 km/h (1 Bft) S 186 ° 0 min 0,000 mm 0,0 UV-I 0 W/m² 12,8 °C 14,1 °C 3,2 km/h (1 Bft)
12.06.2018 02:11 14,0 °C 92 % 1006,0 hPa 0,0 mm 0,4 km/h (0 Bft) S 186 ° 0 min 0,000 mm 0,0 UV-I 0 W/m² 12,7 °C 14,0 °C 1,6 km/h (1 Bft)
12.06.2018 02:12 13,9 °C 92 % 1006,0 hPa 0,0 mm 0,0 km/h (0 Bft) S 186 ° 0 min 0,000 mm 0,0 UV-I 0 W/m² 12,6 °C 13,9 °C 0,0 km/h (0 Bft)
12.06.2018 02:13 13,9 °C 92 % 1006,1 hPa 0,0 mm 0,0 km/h (0 Bft) S 186 ° 0 min 0,000 mm 0,0 UV-I 0 W/m² 12,6 °C 13,9 °C 0,0 km/h (0 Bft)
12.06.2018 02:14 13,8 °C 92 % 1006,0 hPa 0,0 mm 0,0 km/h (0 Bft) S 186 ° 0 min 0,000 mm 0,0 UV-I 0 W/m² 12,5 °C 13,8 °C 0,0 km/h (0 Bft)
12.06.2018 02:15 13,8 °C 92 % 1006,1 hPa 0,0 mm 0,0 km/h (0 Bft) S 186 ° 0 min 0,000 mm 0,0 UV-I 0 W/m² 12,5 °C 13,8 °C 0,0 km/h (0 Bft)
12.06.2018 02:16 13,7 °C 92 % 1006,0 hPa 0,0 mm 0,0 km/h (0 Bft) S 186 ° 0 min 0,000 mm 0,0 UV-I 0 W/m² 12,4 °C 13,7 °C 0,0 km/h (0 Bft)
12.06.2018 02:17 13,7 °C 92 % 1006,0 hPa 0,0 mm 0,0 km/h (0 Bft) S 186 ° 0 min 0,000 mm 0,0 UV-I 0 W/m² 12,4 °C 13,7 °C 0,0 km/h (0 Bft)
12.06.2018 02:18 13,7 °C 92 % 1006,0 hPa 0,0 mm 0,0 km/h (0 Bft) S 186 ° 0 min 0,000 mm 0,0 UV-I 0 W/m² 12,4 °C 13,7 °C 0,0 km/h (0 Bft)
12.06.2018 02:19 13,6 °C 92 % 1006,0 hPa 0,0 mm 0,0 km/h (0 Bft) S 186 ° 0 min 0,000 mm 0,0 UV-I 0 W/m² 12,3 °C 13,6 °C 0,0 km/h (0 Bft)
12.06.2018 02:20 13,6 °C 92 % 1006,0 hPa 0,0 mm 0,0 km/h (0 Bft) S 186 ° 0 min 0,000 mm 0,0 UV-I 0 W/m² 12,3 °C 13,6 °C 0,0 km/h (0 Bft)
12.06.2018 02:21 13,5 °C 92 % 1006,0 hPa 0,0 mm 0,0 km/h (0 Bft) S 186 ° 0 min 0,000 mm 0,0 UV-I 0 W/m² 12,2 °C 13,5 °C 0,0 km/h (0 Bft)
12.06.2018 02:22 13,4 °C 92 % 1005,9 hPa 0,0 mm 1,0 km/h (0 Bft) S 186 ° 0 min 0,000 mm 0,0 UV-I 0 W/m² 12,1 °C 13,4 °C 3,2 km/h (1 Bft)
12.06.2018 02:23 13,4 °C 92 % 1005,9 hPa 0,0 mm 2,4 km/h (1 Bft) S 186 ° 0 min 0,000 mm 0,0 UV-I 0 W/m² 12,1 °C 13,4 °C 3,2 km/h (1 Bft)
12.06.2018 02:24 13,3 °C 92 % 1005,9 hPa 0,0 mm 3,0 km/h (1 Bft) S 186 ° 0 min 0,000 mm 0,0 UV-I 0 W/m² 12,0 °C 13,3 °C 4,8 km/h (1 Bft)
12.06.2018 02:25 13,3 °C 92 % 1006,0 hPa 0,0 mm 0,7 km/h (0 Bft) S 186 ° 0 min 0,000 mm 0,0 UV-I 0 W/m² 12,0 °C 13,3 °C 3,2 km/h (1 Bft)
12.06.2018 02:26 13,3 °C 92 % 1006,0 hPa 0,0 mm 0,2 km/h (0 Bft) S 186 ° 0 min 0,000 mm 0,0 UV-I 0 W/m² 12,0 °C 13,3 °C 1,6 km/h (1 Bft)
12.06.2018 02:27 13,3 °C 92 % 1006,0 hPa 0,0 mm 0,0 km/h (0 Bft) S 186 ° 0 min 0,000 mm 0,0 UV-I 0 W/m² 12,0 °C 13,3 °C 0,0 km/h (0 Bft)
12.06.2018 02:28 13,3 °C 92 % 1006,0 hPa 0,0 mm 1,9 km/h (1 Bft) S 186 ° 0 min 0,000 mm 0,0 UV-I 0 W/m² 12,0 °C 13,3 °C 3,2 km/h (1 Bft)
12.06.2018 02:29 13,3 °C 92 % 1006,0 hPa 0,0 mm 0,6 km/h (0 Bft) S 186 ° 0 min 0,000 mm 0,0 UV-I 0 W/m² 12,0 °C 13,3 °C 1,6 km/h (1 Bft)
12.06.2018 02:30 13,3 °C 92 % 1006,0 hPa 0,0 mm 2,5 km/h (1 Bft) S 186 ° 0 min 0,000 mm 0,0 UV-I 0 W/m² 12,0 °C 13,3 °C 4,8 km/h (1 Bft)
12.06.2018 02:31 13,3 °C 92 % 1006,0 hPa 0,0 mm 0,1 km/h (0 Bft) S 186 ° 0 min 0,000 mm 0,0 UV-I 0 W/m² 12,0 °C 13,3 °C 1,6 km/h (1 Bft)
12.06.2018 02:32 13,3 °C 92 % 1006,0 hPa 0,0 mm 0,8 km/h (0 Bft) S 186 ° 0 min 0,000 mm 0,0 UV-I 0 W/m² 12,0 °C 13,3 °C 1,6 km/h (1 Bft)
12.06.2018 02:33 13,4 °C 92 % 1006,0 hPa 0,0 mm 0,1 km/h (0 Bft) S 186 ° 0 min 0,000 mm 0,0 UV-I 0 W/m² 12,1 °C 13,4 °C 1,6 km/h (1 Bft)
12.06.2018 02:34 13,3 °C 92 % 1006,0 hPa 0,0 mm 0,3 km/h (0 Bft) S 186 ° 0 min 0,000 mm 0,0 UV-I 0 W/m² 12,0 °C 13,3 °C 1,6 km/h (1 Bft)
12.06.2018 02:35 13,3 °C 92 % 1006,0 hPa 0,0 mm 0,1 km/h (0 Bft) S 186 ° 0 min 0,000 mm 0,0 UV-I 0 W/m² 12,0 °C 13,3 °C 1,6 km/h (1 Bft)
12.06.2018 02:36 13,3 °C 92 % 1006,0 hPa 0,0 mm 0,0 km/h (0 Bft) S 186 ° 0 min 0,000 mm 0,0 UV-I 0 W/m² 12,0 °C 13,3 °C 0,0 km/h (0 Bft)
12.06.2018 02:37 13,3 °C 93 % 1005,9 hPa 0,0 mm 1,1 km/h (1 Bft) S 186 ° 0 min 0,000 mm 0,0 UV-I 0 W/m² 12,2 °C 13,3 °C 3,2 km/h (1 Bft)
12.06.2018 02:38 13,4 °C 93 % 1005,9 hPa 0,0 mm 3,0 km/h (1 Bft) S 186 ° 0 min 0,000 mm 0,0 UV-I 0 W/m² 12,3 °C 13,4 °C 6,4 km/h (2 Bft)
12.06.2018 02:39 13,4 °C 93 % 1005,9 hPa 0,0 mm 0,3 km/h (0 Bft) S 186 ° 0 min 0,000 mm 0,0 UV-I 0 W/m² 12,3 °C 13,4 °C 1,6 km/h (1 Bft)
12.06.2018 02:40 13,5 °C 93 % 1005,9 hPa 0,0 mm 0,0 km/h (0 Bft) S 186 ° 0 min 0,000 mm 0,0 UV-I 0 W/m² 12,4 °C 13,5 °C 0,0 km/h (0 Bft)
12.06.2018 02:41 13,6 °C 93 % 1005,9 hPa 0,0 mm 0,0 km/h (0 Bft) S 186 ° 0 min 0,000 mm 0,0 UV-I 0 W/m² 12,5 °C 13,6 °C 0,0 km/h (0 Bft)
12.06.2018 02:42 13,6 °C 93 % 1005,9 hPa 0,0 mm 0,0 km/h (0 Bft) S 186 ° 0 min 0,000 mm 0,0 UV-I 0 W/m² 12,5 °C 13,6 °C 0,0 km/h (0 Bft)
12.06.2018 02:43 13,5 °C 93 % 1005,9 hPa 0,0 mm 0,0 km/h (0 Bft) S 186 ° 0 min 0,000 mm 0,0 UV-I 0 W/m² 12,4 °C 13,5 °C 0,0 km/h (0 Bft)
12.06.2018 02:44 13,4 °C 92 % 1005,9 hPa 0,0 mm 0,0 km/h (0 Bft) S 186 ° 0 min 0,000 mm 0,0 UV-I 0 W/m² 12,1 °C 13,4 °C 0,0 km/h (0 Bft)
12.06.2018 02:45 13,3 °C 92 % 1005,9 hPa 0,0 mm 0,0 km/h (0 Bft) S 186 ° 0 min 0,000 mm 0,0 UV-I 0 W/m² 12,0 °C 13,3 °C 0,0 km/h (0 Bft)
12.06.2018 02:46 13,3 °C 92 % 1005,9 hPa 0,0 mm 0,0 km/h (0 Bft) S 186 ° 0 min 0,000 mm 0,0 UV-I 0 W/m² 12,0 °C 13,3 °C 0,0 km/h (0 Bft)
12.06.2018 02:47 13,3 °C 92 % 1005,9 hPa 0,0 mm 0,0 km/h (0 Bft) S 186 ° 0 min 0,000 mm 0,0 UV-I 0 W/m² 12,0 °C 13,3 °C 0,0 km/h (0 Bft)
12.06.2018 02:48 13,3 °C 93 % 1005,9 hPa 0,0 mm 0,0 km/h (0 Bft) S 186 ° 0 min 0,000 mm 0,0 UV-I 0 W/m² 12,2 °C 13,3 °C 0,0 km/h (0 Bft)
12.06.2018 02:49 13,4 °C 93 % 1006,0 hPa 0,0 mm 0,0 km/h (0 Bft) S 186 ° 0 min 0,000 mm 0,0 UV-I 0 W/m² 12,3 °C 13,4 °C 0,0 km/h (0 Bft)
12.06.2018 02:50 13,4 °C 93 % 1006,0 hPa 0,0 mm 0,1 km/h (0 Bft) S 186 ° 0 min 0,000 mm 0,0 UV-I 0 W/m² 12,3 °C 13,4 °C 1,6 km/h (1 Bft)
12.06.2018 02:51 13,4 °C 93 % 1006,0 hPa 0,0 mm 0,0 km/h (0 Bft) S 186 ° 0 min 0,000 mm 0,0 UV-I 0 W/m² 12,3 °C 13,4 °C 0,0 km/h (0 Bft)
12.06.2018 02:52 13,3 °C 92 % 1006,0 hPa 0,0 mm 0,0 km/h (0 Bft) S 186 ° 0 min 0,000 mm 0,0 UV-I 0 W/m² 12,0 °C 13,3 °C 0,0 km/h (0 Bft)
12.06.2018 02:53 13,3 °C 92 % 1006,0 hPa 0,0 mm 0,0 km/h (0 Bft) S 186 ° 0 min 0,000 mm 0,0 UV-I 0 W/m² 12,0 °C 13,3 °C 0,0 km/h (0 Bft)
12.06.2018 02:54 13,3 °C 93 % 1006,0 hPa 0,0 mm 0,1 km/h (0 Bft) S 186 ° 0 min 0,000 mm 0,0 UV-I 0 W/m² 12,2 °C 13,3 °C 1,6 km/h (1 Bft)
12.06.2018 02:55 13,3 °C 93 % 1006,1 hPa 0,0 mm 0,0 km/h (0 Bft) S 186 ° 0 min 0,000 mm 0,0 UV-I 0 W/m² 12,2 °C 13,3 °C 0,0 km/h (0 Bft)
12.06.2018 02:56 13,3 °C 93 % 1006,1 hPa 0,0 mm 0,0 km/h (0 Bft) S 186 ° 0 min 0,000 mm 0,0 UV-I 0 W/m² 12,2 °C 13,3 °C 0,0 km/h (0 Bft)
12.06.2018 02:57 13,3 °C 93 % 1006,0 hPa 0,0 mm 0,0 km/h (0 Bft) S 186 ° 0 min 0,000 mm 0,0 UV-I 0 W/m² 12,2 °C 13,3 °C 0,0 km/h (0 Bft)
12.06.2018 02:58 13,3 °C 93 % 1006,0 hPa 0,0 mm 0,0 km/h (0 Bft) S 186 ° 0 min 0,000 mm 0,0 UV-I 0 W/m² 12,2 °C 13,3 °C 0,0 km/h (0 Bft)
12.06.2018 02:59 13,3 °C 93 % 1006,0 hPa 0,0 mm 0,0 km/h (0 Bft) S 186 ° 0 min 0,000 mm 0,0 UV-I 0 W/m² 12,2 °C 13,3 °C 0,0 km/h (0 Bft)
12.06.2018 03:00 13,3 °C 93 % 1006,0 hPa 0,0 mm 0,0 km/h (0 Bft) S 186 ° 0 min 0,000 mm 0,0 UV-I 0 W/m² 12,2 °C 13,3 °C 0,0 km/h (0 Bft)
12.06.2018 03:01 13,3 °C 93 % 1006,0 hPa 0,0 mm 0,0 km/h (0 Bft) S 186 ° 0 min 0,000 mm 0,0 UV-I 0 W/m² 12,2 °C 13,3 °C 0,0 km/h (0 Bft)
12.06.2018 03:02 13,3 °C 93 % 1005,9 hPa 0,0 mm 0,0 km/h (0 Bft) S 186 ° 0 min 0,000 mm 0,0 UV-I 0 W/m² 12,2 °C 13,3 °C 0,0 km/h (0 Bft)
12.06.2018 03:03 13,3 °C 93 % 1005,9 hPa 0,0 mm 0,0 km/h (0 Bft) S 186 ° 0 min 0,000 mm 0,0 UV-I 0 W/m² 12,2 °C 13,3 °C 0,0 km/h (0 Bft)
12.06.2018 03:04 13,3 °C 93 % 1005,9 hPa 0,0 mm 0,0 km/h (0 Bft) S 186 ° 0 min 0,000 mm 0,0 UV-I 0 W/m² 12,2 °C 13,3 °C 0,0 km/h (0 Bft)
12.06.2018 03:05 13,3 °C 93 % 1006,0 hPa 0,0 mm 0,0 km/h (0 Bft) S 186 ° 0 min 0,000 mm 0,0 UV-I 0 W/m² 12,2 °C 13,3 °C 0,0 km/h (0 Bft)
12.06.2018 03:06 13,3 °C 93 % 1006,0 hPa 0,0 mm 0,0 km/h (0 Bft) S 186 ° 0 min 0,000 mm 0,0 UV-I 0 W/m² 12,2 °C 13,3 °C 0,0 km/h (0 Bft)
12.06.2018 03:07 13,4 °C 93 % 1006,0 hPa 0,0 mm 0,0 km/h (0 Bft) S 186 ° 0 min 0,000 mm 0,0 UV-I 0 W/m² 12,3 °C 13,4 °C 0,0 km/h (0 Bft)
12.06.2018 03:08 13,3 °C 93 % 1005,9 hPa 0,0 mm 0,0 km/h (0 Bft) S 186 ° 0 min 0,000 mm 0,0 UV-I 0 W/m² 12,2 °C 13,3 °C 0,0 km/h (0 Bft)
12.06.2018 03:09 13,4 °C 93 % 1006,0 hPa 0,0 mm 0,0 km/h (0 Bft) S 186 ° 0 min 0,000 mm 0,0 UV-I 0 W/m² 12,3 °C 13,4 °C 0,0 km/h (0 Bft)
12.06.2018 03:10 13,4 °C 93 % 1006,0 hPa 0,0 mm 0,0 km/h (0 Bft) S 186 ° 0 min 0,000 mm 0,0 UV-I 0 W/m² 12,3 °C 13,4 °C 0,0 km/h (0 Bft)
12.06.2018 03:11 13,4 °C 93 % 1006,0 hPa 0,0 mm 0,0 km/h (0 Bft) S 186 ° 0 min 0,000 mm 0,0 UV-I 0 W/m² 12,3 °C 13,4 °C 0,0 km/h (0 Bft)
12.06.2018 03:12 13,4 °C 93 % 1006,0 hPa 0,0 mm 0,0 km/h (0 Bft) S 186 ° 0 min 0,000 mm 0,0 UV-I 0 W/m² 12,3 °C 13,4 °C 0,0 km/h (0 Bft)
12.06.2018 03:13 13,4 °C 93 % 1005,9 hPa 0,0 mm 0,0 km/h (0 Bft) S 186 ° 0 min 0,000 mm 0,0 UV-I 0 W/m² 12,3 °C 13,4 °C 0,0 km/h (0 Bft)
12.06.2018 03:14 13,4 °C 93 % 1005,9 hPa 0,0 mm 0,0 km/h (0 Bft) S 186 ° 0 min 0,000 mm 0,0 UV-I 0 W/m² 12,3 °C 13,4 °C 0,0 km/h (0 Bft)
12.06.2018 03:15 13,5 °C 93 % 1005,9 hPa 0,0 mm 0,0 km/h (0 Bft) S 186 ° 0 min 0,000 mm 0,0 UV-I 0 W/m² 12,4 °C 13,5 °C 0,0 km/h (0 Bft)
12.06.2018 03:16 13,5 °C 93 % 1005,9 hPa 0,0 mm 0,0 km/h (0 Bft) S 186 ° 0 min 0,000 mm 0,0 UV-I 0 W/m² 12,4 °C 13,5 °C 0,0 km/h (0 Bft)
12.06.2018 03:17 13,6 °C 93 % 1005,9 hPa 0,0 mm 0,0 km/h (0 Bft) S 186 ° 0 min 0,000 mm 0,0 UV-I 0 W/m² 12,5 °C 13,6 °C 0,0 km/h (0 Bft)
12.06.2018 03:18 13,6 °C 93 % 1005,9 hPa 0,0 mm 0,7 km/h (0 Bft) S 186 ° 0 min 0,000 mm 0,0 UV-I 0 W/m² 12,5 °C 13,6 °C 3,2 km/h (1 Bft)
12.06.2018 03:19 13,7 °C 93 % 1005,9 hPa 0,0 mm 0,9 km/h (0 Bft) S 186 ° 0 min 0,000 mm 0,0 UV-I 0 W/m² 12,6 °C 13,7 °C 1,6 km/h (1 Bft)
12.06.2018 03:20 13,7 °C 93 % 1005,9 hPa 0,0 mm 1,3 km/h (1 Bft) S 186 ° 0 min 0,000 mm 0,0 UV-I 0 W/m² 12,6 °C 13,7 °C 1,6 km/h (1 Bft)
12.06.2018 03:21 13,8 °C 93 % 1005,9 hPa 0,0 mm 2,3 km/h (1 Bft) S 186 ° 0 min 0,000 mm 0,0 UV-I 0 W/m² 12,7 °C 13,8 °C 3,2 km/h (1 Bft)
12.06.2018 03:22 13,8 °C 93 % 1005,9 hPa 0,0 mm 2,5 km/h (1 Bft) S 186 ° 0 min 0,000 mm 0,0 UV-I 0 W/m² 12,7 °C 13,8 °C 3,2 km/h (1 Bft)
12.06.2018 03:23 13,8 °C 93 % 1005,9 hPa 0,0 mm 2,2 km/h (1 Bft) S 186 ° 0 min 0,000 mm 0,0 UV-I 0 W/m² 12,7 °C 13,8 °C 3,2 km/h (1 Bft)
12.06.2018 03:24 13,8 °C 93 % 1005,9 hPa 0,0 mm 2,2 km/h (1 Bft) S 186 ° 0 min 0,000 mm 0,0 UV-I 0 W/m² 12,7 °C 13,8 °C 3,2 km/h (1 Bft)
12.06.2018 03:25 13,9 °C 93 % 1005,9 hPa 0,0 mm 1,6 km/h (1 Bft) S 186 ° 0 min 0,000 mm 0,0 UV-I 0 W/m² 12,8 °C 13,9 °C 3,2 km/h (1 Bft)
12.06.2018 03:26 13,9 °C 93 % 1005,9 hPa 0,0 mm 1,4 km/h (1 Bft) S 186 ° 0 min 0,000 mm 0,0 UV-I 0 W/m² 12,8 °C 13,9 °C 3,2 km/h (1 Bft)
12.06.2018 03:27 13,9 °C 93 % 1005,9 hPa 0,0 mm 1,7 km/h (1 Bft) S 186 ° 0 min 0,000 mm 0,0 UV-I 0 W/m² 12,8 °C 13,9 °C 3,2 km/h (1 Bft)
12.06.2018 03:28 13,9 °C 93 % 1006,0 hPa 0,0 mm 1,6 km/h (1 Bft) S 186 ° 0 min 0,000 mm 0,0 UV-I 0 W/m² 12,8 °C 13,9 °C 3,2 km/h (1 Bft)
12.06.2018 03:29 13,9 °C 93 % 1006,1 hPa 0,0 mm 0,0 km/h (0 Bft) S 186 ° 0 min 0,000 mm 0,0 UV-I 0 W/m² 12,8 °C 13,9 °C 0,0 km/h (0 Bft)
12.06.2018 03:30 14,0 °C 93 % 1006,0 hPa 0,0 mm 1,2 km/h (1 Bft) S 186 ° 0 min 0,000 mm 0,0 UV-I 0 W/m² 12,9 °C 14,0 °C 1,6 km/h (1 Bft)
12.06.2018 03:31 14,0 °C 93 % 1006,0 hPa 0,0 mm 0,7 km/h (0 Bft) S 186 ° 0 min 0,000 mm 0,0 UV-I 0 W/m² 12,9 °C 14,0 °C 3,2 km/h (1 Bft)
12.06.2018 03:32 14,0 °C 93 % 1006,1 hPa 0,0 mm 0,5 km/h (0 Bft) S 186 ° 0 min 0,000 mm 0,0 UV-I 0 W/m² 12,9 °C 14,0 °C 1,6 km/h (1 Bft)
12.06.2018 03:33 14,1 °C 93 % 1006,0 hPa 0,0 mm 0,2 km/h (0 Bft) S 186 ° 0 min 0,000 mm 0,0 UV-I 0 W/m² 13,0 °C 14,1 °C 1,6 km/h (1 Bft)
12.06.2018 03:34 14,1 °C 93 % 1006,1 hPa 0,0 mm 0,4 km/h (0 Bft) S 186 ° 0 min 0,000 mm 0,0 UV-I 0 W/m² 13,0 °C 14,1 °C 1,6 km/h (1 Bft)
12.06.2018 03:35 14,1 °C 93 % 1006,1 hPa 0,0 mm 0,0 km/h (0 Bft) S 186 ° 0 min 0,000 mm 0,0 UV-I 0 W/m² 13,0 °C 14,1 °C 0,0 km/h (0 Bft)
12.06.2018 03:36 14,1 °C 93 % 1006,0 hPa 0,0 mm 0,8 km/h (0 Bft) S 186 ° 0 min 0,000 mm 0,0 UV-I 0 W/m² 13,0 °C 14,1 °C 3,2 km/h (1 Bft)
12.06.2018 03:37 14,2 °C 92 % 1006,0 hPa 0,0 mm 3,2 km/h (1 Bft) S 186 ° 0 min 0,000 mm 0,0 UV-I 0 W/m² 12,9 °C 14,2 °C 4,8 km/h (1 Bft)
12.06.2018 03:38 14,2 °C 92 % 1006,1 hPa 0,0 mm 3,8 km/h (1 Bft) S 190 ° 0 min 0,000 mm 0,0 UV-I 0 W/m² 12,9 °C 14,2 °C 6,4 km/h (2 Bft)
12.06.2018 03:39 14,2 °C 92 % 1006,0 hPa 0,0 mm 2,7 km/h (1 Bft) S 190 ° 0 min 0,000 mm 0,0 UV-I 0 W/m² 12,9 °C 14,2 °C 4,8 km/h (1 Bft)
12.06.2018 03:40 14,2 °C 92 % 1006,0 hPa 0,0 mm 1,9 km/h (1 Bft) S 190 ° 0 min 0,000 mm 0,0 UV-I 0 W/m² 12,9 °C 14,2 °C 3,2 km/h (1 Bft)
12.06.2018 03:41 14,2 °C 92 % 1006,0 hPa 0,0 mm 1,6 km/h (1 Bft) S 190 ° 0 min 0,000 mm 0,0 UV-I 0 W/m² 12,9 °C 14,2 °C 3,2 km/h (1 Bft)
12.06.2018 03:42 14,2 °C 92 % 1006,0 hPa 0,0 mm 2,7 km/h (1 Bft) S 190 ° 0 min 0,000 mm 0,0 UV-I 0 W/m² 12,9 °C 14,2 °C 4,8 km/h (1 Bft)
12.06.2018 03:43 14,2 °C 92 % 1006,1 hPa 0,0 mm 2,7 km/h (1 Bft) S 190 ° 0 min 0,000 mm 0,0 UV-I 0 W/m² 12,9 °C 14,2 °C 3,2 km/h (1 Bft)
12.06.2018 03:44 14,2 °C 92 % 1006,1 hPa 0,0 mm 1,7 km/h (1 Bft) S 190 ° 0 min 0,000 mm 0,0 UV-I 0 W/m² 12,9 °C 14,2 °C 3,2 km/h (1 Bft)
12.06.2018 03:45 14,2 °C 92 % 1006,1 hPa 0,0 mm 0,4 km/h (0 Bft) S 190 ° 0 min 0,000 mm 0,0 UV-I 0 W/m² 12,9 °C 14,2 °C 3,2 km/h (1 Bft)
12.06.2018 03:46 14,3 °C 92 % 1006,1 hPa 0,0 mm 0,0 km/h (0 Bft) S 190 ° 0 min 0,000 mm 0,0 UV-I 0 W/m² 13,0 °C 14,3 °C 0,0 km/h (0 Bft)
12.06.2018 03:47 14,3 °C 92 % 1006,0 hPa 0,0 mm 0,0 km/h (0 Bft) S 190 ° 0 min 0,000 mm 0,0 UV-I 0 W/m² 13,0 °C 14,3 °C 0,0 km/h (0 Bft)
12.06.2018 03:48 14,3 °C 92 % 1006,0 hPa 0,0 mm 0,0 km/h (0 Bft) S 190 ° 0 min 0,000 mm 0,0 UV-I 0 W/m² 13,0 °C 14,3 °C 0,0 km/h (0 Bft)
12.06.2018 03:49 14,2 °C 92 % 1006,0 hPa 0,0 mm 0,0 km/h (0 Bft) S 190 ° 0 min 0,000 mm 0,0 UV-I 0 W/m² 12,9 °C 14,2 °C 0,0 km/h (0 Bft)
12.06.2018 03:50 14,2 °C 92 % 1006,0 hPa 0,0 mm 1,3 km/h (1 Bft) S 190 ° 0 min 0,000 mm 0,0 UV-I 0 W/m² 12,9 °C 14,2 °C 3,2 km/h (1 Bft)
12.06.2018 03:51 14,2 °C 92 % 1006,0 hPa 0,0 mm 2,9 km/h (1 Bft) S 190 ° 0 min 0,000 mm 0,0 UV-I 0 W/m² 12,9 °C 14,2 °C 3,2 km/h (1 Bft)
12.06.2018 03:52 14,2 °C 92 % 1006,0 hPa 0,0 mm 2,5 km/h (1 Bft) S 190 ° 0 min 0,000 mm 0,0 UV-I 0 W/m² 12,9 °C 14,2 °C 3,2 km/h (1 Bft)
12.06.2018 03:53 14,2 °C 92 % 1006,0 hPa 0,0 mm 1,7 km/h (1 Bft) S 190 ° 0 min 0,000 mm 0,0 UV-I 0 W/m² 12,9 °C 14,2 °C 3,2 km/h (1 Bft)
12.06.2018 03:54 14,2 °C 92 % 1006,0 hPa 0,0 mm 1,9 km/h (1 Bft) S 190 ° 0 min 0,000 mm 0,0 UV-I 0 W/m² 12,9 °C 14,2 °C 3,2 km/h (1 Bft)
12.06.2018 03:55 14,2 °C 92 % 1006,0 hPa 0,0 mm 0,1 km/h (0 Bft) S 190 ° 0 min 0,000 mm 0,0 UV-I 0 W/m² 12,9 °C 14,2 °C 1,6 km/h (1 Bft)
12.06.2018 03:56 14,2 °C 92 % 1006,0 hPa 0,0 mm 0,0 km/h (0 Bft) S 190 ° 0 min 0,000 mm 0,0 UV-I 0 W/m² 12,9 °C 14,2 °C 0,0 km/h (0 Bft)
12.06.2018 03:57 14,2 °C 92 % 1006,0 hPa 0,0 mm 0,0 km/h (0 Bft) S 190 ° 0 min 0,000 mm 0,0 UV-I 0 W/m² 12,9 °C 14,2 °C 0,0 km/h (0 Bft)
12.06.2018 03:58 14,2 °C 92 % 1006,0 hPa 0,0 mm 0,0 km/h (0 Bft) S 190 ° 0 min 0,000 mm 0,0 UV-I 0 W/m² 12,9 °C 14,2 °C 0,0 km/h (0 Bft)
12.06.2018 03:59 14,2 °C 92 % 1006,1 hPa 0,0 mm 0,0 km/h (0 Bft) S 190 ° 0 min 0,000 mm 0,0 UV-I 0 W/m² 12,9 °C 14,2 °C 0,0 km/h (0 Bft)
12.06.2018 04:00 14,2 °C 92 % 1006,0 hPa 0,0 mm 0,0 km/h (0 Bft) S 190 ° 0 min 0,000 mm 0,0 UV-I 0 W/m² 12,9 °C 14,2 °C 0,0 km/h (0 Bft)
12.06.2018 04:01 14,2 °C 92 % 1006,1 hPa 0,0 mm 0,7 km/h (0 Bft) S 190 ° 0 min 0,000 mm 0,0 UV-I 0 W/m² 12,9 °C 14,2 °C 3,2 km/h (1 Bft)
12.06.2018 04:02 14,3 °C 92 % 1006,1 hPa 0,0 mm 1,3 km/h (1 Bft) S 185 ° 0 min 0,000 mm 0,0 UV-I 0 W/m² 13,0 °C 14,3 °C 3,2 km/h (1 Bft)
12.06.2018 04:03 14,3 °C 92 % 1006,0 hPa 0,0 mm 1,4 km/h (1 Bft) S 185 ° 0 min 0,000 mm 0,0 UV-I 0 W/m² 13,0 °C 14,3 °C 3,2 km/h (1 Bft)
12.06.2018 04:04 14,3 °C 92 % 1006,0 hPa 0,0 mm 0,4 km/h (0 Bft) S 185 ° 0 min 0,000 mm 0,0 UV-I 0 W/m² 13,0 °C 14,3 °C 1,6 km/h (1 Bft)
12.06.2018 04:05 14,3 °C 92 % 1006,0 hPa 0,0 mm 0,5 km/h (0 Bft) S 185 ° 0 min 0,000 mm 0,0 UV-I 0 W/m² 13,0 °C 14,3 °C 1,6 km/h (1 Bft)
12.06.2018 04:06 14,3 °C 92 % 1006,0 hPa 0,0 mm 0,0 km/h (0 Bft) S 185 ° 0 min 0,000 mm 0,0 UV-I 0 W/m² 13,0 °C 14,3 °C 0,0 km/h (0 Bft)
12.06.2018 04:07 14,3 °C 92 % 1005,9 hPa 0,0 mm 0,0 km/h (0 Bft) S 185 ° 0 min 0,000 mm 0,0 UV-I 0 W/m² 13,0 °C 14,3 °C 0,0 km/h (0 Bft)
12.06.2018 04:08 14,3 °C 92 % 1006,0 hPa 0,0 mm 0,0 km/h (0 Bft) S 185 ° 0 min 0,000 mm 0,0 UV-I 0 W/m² 13,0 °C 14,3 °C 0,0 km/h (0 Bft)
12.06.2018 04:09 14,2 °C 92 % 1005,9 hPa 0,0 mm 0,0 km/h (0 Bft) S 185 ° 0 min 0,000 mm 0,0 UV-I 0 W/m² 12,9 °C 14,2 °C 0,0 km/h (0 Bft)
12.06.2018 04:10 14,3 °C 92 % 1005,9 hPa 0,0 mm 0,0 km/h (0 Bft) S 185 ° 0 min 0,000 mm 0,0 UV-I 0 W/m² 13,0 °C 14,3 °C 0,0 km/h (0 Bft)
12.06.2018 04:11 14,2 °C 92 % 1005,9 hPa 0,0 mm 0,0 km/h (0 Bft) S 185 ° 0 min 0,000 mm 0,0 UV-I 0 W/m² 12,9 °C 14,2 °C 0,0 km/h (0 Bft)
12.06.2018 04:12 14,2 °C 92 % 1005,9 hPa 0,0 mm 0,0 km/h (0 Bft) S 185 ° 0 min 0,000 mm 0,0 UV-I 0 W/m² 12,9 °C 14,2 °C 0,0 km/h (0 Bft)
12.06.2018 04:13 14,2 °C 92 % 1006,0 hPa 0,0 mm 2,3 km/h (1 Bft) S-SW 194 ° 0 min 0,000 mm 0,0 UV-I 0 W/m² 12,9 °C 14,2 °C 4,8 km/h (1 Bft)
12.06.2018 04:14 14,2 °C 92 % 1006,0 hPa 0,0 mm 3,1 km/h (1 Bft) S-SW 194 ° 0 min 0,000 mm 0,0 UV-I 0 W/m² 12,9 °C 14,2 °C 4,8 km/h (1 Bft)
12.06.2018 04:15 14,3 °C 92 % 1006,0 hPa 0,0 mm 0,6 km/h (0 Bft) S-SW 194 ° 0 min 0,000 mm 0,0 UV-I 0 W/m² 13,0 °C 14,3 °C 1,6 km/h (1 Bft)
12.06.2018 04:16 14,3 °C 92 % 1006,0 hPa 0,0 mm 0,1 km/h (0 Bft) S-SW 194 ° 0 min 0,000 mm 0,0 UV-I 0 W/m² 13,0 °C 14,3 °C 1,6 km/h (1 Bft)
12.06.2018 04:17 14,3 °C 92 % 1006,0 hPa 0,0 mm 0,0 km/h (0 Bft) S-SW 194 ° 0 min 0,000 mm 0,0 UV-I 0 W/m² 13,0 °C 14,3 °C 0,0 km/h (0 Bft)
12.06.2018 04:18 14,2 °C 92 % 1006,0 hPa 0,0 mm 0,0 km/h (0 Bft) S-SW 194 ° 0 min 0,000 mm 0,0 UV-I 0 W/m² 12,9 °C 14,2 °C 0,0 km/h (0 Bft)
12.06.2018 04:19 14,2 °C 92 % 1005,9 hPa 0,0 mm 0,0 km/h (0 Bft) S-SW 194 ° 0 min 0,000 mm 0,0 UV-I 0 W/m² 12,9 °C 14,2 °C 0,0 km/h (0 Bft)
12.06.2018 04:20 14,2 °C 92 % 1005,9 hPa 0,0 mm 1,9 km/h (1 Bft) S-SW 194 ° 0 min 0,000 mm 0,0 UV-I 0 W/m² 12,9 °C 14,2 °C 3,2 km/h (1 Bft)
12.06.2018 04:21 14,2 °C 92 % 1005,9 hPa 0,0 mm 2,2 km/h (1 Bft) S-SW 194 ° 0 min 0,000 mm 0,0 UV-I 0 W/m² 12,9 °C 14,2 °C 4,8 km/h (1 Bft)
12.06.2018 04:22 14,2 °C 92 % 1005,9 hPa 0,0 mm 0,1 km/h (0 Bft) S-SW 194 ° 0 min 0,000 mm 0,0 UV-I 0 W/m² 12,9 °C 14,2 °C 1,6 km/h (1 Bft)
12.06.2018 04:23 14,2 °C 92 % 1006,0 hPa 0,0 mm 0,0 km/h (0 Bft) S-SW 194 ° 0 min 0,000 mm 0,0 UV-I 0 W/m² 12,9 °C 14,2 °C 0,0 km/h (0 Bft)
12.06.2018 04:24 14,2 °C 92 % 1006,0 hPa 0,0 mm 0,0 km/h (0 Bft) S-SW 194 ° 0 min 0,000 mm 0,0 UV-I 0 W/m² 12,9 °C 14,2 °C 0,0 km/h (0 Bft)
12.06.2018 04:25 14,2 °C 92 % 1006,0 hPa 0,0 mm 1,0 km/h (0 Bft) S-SW 194 ° 0 min 0,000 mm 0,0 UV-I 0 W/m² 12,9 °C 14,2 °C 1,6 km/h (1 Bft)
12.06.2018 04:26 14,2 °C 92 % 1006,0 hPa 0,0 mm 0,7 km/h (0 Bft) S-SW 194 ° 0 min 0,000 mm 0,0 UV-I 0 W/m² 12,9 °C 14,2 °C 1,6 km/h (1 Bft)
12.06.2018 04:27 14,2 °C 92 % 1006,0 hPa 0,0 mm 0,0 km/h (0 Bft) S-SW 194 ° 0 min 0,000 mm 0,0 UV-I 0 W/m² 12,9 °C 14,2 °C 0,0 km/h (0 Bft)
12.06.2018 04:28 14,2 °C 92 % 1006,0 hPa 0,0 mm 0,0 km/h (0 Bft) S-SW 194 ° 0 min 0,000 mm 0,0 UV-I 0 W/m² 12,9 °C 14,2 °C 0,0 km/h (0 Bft)
12.06.2018 04:29 14,2 °C 92 % 1006,0 hPa 0,0 mm 0,0 km/h (0 Bft) S-SW 194 ° 0 min 0,000 mm 0,0 UV-I 0 W/m² 12,9 °C 14,2 °C 0,0 km/h (0 Bft)
12.06.2018 04:30 14,2 °C 92 % 1006,0 hPa 0,0 mm 0,0 km/h (0 Bft) S-SW 194 ° 0 min 0,000 mm 0,0 UV-I 0 W/m² 12,9 °C 14,2 °C 0,0 km/h (0 Bft)
12.06.2018 04:31 14,1 °C 92 % 1005,9 hPa 0,0 mm 0,0 km/h (0 Bft) S-SW 194 ° 0 min 0,000 mm 0,0 UV-I 0 W/m² 12,8 °C 14,1 °C 0,0 km/h (0 Bft)
12.06.2018 04:32 14,2 °C 92 % 1005,9 hPa 0,0 mm 0,0 km/h (0 Bft) S-SW 194 ° 0 min 0,000 mm 0,0 UV-I 0 W/m² 12,9 °C 14,2 °C 0,0 km/h (0 Bft)
12.06.2018 04:33 14,2 °C 93 % 1005,9 hPa 0,0 mm 0,7 km/h (0 Bft) S-SW 201 ° 0 min 0,000 mm 0,0 UV-I 0 W/m² 13,1 °C 14,2 °C 3,2 km/h (1 Bft)
12.06.2018 04:34 14,2 °C 93 % 1006,0 hPa 0,0 mm 0,6 km/h (0 Bft) S-SW 201 ° 0 min 0,000 mm 0,0 UV-I 0 W/m² 13,1 °C 14,2 °C 1,6 km/h (1 Bft)
12.06.2018 04:35 14,2 °C 92 % 1006,0 hPa 0,2 mm 0,0 km/h (0 Bft) S-SW 201 ° 0 min 0,000 mm 0,0 UV-I 0 W/m² 12,9 °C 14,2 °C 0,0 km/h (0 Bft)
12.06.2018 04:36 14,1 °C 92 % 1006,0 hPa 0,0 mm 0,0 km/h (0 Bft) S-SW 201 ° 0 min 0,000 mm 0,0 UV-I 0 W/m² 12,8 °C 14,1 °C 0,0 km/h (0 Bft)
12.06.2018 04:37 14,1 °C 92 % 1006,0 hPa 0,0 mm 0,0 km/h (0 Bft) S-SW 201 ° 0 min 0,000 mm 0,0 UV-I 0 W/m² 12,8 °C 14,1 °C 0,0 km/h (0 Bft)
12.06.2018 04:38 14,1 °C 92 % 1006,0 hPa 0,0 mm 0,0 km/h (0 Bft) S-SW 201 ° 0 min 0,000 mm 0,0 UV-I 0 W/m² 12,8 °C 14,1 °C 0,0 km/h (0 Bft)
12.06.2018 04:39 14,1 °C 92 % 1006,0 hPa 0,0 mm 0,0 km/h (0 Bft) S-SW 201 ° 0 min 0,000 mm 0,0 UV-I 0 W/m² 12,8 °C 14,1 °C 0,0 km/h (0 Bft)
12.06.2018 04:40 14,1 °C 92 % 1006,0 hPa 0,0 mm 0,0 km/h (0 Bft) S-SW 201 ° 0 min 0,000 mm 0,0 UV-I 0 W/m² 12,8 °C 14,1 °C 0,0 km/h (0 Bft)
12.06.2018 04:41 14,1 °C 92 % 1006,0 hPa 0,0 mm 0,0 km/h (0 Bft) S-SW 201 ° 0 min 0,000 mm 0,0 UV-I 0 W/m² 12,8 °C 14,1 °C 0,0 km/h (0 Bft)
12.06.2018 04:42 14,1 °C 92 % 1006,0 hPa 0,0 mm 0,0 km/h (0 Bft) S-SW 201 ° 0 min 0,000 mm 0,0 UV-I 0 W/m² 12,8 °C 14,1 °C 0,0 km/h (0 Bft)
12.06.2018 04:43 14,1 °C 92 % 1006,0 hPa 0,0 mm 0,0 km/h (0 Bft) S-SW 201 ° 0 min 0,000 mm 0,0 UV-I 0 W/m² 12,8 °C 14,1 °C 0,0 km/h (0 Bft)
12.06.2018 04:44 14,1 °C 92 % 1006,0 hPa 0,0 mm 0,0 km/h (0 Bft) S-SW 201 ° 0 min 0,000 mm 0,0 UV-I 0 W/m² 12,8 °C 14,1 °C 0,0 km/h (0 Bft)
12.06.2018 04:45 14,1 °C 93 % 1005,9 hPa 0,0 mm 0,0 km/h (0 Bft) S-SW 201 ° 0 min 0,000 mm 0,0 UV-I 0 W/m² 13,0 °C 14,1 °C 0,0 km/h (0 Bft)
12.06.2018 04:46 14,1 °C 93 % 1005,9 hPa 0,0 mm 0,1 km/h (0 Bft) S-SW 201 ° 0 min 0,000 mm 0,0 UV-I 0 W/m² 13,0 °C 14,1 °C 1,6 km/h (1 Bft)
12.06.2018 04:47 14,1 °C 93 % 1005,9 hPa 0,0 mm 1,9 km/h (1 Bft) S-SW 201 ° 0 min 0,000 mm 0,0 UV-I 0 W/m² 13,0 °C 14,1 °C 3,2 km/h (1 Bft)
12.06.2018 04:48 14,1 °C 93 % 1005,9 hPa 0,0 mm 1,2 km/h (1 Bft) S-SW 201 ° 0 min 0,000 mm 0,0 UV-I 0 W/m² 13,0 °C 14,1 °C 1,6 km/h (1 Bft)
12.06.2018 04:49 14,1 °C 93 % 1005,9 hPa 0,0 mm 0,1 km/h (0 Bft) S-SW 201 ° 0 min 0,000 mm 0,0 UV-I 0 W/m² 13,0 °C 14,1 °C 1,6 km/h (1 Bft)
12.06.2018 04:50 14,1 °C 93 % 1005,9 hPa 0,0 mm 0,0 km/h (0 Bft) S-SW 201 ° 0 min 0,000 mm 0,0 UV-I 0 W/m² 13,0 °C 14,1 °C 0,0 km/h (0 Bft)
12.06.2018 04:51 14,1 °C 93 % 1005,8 hPa 0,0 mm 0,0 km/h (0 Bft) S-SW 201 ° 0 min 0,000 mm 0,0 UV-I 0 W/m² 13,0 °C 14,1 °C 0,0 km/h (0 Bft)
12.06.2018 04:52 14,1 °C 93 % 1005,8 hPa 0,0 mm 0,0 km/h (0 Bft) S-SW 201 ° 0 min 0,000 mm 0,0 UV-I 0 W/m² 13,0 °C 14,1 °C 0,0 km/h (0 Bft)
12.06.2018 04:53 14,1 °C 93 % 1005,7 hPa 0,0 mm 0,1 km/h (0 Bft) S-SW 201 ° 0 min 0,000 mm 0,0 UV-I 0 W/m² 13,0 °C 14,1 °C 1,6 km/h (1 Bft)
12.06.2018 04:54 14,1 °C 93 % 1005,7 hPa 0,0 mm 0,2 km/h (0 Bft) S-SW 201 ° 0 min 0,000 mm 0,0 UV-I 0 W/m² 13,0 °C 14,1 °C 1,6 km/h (1 Bft)
12.06.2018 04:55 14,1 °C 93 % 1005,7 hPa 0,0 mm 0,1 km/h (0 Bft) S-SW 201 ° 0 min 0,000 mm 0,0 UV-I 0 W/m² 13,0 °C 14,1 °C 1,6 km/h (1 Bft)
12.06.2018 04:56 14,1 °C 93 % 1005,7 hPa 0,0 mm 0,0 km/h (0 Bft) S-SW 201 ° 0 min 0,000 mm 0,0 UV-I 0 W/m² 13,0 °C 14,1 °C 0,0 km/h (0 Bft)
12.06.2018 04:57 14,1 °C 93 % 1005,8 hPa 0,0 mm 0,0 km/h (0 Bft) S-SW 201 ° 0 min 0,000 mm 0,0 UV-I 0 W/m² 13,0 °C 14,1 °C 0,0 km/h (0 Bft)
12.06.2018 04:58 14,0 °C 93 % 1005,8 hPa 0,0 mm 0,2 km/h (0 Bft) S-SW 201 ° 0 min 0,000 mm 0,0 UV-I 0 W/m² 12,9 °C 14,0 °C 3,2 km/h (1 Bft)
12.06.2018 04:59 14,0 °C 93 % 1005,9 hPa 0,0 mm 1,4 km/h (1 Bft) S-SW 201 ° 0 min 0,000 mm 0,0 UV-I 0 W/m² 12,9 °C 14,0 °C 3,2 km/h (1 Bft)
12.06.2018 05:00 14,0 °C 93 % 1005,9 hPa 0,0 mm 0,0 km/h (0 Bft) S-SW 201 ° 0 min 0,000 mm 0,0 UV-I 0 W/m² 12,9 °C 14,0 °C 0,0 km/h (0 Bft)
12.06.2018 05:01 14,0 °C 93 % 1005,9 hPa 0,0 mm 0,0 km/h (0 Bft) S-SW 201 ° 0 min 0,000 mm 0,0 UV-I 0 W/m² 12,9 °C 14,0 °C 0,0 km/h (0 Bft)
12.06.2018 05:02 14,0 °C 93 % 1005,8 hPa 0,0 mm 0,0 km/h (0 Bft) S-SW 201 ° 0 min 0,000 mm 0,0 UV-I 0 W/m² 12,9 °C 14,0 °C 0,0 km/h (0 Bft)
12.06.2018 05:03 14,1 °C 93 % 1005,7 hPa 0,0 mm 0,0 km/h (0 Bft) S-SW 201 ° 0 min 0,000 mm 0,0 UV-I 0 W/m² 13,0 °C 14,1 °C 0,0 km/h (0 Bft)
12.06.2018 05:04 14,1 °C 93 % 1005,7 hPa 0,0 mm 0,0 km/h (0 Bft) S-SW 201 ° 0 min 0,000 mm 0,0 UV-I 0 W/m² 13,0 °C 14,1 °C 0,0 km/h (0 Bft)
12.06.2018 05:05 14,1 °C 93 % 1005,7 hPa 0,0 mm 0,0 km/h (0 Bft) S-SW 201 ° 0 min 0,000 mm 0,0 UV-I 0 W/m² 13,0 °C 14,1 °C 0,0 km/h (0 Bft)
12.06.2018 05:06 14,1 °C 93 % 1005,7 hPa 0,0 mm 0,0 km/h (0 Bft) S-SW 201 ° 0 min 0,000 mm 0,0 UV-I 0 W/m² 13,0 °C 14,1 °C 0,0 km/h (0 Bft)
12.06.2018 05:07 14,1 °C 93 % 1005,6 hPa 0,0 mm 0,0 km/h (0 Bft) S-SW 201 ° 0 min 0,000 mm 0,0 UV-I 0 W/m² 13,0 °C 14,1 °C 0,0 km/h (0 Bft)
12.06.2018 05:08 14,1 °C 93 % 1005,6 hPa 0,0 mm 0,0 km/h (0 Bft) S-SW 201 ° 0 min 0,000 mm 0,0 UV-I 0 W/m² 13,0 °C 14,1 °C 0,0 km/h (0 Bft)
12.06.2018 05:09 14,0 °C 93 % 1005,7 hPa 0,0 mm 0,0 km/h (0 Bft) S-SW 201 ° 0 min 0,000 mm 0,0 UV-I 0 W/m² 12,9 °C 14,0 °C 0,0 km/h (0 Bft)
12.06.2018 05:10 14,1 °C 93 % 1005,7 hPa 0,0 mm 0,0 km/h (0 Bft) S-SW 201 ° 0 min 0,000 mm 0,0 UV-I 0 W/m² 13,0 °C 14,1 °C 0,0 km/h (0 Bft)
12.06.2018 05:11 14,1 °C 93 % 1005,8 hPa 0,0 mm 1,5 km/h (1 Bft) S-SW 203 ° 0 min 0,000 mm 0,0 UV-I 0 W/m² 13,0 °C 14,1 °C 4,8 km/h (1 Bft)
12.06.2018 05:12 14,1 °C 93 % 1005,8 hPa 0,0 mm 1,5 km/h (1 Bft) S-SW 203 ° 0 min 0,000 mm 0,0 UV-I 0 W/m² 13,0 °C 14,1 °C 3,2 km/h (1 Bft)
12.06.2018 05:13 14,1 °C 93 % 1005,8 hPa 0,0 mm 1,7 km/h (1 Bft) S-SW 203 ° 0 min 0,000 mm 0,0 UV-I 0 W/m² 13,0 °C 14,1 °C 4,8 km/h (1 Bft)
12.06.2018 05:14 14,1 °C 93 % 1005,8 hPa 0,0 mm 1,9 km/h (1 Bft) S-SW 203 ° 0 min 0,000 mm 0,0 UV-I 0 W/m² 13,0 °C 14,1 °C 4,8 km/h (1 Bft)
12.06.2018 05:15 14,2 °C 93 % 1005,8 hPa 0,0 mm 0,3 km/h (0 Bft) S-SW 203 ° 0 min 0,000 mm 0,0 UV-I 0 W/m² 13,1 °C 14,2 °C 1,6 km/h (1 Bft)
12.06.2018 05:16 14,2 °C 93 % 1005,8 hPa 0,0 mm 0,9 km/h (0 Bft) S-SW 203 ° 0 min 0,000 mm 0,0 UV-I 0 W/m² 13,1 °C 14,2 °C 4,8 km/h (1 Bft)
12.06.2018 05:17 14,2 °C 93 % 1005,8 hPa 0,0 mm 4,6 km/h (1 Bft) S-SW 198 ° 0 min 0,000 mm 0,0 UV-I 0 W/m² 13,1 °C 14,2 °C 6,4 km/h (2 Bft)
12.06.2018 05:18 14,2 °C 93 % 1005,8 hPa 0,0 mm 7,5 km/h (2 Bft) S-SW 196 ° 0 min 0,000 mm 0,0 UV-I 0 W/m² 13,1 °C 14,2 °C 9,7 km/h (2 Bft)
12.06.2018 05:19 14,2 °C 93 % 1005,8 hPa 0,0 mm 5,0 km/h (1 Bft) S-SW 196 ° 0 min 0,000 mm 0,0 UV-I 0 W/m² 13,1 °C 14,2 °C 8,0 km/h (2 Bft)
12.06.2018 05:20 14,2 °C 93 % 1005,8 hPa 0,0 mm 3,2 km/h (1 Bft) S-SW 196 ° 0 min 0,000 mm 0,0 UV-I 0 W/m² 13,1 °C 14,2 °C 4,8 km/h (1 Bft)
12.06.2018 05:21 14,3 °C 93 % 1005,8 hPa 0,0 mm 1,5 km/h (1 Bft) S-SW 196 ° 0 min 0,000 mm 0,0 UV-I 0 W/m² 13,2 °C 14,3 °C 3,2 km/h (1 Bft)
12.06.2018 05:22 14,3 °C 93 % 1005,8 hPa 0,0 mm 1,8 km/h (1 Bft) S-SW 196 ° 0 min 0,000 mm 0,0 UV-I 0 W/m² 13,2 °C 14,3 °C 3,2 km/h (1 Bft)
12.06.2018 05:23 14,3 °C 93 % 1005,7 hPa 0,0 mm 2,5 km/h (1 Bft) S-SW 196 ° 0 min 0,000 mm 0,0 UV-I 0 W/m² 13,2 °C 14,3 °C 3,2 km/h (1 Bft)
12.06.2018 05:24 14,2 °C 93 % 1005,8 hPa 0,0 mm 1,6 km/h (1 Bft) S-SW 196 ° 0 min 0,000 mm 0,0 UV-I 0 W/m² 13,1 °C 14,2 °C 3,2 km/h (1 Bft)
12.06.2018 05:25 14,3 °C 93 % 1005,8 hPa 0,0 mm 2,0 km/h (1 Bft) S-SW 196 ° 0 min 0,000 mm 0,0 UV-I 0 W/m² 13,2 °C 14,3 °C 3,2 km/h (1 Bft)
12.06.2018 05:26 14,2 °C 93 % 1005,8 hPa 0,0 mm 2,3 km/h (1 Bft) S-SW 196 ° 0 min 0,000 mm 0,0 UV-I 0 W/m² 13,1 °C 14,2 °C 3,2 km/h (1 Bft)
12.06.2018 05:27 14,2 °C 93 % 1005,8 hPa 0,0 mm 1,8 km/h (1 Bft) S-SW 196 ° 0 min 0,000 mm 0,0 UV-I 0 W/m² 13,1 °C 14,2 °C 3,2 km/h (1 Bft)
12.06.2018 05:28 14,2 °C 93 % 1005,8 hPa 0,0 mm 3,0 km/h (1 Bft) S-SW 196 ° 0 min 0,000 mm 0,0 UV-I 0 W/m² 13,1 °C 14,2 °C 4,8 km/h (1 Bft)
12.06.2018 05:29 14,3 °C 93 % 1005,8 hPa 0,0 mm 3,0 km/h (1 Bft) S-SW 196 ° 0 min 0,000 mm 0,0 UV-I 0 W/m² 13,2 °C 14,3 °C 4,8 km/h (1 Bft)
12.06.2018 05:30 14,3 °C 93 % 1005,8 hPa 0,0 mm 3,2 km/h (1 Bft) S-SW 196 ° 0 min 0,000 mm 0,0 UV-I 5 W/m² 13,2 °C 14,3 °C 4,8 km/h (1 Bft)
12.06.2018 05:31 14,3 °C 93 % 1005,8 hPa 0,0 mm 3,6 km/h (1 Bft) S-SW 196 ° 0 min 0,000 mm 0,0 UV-I 5 W/m² 13,2 °C 14,3 °C 4,8 km/h (1 Bft)
12.06.2018 05:32 14,3 °C 93 % 1005,7 hPa 0,0 mm 3,5 km/h (1 Bft) S-SW 196 ° 0 min 0,000 mm 0,0 UV-I 5 W/m² 13,2 °C 14,3 °C 6,4 km/h (2 Bft)
12.06.2018 05:33 14,3 °C 93 % 1005,8 hPa 0,0 mm 3,6 km/h (1 Bft) S-SW 196 ° 0 min 0,000 mm 0,0 UV-I 5 W/m² 13,2 °C 14,3 °C 4,8 km/h (1 Bft)
12.06.2018 05:34 14,3 °C 93 % 1005,8 hPa 0,0 mm 2,5 km/h (1 Bft) S-SW 196 ° 0 min 0,000 mm 0,0 UV-I 5 W/m² 13,2 °C 14,3 °C 3,2 km/h (1 Bft)
12.06.2018 05:35 14,3 °C 93 % 1005,8 hPa 0,0 mm 2,1 km/h (1 Bft) S-SW 196 ° 0 min 0,000 mm 0,0 UV-I 5 W/m² 13,2 °C 14,3 °C 4,8 km/h (1 Bft)
12.06.2018 05:36 14,3 °C 93 % 1005,8 hPa 0,0 mm 2,3 km/h (1 Bft) S-SW 196 ° 0 min 0,000 mm 0,0 UV-I 5 W/m² 13,2 °C 14,3 °C 3,2 km/h (1 Bft)
12.06.2018 05:37 14,3 °C 93 % 1005,7 hPa 0,0 mm 2,5 km/h (1 Bft) S-SW 196 ° 0 min 0,000 mm 0,0 UV-I 5 W/m² 13,2 °C 14,3 °C 4,8 km/h (1 Bft)
12.06.2018 05:38 14,3 °C 93 % 1005,8 hPa 0,0 mm 2,3 km/h (1 Bft) S-SW 196 ° 0 min 0,000 mm 0,0 UV-I 5 W/m² 13,2 °C 14,3 °C 3,2 km/h (1 Bft)
12.06.2018 05:39 14,3 °C 93 % 1005,8 hPa 0,0 mm 2,5 km/h (1 Bft) S-SW 196 ° 0 min 0,000 mm 0,0 UV-I 7 W/m² 13,2 °C 14,3 °C 3,2 km/h (1 Bft)
12.06.2018 05:40 14,3 °C 93 % 1005,8 hPa 0,0 mm 0,5 km/h (0 Bft) S-SW 196 ° 0 min 0,000 mm 0,0 UV-I 7 W/m² 13,2 °C 14,3 °C 1,6 km/h (1 Bft)
12.06.2018 05:41 14,3 °C 93 % 1005,8 hPa 0,0 mm 0,2 km/h (0 Bft) S-SW 196 ° 0 min 0,000 mm 0,0 UV-I 7 W/m² 13,2 °C 14,3 °C 1,6 km/h (1 Bft)
12.06.2018 05:42 14,3 °C 93 % 1005,7 hPa 0,0 mm 0,0 km/h (0 Bft) S-SW 196 ° 0 min 0,000 mm 0,0 UV-I 7 W/m² 13,2 °C 14,3 °C 0,0 km/h (0 Bft)
12.06.2018 05:43 14,3 °C 93 % 1005,7 hPa 0,0 mm 0,3 km/h (0 Bft) S-SW 196 ° 0 min 0,000 mm 0,0 UV-I 7 W/m² 13,2 °C 14,3 °C 1,6 km/h (1 Bft)
12.06.2018 05:44 14,3 °C 93 % 1005,8 hPa 0,0 mm 1,5 km/h (1 Bft) S-SW 196 ° 0 min 0,000 mm 0,0 UV-I 9 W/m² 13,2 °C 14,3 °C 3,2 km/h (1 Bft)
12.06.2018 05:45 14,4 °C 93 % 1005,8 hPa 0,0 mm 0,6 km/h (0 Bft) S-SW 196 ° 0 min 0,000 mm 0,0 UV-I 9 W/m² 13,3 °C 14,4 °C 1,6 km/h (1 Bft)
12.06.2018 05:46 14,4 °C 92 % 1005,7 hPa 0,0 mm 2,0 km/h (1 Bft) S-SW 196 ° 0 min 0,000 mm 0,0 UV-I 9 W/m² 13,1 °C 14,4 °C 3,2 km/h (1 Bft)
12.06.2018 05:47 14,5 °C 92 % 1005,7 hPa 0,0 mm 1,3 km/h (1 Bft) S-SW 196 ° 0 min 0,000 mm 0,0 UV-I 9 W/m² 13,2 °C 14,5 °C 4,8 km/h (1 Bft)
12.06.2018 05:48 14,5 °C 92 % 1005,7 hPa 0,0 mm 2,2 km/h (1 Bft) S-SW 196 ° 0 min 0,000 mm 0,0 UV-I 11 W/m² 13,2 °C 14,5 °C 4,8 km/h (1 Bft)
12.06.2018 05:49 14,6 °C 92 % 1005,7 hPa 0,0 mm 3,8 km/h (1 Bft) S-SW 202 ° 0 min 0,000 mm 0,0 UV-I 12 W/m² 13,3 °C 14,6 °C 4,8 km/h (1 Bft)
12.06.2018 05:50 14,6 °C 92 % 1005,7 hPa 0,0 mm 2,3 km/h (1 Bft) S-SW 202 ° 0 min 0,000 mm 0,0 UV-I 12 W/m² 13,3 °C 14,6 °C 4,8 km/h (1 Bft)
12.06.2018 05:51 14,6 °C 92 % 1005,7 hPa 0,0 mm 6,9 km/h (2 Bft) W-SW 238 ° 0 min 0,000 mm 0,0 UV-I 14 W/m² 13,3 °C 14,6 °C 11,3 km/h (2 Bft)
12.06.2018 05:52 14,7 °C 92 % 1005,8 hPa 0,0 mm 6,6 km/h (2 Bft) S-SW 202 ° 0 min 0,000 mm 0,0 UV-I 14 W/m² 13,4 °C 14,7 °C 9,7 km/h (2 Bft)
12.06.2018 05:53 14,7 °C 92 % 1005,8 hPa 0,0 mm 3,3 km/h (1 Bft) S-SW 202 ° 0 min 0,000 mm 0,0 UV-I 14 W/m² 13,4 °C 14,7 °C 6,4 km/h (2 Bft)
12.06.2018 05:54 14,7 °C 91 % 1005,8 hPa 0,0 mm 4,9 km/h (1 Bft) S 188 ° 0 min 0,000 mm 0,0 UV-I 16 W/m² 13,2 °C 14,7 °C 8,0 km/h (2 Bft)
12.06.2018 05:55 14,8 °C 91 % 1005,8 hPa 0,0 mm 3,4 km/h (1 Bft) S 188 ° 0 min 0,000 mm 0,0 UV-I 16 W/m² 13,3 °C 14,8 °C 6,4 km/h (2 Bft)
12.06.2018 05:56 14,8 °C 91 % 1005,8 hPa 0,0 mm 3,5 km/h (1 Bft) S-SW 199 ° 0 min 0,000 mm 0,0 UV-I 16 W/m² 13,3 °C 14,8 °C 4,8 km/h (1 Bft)
12.06.2018 05:57 14,8 °C 91 % 1005,9 hPa 0,0 mm 3,8 km/h (1 Bft) S-SW 200 ° 0 min 0,000 mm 0,0 UV-I 16 W/m² 13,3 °C 14,8 °C 4,8 km/h (1 Bft)
12.06.2018 05:58 14,8 °C 91 % 1005,9 hPa 0,0 mm 1,9 km/h (1 Bft) S 191 ° 0 min 0,000 mm 0,0 UV-I 16 W/m² 13,3 °C 14,8 °C 4,8 km/h (1 Bft)
12.06.2018 05:59 14,9 °C 91 % 1005,8 hPa 0,0 mm 1,7 km/h (1 Bft) S 191 ° 0 min 0,000 mm 0,0 UV-I 16 W/m² 13,4 °C 14,9 °C 6,4 km/h (2 Bft)
12.06.2018 06:00 14,8 °C 91 % 1005,9 hPa 0,0 mm 2,3 km/h (1 Bft) S 191 ° 0 min 0,000 mm 0,0 UV-I 16 W/m² 13,3 °C 14,8 °C 4,8 km/h (1 Bft)
12.06.2018 06:01 14,9 °C 91 % 1005,8 hPa 0,0 mm 2,2 km/h (1 Bft) S 187 ° 0 min 0,000 mm 0,0 UV-I 16 W/m² 13,4 °C 14,9 °C 4,8 km/h (1 Bft)
12.06.2018 06:02 14,8 °C 91 % 1005,8 hPa 0,0 mm 1,6 km/h (1 Bft) S 187 ° 0 min 0,000 mm 0,0 UV-I 16 W/m² 13,3 °C 14,8 °C 3,2 km/h (1 Bft)
12.06.2018 06:03 14,8 °C 91 % 1005,8 hPa 0,0 mm 3,1 km/h (1 Bft) S-SW 197 ° 0 min 0,000 mm 0,0 UV-I 16 W/m² 13,3 °C 14,8 °C 4,8 km/h (1 Bft)
12.06.2018 06:04 14,8 °C 91 % 1005,8 hPa 0,0 mm 2,7 km/h (1 Bft) S-SW 196 ° 0 min 0,000 mm 0,0 UV-I 16 W/m² 13,3 °C 14,8 °C 4,8 km/h (1 Bft)
12.06.2018 06:05 14,8 °C 91 % 1005,8 hPa 0,0 mm 2,2 km/h (1 Bft) S-SW 196 ° 0 min 0,000 mm 0,0 UV-I 18 W/m² 13,3 °C 14,8 °C 3,2 km/h (1 Bft)
12.06.2018 06:06 14,8 °C 91 % 1005,7 hPa 0,0 mm 0,1 km/h (0 Bft) S-SW 196 ° 0 min 0,000 mm 0,0 UV-I 18 W/m² 13,3 °C 14,8 °C 1,6 km/h (1 Bft)
12.06.2018 06:07 14,7 °C 91 % 1005,7 hPa 0,0 mm 0,0 km/h (0 Bft) S-SW 196 ° 0 min 0,000 mm 0,0 UV-I 18 W/m² 13,2 °C 14,7 °C 0,0 km/h (0 Bft)
12.06.2018 06:08 14,7 °C 91 % 1005,8 hPa 0,0 mm 0,4 km/h (0 Bft) S-SW 196 ° 0 min 0,000 mm 0,0 UV-I 18 W/m² 13,2 °C 14,7 °C 1,6 km/h (1 Bft)
12.06.2018 06:09 14,7 °C 91 % 1005,7 hPa 0,0 mm 0,0 km/h (0 Bft) S-SW 196 ° 0 min 0,000 mm 0,0 UV-I 18 W/m² 13,2 °C 14,7 °C 0,0 km/h (0 Bft)
12.06.2018 06:10 14,7 °C 91 % 1005,7 hPa 0,0 mm 0,1 km/h (0 Bft) S-SW 196 ° 0 min 0,000 mm 0,0 UV-I 19 W/m² 13,2 °C 14,7 °C 1,6 km/h (1 Bft)
12.06.2018 06:11 14,6 °C 91 % 1005,8 hPa 0,0 mm 0,1 km/h (0 Bft) S-SW 196 ° 0 min 0,000 mm 0,0 UV-I 19 W/m² 13,1 °C 14,6 °C 1,6 km/h (1 Bft)
12.06.2018 06:12 14,6 °C 91 % 1005,8 hPa 0,0 mm 1,3 km/h (1 Bft) S-SW 196 ° 0 min 0,000 mm 0,0 UV-I 23 W/m² 13,1 °C 14,6 °C 1,6 km/h (1 Bft)
12.06.2018 06:13 14,4 °C 91 % 1005,8 hPa 0,0 mm 0,3 km/h (0 Bft) S-SW 196 ° 0 min 0,000 mm 0,0 UV-I 26 W/m² 12,9 °C 14,4 °C 1,6 km/h (1 Bft)
12.06.2018 06:14 14,4 °C 91 % 1005,8 hPa 0,0 mm 0,9 km/h (0 Bft) S-SW 196 ° 0 min 0,000 mm 0,0 UV-I 28 W/m² 12,9 °C 14,4 °C 1,6 km/h (1 Bft)
12.06.2018 06:15 14,3 °C 91 % 1005,8 hPa 0,0 mm 0,2 km/h (0 Bft) S-SW 196 ° 0 min 0,000 mm 0,0 UV-I 30 W/m² 12,8 °C 14,3 °C 1,6 km/h (1 Bft)
12.06.2018 06:16 14,3 °C 91 % 1005,7 hPa 0,0 mm 0,0 km/h (0 Bft) S-SW 196 ° 0 min 0,000 mm 0,0 UV-I 33 W/m² 12,8 °C 14,3 °C 0,0 km/h (0 Bft)
12.06.2018 06:17 14,3 °C 91 % 1005,7 hPa 0,0 mm 0,0 km/h (0 Bft) S-SW 196 ° 0 min 0,000 mm 0,0 UV-I 40 W/m² 12,8 °C 14,3 °C 0,0 km/h (0 Bft)
12.06.2018 06:18 14,3 °C 91 % 1005,8 hPa 0,0 mm 0,0 km/h (0 Bft) S-SW 196 ° 0 min 0,000 mm 0,0 UV-I 44 W/m² 12,8 °C 14,3 °C 0,0 km/h (0 Bft)
12.06.2018 06:19 14,3 °C 91 % 1005,7 hPa 0,0 mm 0,0 km/h (0 Bft) S-SW 196 ° 0 min 0,000 mm 0,0 UV-I 49 W/m² 12,8 °C 14,3 °C 0,0 km/h (0 Bft)
12.06.2018 06:20 14,3 °C 91 % 1005,7 hPa 0,0 mm 0,0 km/h (0 Bft) S-SW 196 ° 0 min 0,000 mm 0,0 UV-I 54 W/m² 12,8 °C 14,3 °C 0,0 km/h (0 Bft)
12.06.2018 06:21 14,3 °C 92 % 1005,8 hPa 0,0 mm 0,0 km/h (0 Bft) S-SW 196 ° 0 min 0,000 mm 0,0 UV-I 58 W/m² 13,0 °C 14,3 °C 0,0 km/h (0 Bft)
12.06.2018 06:22 14,3 °C 92 % 1005,7 hPa 0,0 mm 0,0 km/h (0 Bft) S-SW 196 ° 0 min 0,000 mm 0,0 UV-I 62 W/m² 13,0 °C 14,3 °C 0,0 km/h (0 Bft)
12.06.2018 06:23 14,3 °C 92 % 1005,7 hPa 0,0 mm 0,0 km/h (0 Bft) S-SW 196 ° 0 min 0,000 mm 0,0 UV-I 69 W/m² 13,0 °C 14,3 °C 0,0 km/h (0 Bft)
12.06.2018 06:24 14,3 °C 92 % 1005,7 hPa 0,0 mm 0,0 km/h (0 Bft) S-SW 196 ° 0 min 0,000 mm 0,0 UV-I 70 W/m² 13,0 °C 14,3 °C 0,0 km/h (0 Bft)
12.06.2018 06:25 14,4 °C 92 % 1005,8 hPa 0,0 mm 0,0 km/h (0 Bft) S-SW 196 ° 0 min 0,000 mm 0,0 UV-I 74 W/m² 13,1 °C 14,4 °C 0,0 km/h (0 Bft)
12.06.2018 06:26 14,4 °C 92 % 1005,8 hPa 0,0 mm 0,0 km/h (0 Bft) S-SW 196 ° 0 min 0,000 mm 0,0 UV-I 76 W/m² 13,1 °C 14,4 °C 0,0 km/h (0 Bft)
12.06.2018 06:27 14,4 °C 92 % 1005,8 hPa 0,0 mm 0,0 km/h (0 Bft) S-SW 196 ° 0 min 0,000 mm 0,0 UV-I 77 W/m² 13,1 °C 14,4 °C 0,0 km/h (0 Bft)
12.06.2018 06:28 14,5 °C 92 % 1005,9 hPa 0,0 mm 0,0 km/h (0 Bft) S-SW 196 ° 0 min 0,000 mm 0,0 UV-I 79 W/m² 13,2 °C 14,5 °C 0,0 km/h (0 Bft)
12.06.2018 06:29 14,6 °C 92 % 1005,9 hPa 0,0 mm 0,0 km/h (0 Bft) S-SW 196 ° 0 min 0,000 mm 0,0 UV-I 79 W/m² 13,3 °C 14,6 °C 0,0 km/h (0 Bft)
12.06.2018 06:30 14,6 °C 92 % 1005,9 hPa 0,0 mm 0,0 km/h (0 Bft) S-SW 196 ° 0 min 0,000 mm 0,0 UV-I 79 W/m² 13,3 °C 14,6 °C 0,0 km/h (0 Bft)
12.06.2018 06:31 14,6 °C 92 % 1005,9 hPa 0,0 mm 0,0 km/h (0 Bft) S-SW 196 ° 0 min 0,000 mm 0,0 UV-I 91 W/m² 13,3 °C 14,6 °C 0,0 km/h (0 Bft)
12.06.2018 06:32 14,7 °C 92 % 1005,8 hPa 0,0 mm 0,9 km/h (0 Bft) S-SW 196 ° 0 min 0,000 mm 0,0 UV-I 120 W/m² 13,4 °C 14,7 °C 3,2 km/h (1 Bft)
12.06.2018 06:33 14,8 °C 92 % 1005,8 hPa 0,0 mm 1,4 km/h (1 Bft) S-SW 196 ° 0 min 0,000 mm 0,0 UV-I 121 W/m² 13,5 °C 14,8 °C 3,2 km/h (1 Bft)
12.06.2018 06:34 14,9 °C 92 % 1005,8 hPa 0,0 mm 1,5 km/h (1 Bft) S-SW 196 ° 0 min 0,000 mm 0,0 UV-I 113 W/m² 13,6 °C 14,9 °C 4,8 km/h (1 Bft)
12.06.2018 06:35 15,1 °C 92 % 1005,8 hPa 0,0 mm 0,8 km/h (0 Bft) S-SW 196 ° 0 min 0,000 mm 0,0 UV-I 120 W/m² 13,8 °C 15,1 °C 3,2 km/h (1 Bft)
12.06.2018 06:36 15,2 °C 92 % 1005,8 hPa 0,0 mm 1,3 km/h (1 Bft) S-SW 196 ° 0 min 0,000 mm 0,0 UV-I 127 W/m² 13,9 °C 15,2 °C 3,2 km/h (1 Bft)
12.06.2018 06:37 15,3 °C 91 % 1005,8 hPa 0,0 mm 1,8 km/h (1 Bft) S-SW 196 ° 0 min 0,000 mm 0,0 UV-I 121 W/m² 13,8 °C 15,3 °C 3,2 km/h (1 Bft)
12.06.2018 06:38 15,4 °C 91 % 1005,8 hPa 0,0 mm 1,9 km/h (1 Bft) S-SW 196 ° 0 min 0,000 mm 0,0 UV-I 125 W/m² 13,9 °C 15,4 °C 3,2 km/h (1 Bft)
12.06.2018 06:39 15,6 °C 91 % 1005,8 hPa 0,0 mm 1,8 km/h (1 Bft) S-SW 196 ° 0 min 0,000 mm 0,0 UV-I 81 W/m² 14,1 °C 15,6 °C 3,2 km/h (1 Bft)
12.06.2018 06:40 15,6 °C 91 % 1005,7 hPa 0,0 mm 0,0 km/h (0 Bft) S-SW 196 ° 0 min 0,000 mm 0,0 UV-I 100 W/m² 14,1 °C 15,6 °C 0,0 km/h (0 Bft)
12.06.2018 06:41 15,6 °C 91 % 1005,7 hPa 0,0 mm 0,0 km/h (0 Bft) S-SW 196 ° 0 min 0,000 mm 0,5 UV-I 135 W/m² 14,1 °C 15,6 °C 0,0 km/h (0 Bft)
12.06.2018 06:42 15,6 °C 91 % 1005,8 hPa 0,0 mm 0,0 km/h (0 Bft) S-SW 196 ° 0 min 0,000 mm 0,5 UV-I 137 W/m² 14,1 °C 15,6 °C 0,0 km/h (0 Bft)
12.06.2018 06:43 15,5 °C 91 % 1005,7 hPa 0,0 mm 0,0 km/h (0 Bft) S-SW 196 ° 0 min 0,000 mm 0,5 UV-I 135 W/m² 14,0 °C 15,5 °C 0,0 km/h (0 Bft)
12.06.2018 06:44 15,5 °C 91 % 1005,8 hPa 0,0 mm 0,0 km/h (0 Bft) S-SW 196 ° 0 min 0,000 mm 0,5 UV-I 134 W/m² 14,0 °C 15,5 °C 0,0 km/h (0 Bft)
12.06.2018 06:45 15,5 °C 91 % 1005,8 hPa 0,0 mm 0,0 km/h (0 Bft) S-SW 196 ° 0 min 0,000 mm 0,5 UV-I 132 W/m² 14,0 °C 15,5 °C 0,0 km/h (0 Bft)
12.06.2018 06:46 15,6 °C 91 % 1005,8 hPa 0,0 mm 0,0 km/h (0 Bft) S-SW 196 ° 0 min 0,000 mm 0,5 UV-I 128 W/m² 14,1 °C 15,6 °C 0,0 km/h (0 Bft)
12.06.2018 06:47 15,6 °C 91 % 1005,8 hPa 0,0 mm 0,2 km/h (0 Bft) S-SW 196 ° 0 min 0,000 mm 0,5 UV-I 127 W/m² 14,1 °C 15,6 °C 1,6 km/h (1 Bft)
12.06.2018 06:48 15,6 °C 91 % 1005,8 hPa 0,0 mm 0,0 km/h (0 Bft) S-SW 196 ° 0 min 0,000 mm 0,5 UV-I 116 W/m² 14,1 °C 15,6 °C 0,0 km/h (0 Bft)
12.06.2018 06:49 15,6 °C 91 % 1005,8 hPa 0,0 mm 1,3 km/h (1 Bft) S-SW 196 ° 0 min 0,000 mm 0,5 UV-I 130 W/m² 14,1 °C 15,6 °C 3,2 km/h (1 Bft)
12.06.2018 06:50 15,7 °C 91 % 1005,8 hPa 0,0 mm 2,7 km/h (1 Bft) NO 39 ° 0 min 0,000 mm 0,6 UV-I 130 W/m² 14,2 °C 15,7 °C 4,8 km/h (1 Bft)
12.06.2018 06:51 15,7 °C 91 % 1005,8 hPa 0,0 mm 0,8 km/h (0 Bft) NO 39 ° 0 min 0,000 mm 0,6 UV-I 134 W/m² 14,2 °C 15,7 °C 1,6 km/h (1 Bft)
12.06.2018 06:52 15,7 °C 91 % 1005,8 hPa 0,0 mm 3,6 km/h (1 Bft) NO 40 ° 0 min 0,000 mm 0,6 UV-I 137 W/m² 14,2 °C 15,7 °C 6,4 km/h (2 Bft)
12.06.2018 06:53 15,6 °C 91 % 1005,9 hPa 0,0 mm 1,7 km/h (1 Bft) NO 40 ° 0 min 0,000 mm 0,6 UV-I 139 W/m² 14,1 °C 15,6 °C 4,8 km/h (1 Bft)
12.06.2018 06:54 15,7 °C 91 % 1005,9 hPa 0,0 mm 0,1 km/h (0 Bft) NO 40 ° 0 min 0,000 mm 0,6 UV-I 141 W/m² 14,2 °C 15,7 °C 1,6 km/h (1 Bft)
12.06.2018 06:55 15,7 °C 91 % 1005,9 hPa 0,0 mm 0,2 km/h (0 Bft) NO 40 ° 0 min 0,000 mm 0,6 UV-I 142 W/m² 14,2 °C 15,7 °C 1,6 km/h (1 Bft)
12.06.2018 06:56 15,8 °C 90 % 1005,9 hPa 0,0 mm 0,4 km/h (0 Bft) NO 40 ° 0 min 0,000 mm 0,6 UV-I 144 W/m² 14,2 °C 15,8 °C 1,6 km/h (1 Bft)
12.06.2018 06:57 15,8 °C 90 % 1005,9 hPa 0,0 mm 0,3 km/h (0 Bft) NO 40 ° 0 min 0,000 mm 0,7 UV-I 148 W/m² 14,2 °C 15,8 °C 1,6 km/h (1 Bft)
12.06.2018 06:58 15,8 °C 90 % 1005,9 hPa 0,0 mm 1,2 km/h (1 Bft) NO 40 ° 0 min 0,000 mm 0,7 UV-I 151 W/m² 14,2 °C 15,8 °C 1,6 km/h (1 Bft)
12.06.2018 06:59 15,9 °C 90 % 1005,9 hPa 0,0 mm 1,1 km/h (1 Bft) NO 40 ° 0 min 0,000 mm 0,7 UV-I 153 W/m² 14,3 °C 15,9 °C 1,6 km/h (1 Bft)
12.06.2018 07:00 15,9 °C 90 % 1005,9 hPa 0,0 mm 1,7 km/h (1 Bft) NO 40 ° 0 min 0,000 mm 0,7 UV-I 155 W/m² 14,3 °C 15,9 °C 3,2 km/h (1 Bft)
12.06.2018 07:01 15,9 °C 90 % 1005,9 hPa 0,0 mm 3,3 km/h (1 Bft) O-NO 60 ° 0 min 0,051 mm 0,7 UV-I 158 W/m² 14,3 °C 15,9 °C 4,8 km/h (1 Bft)
12.06.2018 07:02 15,9 °C 90 % 1005,9 hPa 0,0 mm 3,8 km/h (1 Bft) O-NO 62 ° 0 min 0,000 mm 0,7 UV-I 160 W/m² 14,3 °C 15,9 °C 4,8 km/h (1 Bft)
12.06.2018 07:03 15,9 °C 90 % 1005,9 hPa 0,0 mm 3,7 km/h (1 Bft) O-NO 62 ° 0 min 0,000 mm 0,7 UV-I 163 W/m² 14,3 °C 15,9 °C 4,8 km/h (1 Bft)
12.06.2018 07:04 15,9 °C 90 % 1005,9 hPa 0,0 mm 1,2 km/h (1 Bft) O-NO 62 ° 0 min 0,000 mm 0,8 UV-I 158 W/m² 14,3 °C 15,9 °C 3,2 km/h (1 Bft)
12.06.2018 07:05 15,9 °C 90 % 1005,9 hPa 0,0 mm 0,6 km/h (0 Bft) O-NO 62 ° 0 min 0,000 mm 0,8 UV-I 156 W/m² 14,3 °C 15,9 °C 3,2 km/h (1 Bft)
12.06.2018 07:06 15,9 °C 90 % 1005,9 hPa 0,0 mm 2,1 km/h (1 Bft) O-NO 62 ° 0 min 0,000 mm 0,8 UV-I 174 W/m² 14,3 °C 15,9 °C 4,8 km/h (1 Bft)
12.06.2018 07:07 15,9 °C 90 % 1005,9 hPa 0,0 mm 2,0 km/h (1 Bft) O-NO 62 ° 0 min 0,000 mm 0,8 UV-I 174 W/m² 14,3 °C 15,9 °C 3,2 km/h (1 Bft)
12.06.2018 07:08 16,0 °C 89 % 1005,9 hPa 0,0 mm 1,7 km/h (1 Bft) O-NO 62 ° 0 min 0,000 mm 0,8 UV-I 176 W/m² 14,2 °C 16,0 °C 3,2 km/h (1 Bft)
12.06.2018 07:09 16,1 °C 90 % 1006,0 hPa 0,0 mm 1,7 km/h (1 Bft) O-NO 62 ° 0 min 0,000 mm 0,8 UV-I 179 W/m² 14,5 °C 16,1 °C 3,2 km/h (1 Bft)
12.06.2018 07:10 16,1 °C 89 % 1005,9 hPa 0,0 mm 0,1 km/h (0 Bft) O-NO 62 ° 0 min 0,000 mm 0,8 UV-I 151 W/m² 14,3 °C 16,1 °C 1,6 km/h (1 Bft)
12.06.2018 07:11 16,1 °C 89 % 1006,0 hPa 0,0 mm 0,6 km/h (0 Bft) O-NO 62 ° 0 min 0,000 mm 0,9 UV-I 186 W/m² 14,3 °C 16,1 °C 3,2 km/h (1 Bft)
12.06.2018 07:12 16,1 °C 90 % 1006,0 hPa 0,0 mm 2,3 km/h (1 Bft) O-NO 62 ° 0 min 0,000 mm 0,9 UV-I 188 W/m² 14,5 °C 16,1 °C 3,2 km/h (1 Bft)
12.06.2018 07:13 16,1 °C 90 % 1005,9 hPa 0,0 mm 2,9 km/h (1 Bft) O-NO 62 ° 0 min 0,000 mm 0,9 UV-I 192 W/m² 14,5 °C 16,1 °C 4,8 km/h (1 Bft)
12.06.2018 07:14 16,2 °C 89 % 1006,0 hPa 0,0 mm 3,3 km/h (1 Bft) O-NO 62 ° 0 min 0,000 mm 0,9 UV-I 193 W/m² 14,4 °C 16,2 °C 4,8 km/h (1 Bft)
12.06.2018 07:15 16,1 °C 89 % 1005,9 hPa 0,0 mm 2,8 km/h (1 Bft) O-NO 62 ° 0 min 0,000 mm 0,9 UV-I 197 W/m² 14,3 °C 16,1 °C 4,8 km/h (1 Bft)
12.06.2018 07:16 16,1 °C 89 % 1005,9 hPa 0,0 mm 2,5 km/h (1 Bft) O-NO 62 ° 0 min 0,000 mm 0,9 UV-I 202 W/m² 14,3 °C 16,1 °C 3,2 km/h (1 Bft)
12.06.2018 07:17 16,2 °C 90 % 1005,9 hPa 0,0 mm 1,9 km/h (1 Bft) O-NO 62 ° 0 min 0,000 mm 1,0 UV-I 204 W/m² 14,6 °C 16,2 °C 4,8 km/h (1 Bft)
12.06.2018 07:18 16,2 °C 90 % 1005,9 hPa 0,0 mm 2,0 km/h (1 Bft) O-NO 62 ° 0 min 0,000 mm 1,0 UV-I 206 W/m² 14,6 °C 16,2 °C 3,2 km/h (1 Bft)
12.06.2018 07:19 16,3 °C 90 % 1005,9 hPa 0,0 mm 0,7 km/h (0 Bft) O-NO 62 ° 0 min 0,000 mm 1,0 UV-I 209 W/m² 14,7 °C 16,3 °C 3,2 km/h (1 Bft)
12.06.2018 07:20 16,3 °C 90 % 1005,9 hPa 0,0 mm 2,1 km/h (1 Bft) O-NO 62 ° 0 min 0,000 mm 1,0 UV-I 211 W/m² 14,7 °C 16,3 °C 3,2 km/h (1 Bft)
12.06.2018 07:21 16,4 °C 90 % 1005,9 hPa 0,0 mm 0,0 km/h (0 Bft) O-NO 62 ° 0 min 0,000 mm 1,0 UV-I 213 W/m² 14,8 °C 16,4 °C 0,0 km/h (0 Bft)
12.06.2018 07:22 16,5 °C 89 % 1005,9 hPa 0,0 mm 0,0 km/h (0 Bft) O-NO 62 ° 0 min 0,000 mm 1,0 UV-I 218 W/m² 14,7 °C 16,5 °C 0,0 km/h (0 Bft)
12.06.2018 07:23 16,6 °C 89 % 1005,9 hPa 0,0 mm 0,0 km/h (0 Bft) O-NO 62 ° 0 min 0,000 mm 1,1 UV-I 220 W/m² 14,8 °C 16,6 °C 0,0 km/h (0 Bft)
12.06.2018 07:24 16,6 °C 89 % 1005,9 hPa 0,0 mm 0,1 km/h (0 Bft) O-NO 62 ° 0 min 0,000 mm 1,1 UV-I 223 W/m² 14,8 °C 16,6 °C 1,6 km/h (1 Bft)
12.06.2018 07:25 16,7 °C 89 % 1006,0 hPa 0,0 mm 0,3 km/h (0 Bft) O-NO 62 ° 0 min 0,000 mm 1,1 UV-I 225 W/m² 14,9 °C 16,7 °C 1,6 km/h (1 Bft)
12.06.2018 07:26 16,7 °C 88 % 1005,9 hPa 0,0 mm 0,0 km/h (0 Bft) O-NO 62 ° 0 min 0,000 mm 1,1 UV-I 227 W/m² 14,7 °C 16,7 °C 0,0 km/h (0 Bft)
12.06.2018 07:27 16,8 °C 89 % 1005,9 hPa 0,0 mm 0,2 km/h (0 Bft) O-NO 62 ° 0 min 0,000 mm 1,1 UV-I 229 W/m² 15,0 °C 16,8 °C 1,6 km/h (1 Bft)
12.06.2018 07:28 16,9 °C 89 % 1006,0 hPa 0,0 mm 0,0 km/h (0 Bft) O-NO 62 ° 0 min 0,000 mm 1,1 UV-I 232 W/m² 15,1 °C 16,9 °C 0,0 km/h (0 Bft)
12.06.2018 07:29 16,9 °C 89 % 1006,0 hPa 0,0 mm 0,0 km/h (0 Bft) O-NO 62 ° 0 min 0,000 mm 1,2 UV-I 236 W/m² 15,1 °C 16,9 °C 0,0 km/h (0 Bft)
12.06.2018 07:30 17,0 °C 88 % 1006,0 hPa 0,0 mm 0,0 km/h (0 Bft) O-NO 62 ° 0 min 0,000 mm 1,2 UV-I 237 W/m² 15,0 °C 17,0 °C 0,0 km/h (0 Bft)
12.06.2018 07:31 17,0 °C 88 % 1006,0 hPa 0,0 mm 0,0 km/h (0 Bft) O-NO 62 ° 0 min 0,000 mm 1,2 UV-I 237 W/m² 15,0 °C 17,0 °C 0,0 km/h (0 Bft)
12.06.2018 07:32 17,1 °C 88 % 1006,0 hPa 0,0 mm 0,0 km/h (0 Bft) O-NO 62 ° 0 min 0,000 mm 1,2 UV-I 237 W/m² 15,1 °C 17,1 °C 0,0 km/h (0 Bft)
12.06.2018 07:33 17,1 °C 88 % 1006,0 hPa 0,0 mm 0,0 km/h (0 Bft) O-NO 62 ° 0 min 0,000 mm 1,2 UV-I 246 W/m² 15,1 °C 17,1 °C 0,0 km/h (0 Bft)
12.06.2018 07:34 17,1 °C 88 % 1006,0 hPa 0,0 mm 0,0 km/h (0 Bft) O-NO 62 ° 0 min 0,000 mm 1,2 UV-I 248 W/m² 15,1 °C 17,1 °C 0,0 km/h (0 Bft)
12.06.2018 07:35 16,9 °C 88 % 1006,0 hPa 0,0 mm 0,0 km/h (0 Bft) O-NO 62 ° 0 min 0,000 mm 1,3 UV-I 250 W/m² 14,9 °C 16,9 °C 0,0 km/h (0 Bft)
12.06.2018 07:36 17,0 °C 88 % 1006,0 hPa 0,0 mm 0,0 km/h (0 Bft) O-NO 62 ° 0 min 0,000 mm 1,3 UV-I 251 W/m² 15,0 °C 17,0 °C 0,0 km/h (0 Bft)
12.06.2018 07:37 17,1 °C 88 % 1006,0 hPa 0,0 mm 0,0 km/h (0 Bft) O-NO 62 ° 0 min 0,000 mm 1,3 UV-I 251 W/m² 15,1 °C 17,1 °C 0,0 km/h (0 Bft)
12.06.2018 07:38 17,1 °C 88 % 1006,0 hPa 0,0 mm 0,0 km/h (0 Bft) O-NO 62 ° 0 min 0,000 mm 1,3 UV-I 253 W/m² 15,1 °C 17,1 °C 0,0 km/h (0 Bft)
12.06.2018 07:39 17,1 °C 88 % 1006,0 hPa 0,0 mm 0,0 km/h (0 Bft) O-NO 62 ° 0 min 0,000 mm 1,3 UV-I 265 W/m² 15,1 °C 17,1 °C 0,0 km/h (0 Bft)
12.06.2018 07:40 17,2 °C 87 % 1006,0 hPa 0,0 mm 0,3 km/h (0 Bft) O-NO 62 ° 0 min 0,000 mm 1,3 UV-I 267 W/m² 15,0 °C 17,2 °C 1,6 km/h (1 Bft)
12.06.2018 07:41 17,3 °C 88 % 1006,0 hPa 0,0 mm 1,9 km/h (1 Bft) O-NO 62 ° 0 min 0,000 mm 1,4 UV-I 269 W/m² 15,3 °C 17,3 °C 3,2 km/h (1 Bft)
12.06.2018 07:42 17,4 °C 88 % 1006,0 hPa 0,0 mm 0,5 km/h (0 Bft) O-NO 62 ° 0 min 0,000 mm 1,4 UV-I 272 W/m² 15,4 °C 17,4 °C 1,6 km/h (1 Bft)
12.06.2018 07:43 17,5 °C 87 % 1006,0 hPa 0,0 mm 0,0 km/h (0 Bft) O-NO 62 ° 0 min 0,000 mm 1,4 UV-I 276 W/m² 15,3 °C 17,5 °C 0,0 km/h (0 Bft)
12.06.2018 07:44 17,5 °C 86 % 1006,0 hPa 0,0 mm 0,0 km/h (0 Bft) O-NO 62 ° 0 min 0,000 mm 1,4 UV-I 281 W/m² 15,1 °C 17,5 °C 0,0 km/h (0 Bft)
12.06.2018 07:45 17,5 °C 86 % 1006,0 hPa 0,0 mm 0,1 km/h (0 Bft) O-NO 62 ° 0 min 0,000 mm 1,4 UV-I 287 W/m² 15,1 °C 17,5 °C 1,6 km/h (1 Bft)
12.06.2018 07:46 17,6 °C 88 % 1006,0 hPa 0,0 mm 0,0 km/h (0 Bft) O-NO 62 ° 0 min 0,000 mm 1,5 UV-I 295 W/m² 15,6 °C 17,6 °C 0,0 km/h (0 Bft)
12.06.2018 07:47 17,7 °C 86 % 1006,0 hPa 0,0 mm 0,0 km/h (0 Bft) O-NO 62 ° 0 min 0,000 mm 1,5 UV-I 264 W/m² 15,3 °C 17,7 °C 0,0 km/h (0 Bft)
12.06.2018 07:48 17,6 °C 85 % 1006,0 hPa 0,0 mm 1,9 km/h (1 Bft) O-NO 62 ° 0 min 0,000 mm 1,5 UV-I 304 W/m² 15,0 °C 17,6 °C 3,2 km/h (1 Bft)
12.06.2018 07:49 17,6 °C 85 % 1006,0 hPa 0,0 mm 2,6 km/h (1 Bft) O-NO 62 ° 0 min 0,000 mm 1,6 UV-I 304 W/m² 15,0 °C 17,6 °C 4,8 km/h (1 Bft)
12.06.2018 07:50 17,6 °C 85 % 1006,0 hPa 0,0 mm 1,5 km/h (1 Bft) O-NO 62 ° 0 min 0,000 mm 1,6 UV-I 308 W/m² 15,0 °C 17,6 °C 3,2 km/h (1 Bft)
12.06.2018 07:51 17,7 °C 85 % 1006,0 hPa 0,0 mm 1,5 km/h (1 Bft) O-NO 62 ° 0 min 0,000 mm 1,6 UV-I 318 W/m² 15,1 °C 17,7 °C 3,2 km/h (1 Bft)
12.06.2018 07:52 17,7 °C 86 % 1006,0 hPa 0,0 mm 2,7 km/h (1 Bft) O-NO 62 ° 0 min 0,000 mm 1,6 UV-I 325 W/m² 15,3 °C 17,7 °C 3,2 km/h (1 Bft)
12.06.2018 07:53 17,8 °C 86 % 1006,0 hPa 0,0 mm 2,7 km/h (1 Bft) O-NO 62 ° 0 min 0,000 mm 1,6 UV-I 330 W/m² 15,4 °C 17,8 °C 4,8 km/h (1 Bft)
12.06.2018 07:54 17,8 °C 84 % 1006,1 hPa 0,0 mm 3,0 km/h (1 Bft) O-NO 62 ° 0 min 0,000 mm 1,7 UV-I 343 W/m² 15,1 °C 17,8 °C 4,8 km/h (1 Bft)
12.06.2018 07:55 17,7 °C 84 % 1006,0 hPa 0,0 mm 1,3 km/h (1 Bft) O-NO 62 ° 0 min 0,000 mm 1,7 UV-I 346 W/m² 15,0 °C 17,7 °C 3,2 km/h (1 Bft)
12.06.2018 07:56 17,7 °C 85 % 1006,0 hPa 0,0 mm 1,7 km/h (1 Bft) O-NO 62 ° 0 min 0,000 mm 1,6 UV-I 323 W/m² 15,1 °C 17,7 °C 3,2 km/h (1 Bft)
12.06.2018 07:57 17,6 °C 84 % 1006,0 hPa 0,0 mm 2,2 km/h (1 Bft) O-NO 62 ° 0 min 0,000 mm 1,8 UV-I 385 W/m² 14,9 °C 17,6 °C 3,2 km/h (1 Bft)
12.06.2018 07:58 17,7 °C 85 % 1006,1 hPa 0,0 mm 3,4 km/h (1 Bft) O-NO 62 ° 0 min 0,000 mm 1,8 UV-I 403 W/m² 15,1 °C 17,7 °C 4,8 km/h (1 Bft)
12.06.2018 07:59 17,8 °C 86 % 1006,1 hPa 0,0 mm 3,4 km/h (1 Bft) O-NO 62 ° 0 min 0,000 mm 1,9 UV-I 427 W/m² 15,4 °C 17,8 °C 4,8 km/h (1 Bft)
12.06.2018 08:00 17,8 °C 86 % 1006,1 hPa 0,0 mm 3,1 km/h (1 Bft) O-NO 61 ° 0 min 0,000 mm 2,0 UV-I 438 W/m² 15,4 °C 17,8 °C 6,4 km/h (2 Bft)
12.06.2018 08:01 17,8 °C 84 % 1006,0 hPa 0,0 mm 1,3 km/h (1 Bft) O-NO 61 ° 0 min 0,127 mm 2,0 UV-I 452 W/m² 15,1 °C 17,8 °C 3,2 km/h (1 Bft)
12.06.2018 08:02 17,8 °C 86 % 1006,1 hPa 0,0 mm 0,8 km/h (0 Bft) O-NO 61 ° 0 min 0,000 mm 1,6 UV-I 295 W/m² 15,4 °C 17,8 °C 1,6 km/h (1 Bft)
12.06.2018 08:03 17,9 °C 84 % 1006,1 hPa 0,0 mm 2,8 km/h (1 Bft) O-NO 61 ° 0 min 0,000 mm 1,6 UV-I 250 W/m² 15,2 °C 17,9 °C 4,8 km/h (1 Bft)
12.06.2018 08:04 17,9 °C 85 % 1006,1 hPa 0,0 mm 1,6 km/h (1 Bft) O-NO 61 ° 0 min 0,000 mm 1,8 UV-I 287 W/m² 15,3 °C 17,9 °C 3,2 km/h (1 Bft)
12.06.2018 08:05 17,8 °C 84 % 1006,1 hPa 0,0 mm 2,7 km/h (1 Bft) O-NO 61 ° 0 min 0,000 mm 1,7 UV-I 287 W/m² 15,1 °C 17,8 °C 4,8 km/h (1 Bft)
12.06.2018 08:06 17,8 °C 85 % 1006,1 hPa 0,0 mm 2,5 km/h (1 Bft) O-NO 61 ° 0 min 0,000 mm 1,5 UV-I 287 W/m² 15,2 °C 17,8 °C 3,2 km/h (1 Bft)
12.06.2018 08:07 17,8 °C 85 % 1006,1 hPa 0,0 mm 0,0 km/h (0 Bft) O-NO 61 ° 0 min 0,000 mm 1,4 UV-I 206 W/m² 15,2 °C 17,8 °C 0,0 km/h (0 Bft)
12.06.2018 08:08 17,8 °C 85 % 1006,0 hPa 0,0 mm 3,7 km/h (1 Bft) O-NO 61 ° 0 min 0,000 mm 1,4 UV-I 204 W/m² 15,2 °C 17,8 °C 6,4 km/h (2 Bft)
12.06.2018 08:09 17,7 °C 85 % 1006,0 hPa 0,0 mm 1,5 km/h (1 Bft) O-NO 61 ° 0 min 0,000 mm 1,5 UV-I 236 W/m² 15,1 °C 17,7 °C 3,2 km/h (1 Bft)
12.06.2018 08:10 17,7 °C 85 % 1006,0 hPa 0,0 mm 0,9 km/h (0 Bft) O-NO 61 ° 0 min 0,000 mm 1,5 UV-I 308 W/m² 15,1 °C 17,7 °C 1,6 km/h (1 Bft)
12.06.2018 08:11 17,7 °C 86 % 1006,1 hPa 0,0 mm 0,2 km/h (0 Bft) O-NO 61 ° 0 min 0,000 mm 1,8 UV-I 283 W/m² 15,3 °C 17,7 °C 1,6 km/h (1 Bft)
12.06.2018 08:12 17,7 °C 86 % 1006,1 hPa 0,0 mm 0,7 km/h (0 Bft) O-NO 61 ° 0 min 0,000 mm 1,5 UV-I 229 W/m² 15,3 °C 17,7 °C 1,6 km/h (1 Bft)
12.06.2018 08:13 17,8 °C 86 % 1006,0 hPa 0,0 mm 3,4 km/h (1 Bft) O-NO 61 ° 0 min 0,000 mm 1,5 UV-I 225 W/m² 15,4 °C 17,8 °C 4,8 km/h (1 Bft)
12.06.2018 08:14 17,9 °C 85 % 1006,1 hPa 0,0 mm 3,8 km/h (1 Bft) N 5 ° 0 min 0,000 mm 1,8 UV-I 315 W/m² 15,3 °C 17,9 °C 6,4 km/h (2 Bft)
12.06.2018 08:15 17,9 °C 86 % 1006,1 hPa 0,0 mm 5,3 km/h (1 Bft) N-NO 27 ° 0 min 0,000 mm 1,6 UV-I 244 W/m² 15,5 °C 17,9 °C 8,0 km/h (2 Bft)
12.06.2018 08:16 17,9 °C 85 % 1006,0 hPa 0,0 mm 3,8 km/h (1 Bft) N-NO 28 ° 0 min 0,000 mm 1,5 UV-I 251 W/m² 15,3 °C 17,9 °C 6,4 km/h (2 Bft)
12.06.2018 08:17 17,9 °C 86 % 1006,0 hPa 0,0 mm 2,2 km/h (1 Bft) N-NO 28 ° 0 min 0,000 mm 1,4 UV-I 248 W/m² 15,5 °C 17,9 °C 3,2 km/h (1 Bft)
12.06.2018 08:18 17,9 °C 85 % 1006,0 hPa 0,0 mm 2,5 km/h (1 Bft) N-NO 28 ° 0 min 0,000 mm 1,4 UV-I 271 W/m² 15,3 °C 17,9 °C 3,2 km/h (1 Bft)
12.06.2018 08:19 18,0 °C 85 % 1006,1 hPa 0,0 mm 1,2 km/h (1 Bft) N-NO 28 ° 0 min 0,000 mm 1,3 UV-I 232 W/m² 15,4 °C 18,0 °C 3,2 km/h (1 Bft)
12.06.2018 08:20 18,0 °C 85 % 1006,1 hPa 0,0 mm 1,4 km/h (1 Bft) N-NO 28 ° 0 min 0,000 mm 1,2 UV-I 178 W/m² 15,4 °C 18,0 °C 3,2 km/h (1 Bft)
12.06.2018 08:21 18,0 °C 85 % 1006,1 hPa 0,0 mm 0,2 km/h (0 Bft) N-NO 28 ° 0 min 0,000 mm 1,1 UV-I 167 W/m² 15,4 °C 18,0 °C 1,6 km/h (1 Bft)
12.06.2018 08:22 17,9 °C 85 % 1006,1 hPa 0,0 mm 1,7 km/h (1 Bft) N-NO 28 ° 0 min 0,000 mm 0,9 UV-I 165 W/m² 15,3 °C 17,9 °C 4,8 km/h (1 Bft)
12.06.2018 08:23 17,9 °C 85 % 1006,0 hPa 0,0 mm 0,2 km/h (0 Bft) N-NO 28 ° 0 min 0,000 mm 0,8 UV-I 160 W/m² 15,3 °C 17,9 °C 3,2 km/h (1 Bft)
12.06.2018 08:24 17,8 °C 86 % 1006,2 hPa 0,0 mm 3,1 km/h (1 Bft) N 11 ° 0 min 0,000 mm 0,7 UV-I 144 W/m² 15,4 °C 17,8 °C 6,4 km/h (2 Bft)
12.06.2018 08:25 17,8 °C 87 % 1006,2 hPa 0,0 mm 3,2 km/h (1 Bft) N 10 ° 0 min 0,000 mm 0,6 UV-I 125 W/m² 15,6 °C 17,8 °C 6,4 km/h (2 Bft)
12.06.2018 08:26 17,8 °C 86 % 1006,2 hPa 0,0 mm 1,3 km/h (1 Bft) N 10 ° 0 min 0,000 mm 0,5 UV-I 95 W/m² 15,4 °C 17,8 °C 3,2 km/h (1 Bft)
12.06.2018 08:27 17,8 °C 86 % 1006,2 hPa 0,0 mm 4,6 km/h (1 Bft) N-NW 346 ° 0 min 0,000 mm 0,0 UV-I 86 W/m² 15,4 °C 17,8 °C 8,0 km/h (2 Bft)
12.06.2018 08:28 17,7 °C 86 % 1006,2 hPa 0,0 mm 2,8 km/h (1 Bft) N-NW 340 ° 0 min 0,000 mm 0,0 UV-I 79 W/m² 15,3 °C 17,7 °C 4,8 km/h (1 Bft)
12.06.2018 08:29 17,7 °C 86 % 1006,1 hPa 0,0 mm 5,1 km/h (1 Bft) NW 319 ° 0 min 0,000 mm 0,0 UV-I 76 W/m² 15,3 °C 17,7 °C 8,0 km/h (2 Bft)
12.06.2018 08:30 17,7 °C 87 % 1006,2 hPa 0,0 mm 3,6 km/h (1 Bft) NW 314 ° 0 min 0,000 mm 0,5 UV-I 77 W/m² 15,5 °C 17,7 °C 6,4 km/h (2 Bft)
12.06.2018 08:31 17,6 °C 87 % 1006,2 hPa 0,0 mm 1,2 km/h (1 Bft) NW 314 ° 0 min 0,000 mm 0,6 UV-I 83 W/m² 15,4 °C 17,6 °C 3,2 km/h (1 Bft)
12.06.2018 08:32 17,6 °C 87 % 1006,2 hPa 0,0 mm 1,1 km/h (1 Bft) NW 314 ° 0 min 0,000 mm 0,7 UV-I 109 W/m² 15,4 °C 17,6 °C 1,6 km/h (1 Bft)
12.06.2018 08:33 17,5 °C 87 % 1006,3 hPa 0,0 mm 4,2 km/h (1 Bft) NW 314 ° 0 min 0,000 mm 0,9 UV-I 120 W/m² 15,3 °C 17,5 °C 6,4 km/h (2 Bft)
12.06.2018 08:34 17,4 °C 87 % 1006,2 hPa 0,0 mm 3,2 km/h (1 Bft) NW 314 ° 0 min 0,000 mm 1,0 UV-I 127 W/m² 15,2 °C 17,4 °C 4,8 km/h (1 Bft)
12.06.2018 08:35 17,4 °C 88 % 1006,2 hPa 0,0 mm 4,0 km/h (1 Bft) N-NW 327 ° 0 min 0,000 mm 1,0 UV-I 130 W/m² 15,4 °C 17,4 °C 8,0 km/h (2 Bft)
12.06.2018 08:36 17,3 °C 87 % 1006,3 hPa 0,0 mm 5,8 km/h (2 Bft) NW 319 ° 0 min 0,000 mm 1,1 UV-I 132 W/m² 15,1 °C 17,3 °C 8,0 km/h (2 Bft)
12.06.2018 08:37 17,3 °C 87 % 1006,3 hPa 0,0 mm 3,5 km/h (1 Bft) NW 319 ° 0 min 0,000 mm 1,1 UV-I 134 W/m² 15,1 °C 17,3 °C 4,8 km/h (1 Bft)
12.06.2018 08:38 17,3 °C 87 % 1006,3 hPa 0,0 mm 3,3 km/h (1 Bft) NW 319 ° 0 min 0,000 mm 1,2 UV-I 134 W/m² 15,1 °C 17,3 °C 4,8 km/h (1 Bft)
12.06.2018 08:39 17,3 °C 88 % 1006,3 hPa 0,0 mm 4,6 km/h (1 Bft) NW 311 ° 0 min 0,000 mm 1,2 UV-I 134 W/m² 15,3 °C 17,3 °C 8,0 km/h (2 Bft)
12.06.2018 08:40 17,3 °C 88 % 1006,3 hPa 0,0 mm 4,6 km/h (1 Bft) NW 311 ° 0 min 0,000 mm 1,3 UV-I 134 W/m² 15,3 °C 17,3 °C 6,4 km/h (2 Bft)
12.06.2018 08:41 17,2 °C 88 % 1006,3 hPa 0,0 mm 3,6 km/h (1 Bft) NW 311 ° 0 min 0,000 mm 1,3 UV-I 130 W/m² 15,2 °C 17,2 °C 4,8 km/h (1 Bft)
12.06.2018 08:42 17,2 °C 87 % 1006,3 hPa 0,0 mm 2,7 km/h (1 Bft) NW 311 ° 0 min 0,000 mm 1,3 UV-I 130 W/m² 15,0 °C 17,2 °C 4,8 km/h (1 Bft)
12.06.2018 08:43 17,2 °C 88 % 1006,3 hPa 0,0 mm 1,2 km/h (1 Bft) NW 311 ° 0 min 0,000 mm 1,3 UV-I 132 W/m² 15,2 °C 17,2 °C 3,2 km/h (1 Bft)
12.06.2018 08:44 17,2 °C 88 % 1006,3 hPa 0,0 mm 2,2 km/h (1 Bft) NW 311 ° 0 min 0,000 mm 1,4 UV-I 141 W/m² 15,2 °C 17,2 °C 3,2 km/h (1 Bft)
12.06.2018 08:45 17,2 °C 88 % 1006,3 hPa 0,0 mm 1,4 km/h (1 Bft) NW 311 ° 0 min 0,000 mm 1,6 UV-I 149 W/m² 15,2 °C 17,2 °C 1,6 km/h (1 Bft)
12.06.2018 08:46 17,2 °C 88 % 1006,3 hPa 0,0 mm 1,0 km/h (0 Bft) NW 312 ° 0 min 0,000 mm 1,7 UV-I 163 W/m² 15,2 °C 17,2 °C 3,2 km/h (1 Bft)
12.06.2018 08:47 17,2 °C 89 % 1006,3 hPa 0,0 mm 1,9 km/h (1 Bft) N-NO 22 ° 0 min 0,000 mm 1,7 UV-I 181 W/m² 15,4 °C 17,2 °C 3,2 km/h (1 Bft)
12.06.2018 08:48 17,2 °C 88 % 1006,3 hPa 0,0 mm 3,3 km/h (1 Bft) NO 36 ° 0 min 0,000 mm 1,9 UV-I 200 W/m² 15,2 °C 17,2 °C 6,4 km/h (2 Bft)
12.06.2018 08:49 17,2 °C 88 % 1006,3 hPa 0,0 mm 4,1 km/h (1 Bft) NO 54 ° 0 min 0,000 mm 2,1 UV-I 200 W/m² 15,2 °C 17,2 °C 6,4 km/h (2 Bft)
12.06.2018 08:50 17,2 °C 88 % 1006,3 hPa 0,0 mm 5,1 km/h (1 Bft) NO 46 ° 0 min 0,000 mm 1,9 UV-I 185 W/m² 15,2 °C 17,2 °C 6,4 km/h (2 Bft)
12.06.2018 08:51 17,2 °C 88 % 1006,3 hPa 0,0 mm 4,5 km/h (1 Bft) NO 46 ° 0 min 0,000 mm 1,9 UV-I 190 W/m² 15,2 °C 17,2 °C 6,4 km/h (2 Bft)
12.06.2018 08:52 17,2 °C 88 % 1006,3 hPa 0,0 mm 3,8 km/h (1 Bft) NO 46 ° 0 min 0,000 mm 1,9 UV-I 193 W/m² 15,2 °C 17,2 °C 6,4 km/h (2 Bft)
12.06.2018 08:53 17,1 °C 88 % 1006,3 hPa 0,0 mm 4,3 km/h (1 Bft) NO 46 ° 0 min 0,000 mm 1,9 UV-I 204 W/m² 15,1 °C 17,1 °C 6,4 km/h (2 Bft)
12.06.2018 08:54 17,1 °C 88 % 1006,3 hPa 0,0 mm 2,4 km/h (1 Bft) NO 46 ° 0 min 0,000 mm 1,9 UV-I 211 W/m² 15,1 °C 17,1 °C 4,8 km/h (1 Bft)
12.06.2018 08:55 16,9 °C 88 % 1006,3 hPa 0,0 mm 1,3 km/h (1 Bft) NO 56 ° 0 min 0,000 mm 2,0 UV-I 246 W/m² 14,9 °C 16,9 °C 4,8 km/h (1 Bft)
12.06.2018 08:56 17,0 °C 88 % 1006,3 hPa 0,0 mm 5,0 km/h (1 Bft) NO 53 ° 0 min 0,000 mm 2,1 UV-I 283 W/m² 15,0 °C 17,0 °C 8,0 km/h (2 Bft)
12.06.2018 08:57 17,0 °C 88 % 1006,3 hPa 0,0 mm 4,0 km/h (1 Bft) O-NO 60 ° 0 min 0,000 mm 1,9 UV-I 229 W/m² 15,0 °C 17,0 °C 6,4 km/h (2 Bft)
12.06.2018 08:58 17,1 °C 88 % 1006,3 hPa 0,0 mm 0,9 km/h (0 Bft) O-NO 60 ° 0 min 0,000 mm 1,8 UV-I 209 W/m² 15,1 °C 17,1 °C 3,2 km/h (1 Bft)
12.06.2018 08:59 17,1 °C 89 % 1006,3 hPa 0,0 mm 0,8 km/h (0 Bft) O-NO 60 ° 0 min 0,000 mm 2,1 UV-I 251 W/m² 15,3 °C 17,1 °C 3,2 km/h (1 Bft)
12.06.2018 09:00 17,2 °C 89 % 1006,3 hPa 0,0 mm 4,0 km/h (1 Bft) NO 53 ° 0 min 0,000 mm 1,7 UV-I 207 W/m² 15,4 °C 17,2 °C 6,4 km/h (2 Bft)
12.06.2018 09:01 17,2 °C 88 % 1006,3 hPa 0,0 mm 2,7 km/h (1 Bft) O-NO 63 ° 0 min 0,101 mm 1,6 UV-I 149 W/m² 15,2 °C 17,2 °C 6,4 km/h (2 Bft)
12.06.2018 09:02 17,2 °C 88 % 1006,3 hPa 0,0 mm 5,7 km/h (1 Bft) O-NO 57 ° 0 min 0,000 mm 1,5 UV-I 148 W/m² 15,2 °C 17,2 °C 6,4 km/h (2 Bft)
12.06.2018 09:03 17,1 °C 88 % 1006,3 hPa 0,0 mm 4,4 km/h (1 Bft) O-NO 69 ° 0 min 0,000 mm 1,5 UV-I 155 W/m² 15,1 °C 17,1 °C 6,4 km/h (2 Bft)
12.06.2018 09:04 17,1 °C 88 % 1006,3 hPa 0,0 mm 5,0 km/h (1 Bft) O-NO 65 ° 0 min 0,000 mm 1,6 UV-I 174 W/m² 15,1 °C 17,1 °C 6,4 km/h (2 Bft)
12.06.2018 09:05 17,1 °C 88 % 1006,3 hPa 0,0 mm 3,2 km/h (1 Bft) O 79 ° 0 min 0,000 mm 1,6 UV-I 181 W/m² 15,1 °C 17,1 °C 4,8 km/h (1 Bft)
12.06.2018 09:06 17,1 °C 88 % 1006,3 hPa 0,0 mm 4,9 km/h (1 Bft) O-NO 65 ° 0 min 0,000 mm 1,6 UV-I 186 W/m² 15,1 °C 17,1 °C 6,4 km/h (2 Bft)
12.06.2018 09:07 17,1 °C 88 % 1006,3 hPa 0,0 mm 3,2 km/h (1 Bft) O-NO 65 ° 0 min 0,000 mm 1,5 UV-I 211 W/m² 15,1 °C 17,1 °C 4,8 km/h (1 Bft)
12.06.2018 09:08 17,1 °C 88 % 1006,2 hPa 0,0 mm 1,4 km/h (1 Bft) O-NO 65 ° 0 min 0,000 mm 1,3 UV-I 160 W/m² 15,1 °C 17,1 °C 4,8 km/h (1 Bft)
12.06.2018 09:09 17,1 °C 88 % 1006,3 hPa 0,0 mm 2,2 km/h (1 Bft) O-NO 65 ° 0 min 0,000 mm 1,2 UV-I 139 W/m² 15,1 °C 17,1 °C 4,8 km/h (1 Bft)
12.06.2018 09:10 17,2 °C 88 % 1006,3 hPa 0,0 mm 3,7 km/h (1 Bft) NO 52 ° 0 min 0,000 mm 1,1 UV-I 125 W/m² 15,2 °C 17,2 °C 4,8 km/h (1 Bft)
12.06.2018 09:11 17,2 °C 88 % 1006,3 hPa 0,0 mm 1,1 km/h (1 Bft) O-NO 64 ° 0 min 0,000 mm 1,1 UV-I 125 W/m² 15,2 °C 17,2 °C 3,2 km/h (1 Bft)
12.06.2018 09:12 17,2 °C 88 % 1006,3 hPa 0,0 mm 2,0 km/h (1 Bft) O-NO 64 ° 0 min 0,000 mm 1,0 UV-I 100 W/m² 15,2 °C 17,2 °C 3,2 km/h (1 Bft)
12.06.2018 09:13 17,2 °C 88 % 1006,3 hPa 0,0 mm 2,0 km/h (1 Bft) O-NO 64 ° 0 min 0,000 mm 1,0 UV-I 84 W/m² 15,2 °C 17,2 °C 3,2 km/h (1 Bft)
12.06.2018 09:14 17,2 °C 88 % 1006,3 hPa 0,0 mm 3,2 km/h (1 Bft) O-NO 64 ° 0 min 0,000 mm 0,9 UV-I 83 W/m² 15,2 °C 17,2 °C 4,8 km/h (1 Bft)
12.06.2018 09:15 17,2 °C 88 % 1006,2 hPa 0,0 mm 2,5 km/h (1 Bft) O-NO 67 ° 0 min 0,000 mm 0,9 UV-I 84 W/m² 15,2 °C 17,2 °C 4,8 km/h (1 Bft)
12.06.2018 09:16 17,2 °C 88 % 1006,3 hPa 0,0 mm 2,5 km/h (1 Bft) NO 55 ° 0 min 0,000 mm 0,9 UV-I 88 W/m² 15,2 °C 17,2 °C 4,8 km/h (1 Bft)
12.06.2018 09:17 17,1 °C 88 % 1006,3 hPa 0,0 mm 2,7 km/h (1 Bft) NO 55 ° 0 min 0,000 mm 0,9 UV-I 95 W/m² 15,1 °C 17,1 °C 4,8 km/h (1 Bft)
12.06.2018 09:18 17,1 °C 88 % 1006,3 hPa 0,0 mm 3,6 km/h (1 Bft) NO 55 ° 0 min 0,000 mm 0,9 UV-I 98 W/m² 15,1 °C 17,1 °C 6,4 km/h (2 Bft)
12.06.2018 09:19 17,1 °C 88 % 1006,2 hPa 0,0 mm 3,9 km/h (1 Bft) NO 56 ° 0 min 0,000 mm 0,9 UV-I 109 W/m² 15,1 °C 17,1 °C 6,4 km/h (2 Bft)
12.06.2018 09:20 17,1 °C 88 % 1006,2 hPa 0,0 mm 2,1 km/h (1 Bft) NO 56 ° 0 min 0,000 mm 1,0 UV-I 114 W/m² 15,1 °C 17,1 °C 3,2 km/h (1 Bft)
12.06.2018 09:21 17,1 °C 88 % 1006,2 hPa 0,0 mm 4,1 km/h (1 Bft) NO 55 ° 0 min 0,000 mm 1,0 UV-I 123 W/m² 15,1 °C 17,1 °C 4,8 km/h (1 Bft)
12.06.2018 09:22 17,1 °C 88 % 1006,2 hPa 0,0 mm 3,7 km/h (1 Bft) NO 54 ° 0 min 0,000 mm 1,1 UV-I 134 W/m² 15,1 °C 17,1 °C 4,8 km/h (1 Bft)
12.06.2018 09:23 17,1 °C 88 % 1006,2 hPa 0,0 mm 1,1 km/h (1 Bft) NO 54 ° 0 min 0,000 mm 1,1 UV-I 144 W/m² 15,1 °C 17,1 °C 3,2 km/h (1 Bft)
12.06.2018 09:24 17,1 °C 88 % 1006,2 hPa 0,0 mm 0,3 km/h (0 Bft) NO 54 ° 0 min 0,000 mm 1,2 UV-I 151 W/m² 15,1 °C 17,1 °C 3,2 km/h (1 Bft)
12.06.2018 09:25 17,1 °C 88 % 1006,2 hPa 0,0 mm 2,2 km/h (1 Bft) NO 54 ° 0 min 0,000 mm 1,2 UV-I 149 W/m² 15,1 °C 17,1 °C 3,2 km/h (1 Bft)
12.06.2018 09:26 17,2 °C 88 % 1006,2 hPa 0,0 mm 5,2 km/h (1 Bft) O-NO 62 ° 0 min 0,000 mm 1,2 UV-I 151 W/m² 15,2 °C 17,2 °C 6,4 km/h (2 Bft)
12.06.2018 09:27 17,2 °C 88 % 1006,2 hPa 0,0 mm 3,3 km/h (1 Bft) O-NO 62 ° 0 min 0,000 mm 1,2 UV-I 148 W/m² 15,2 °C 17,2 °C 4,8 km/h (1 Bft)
12.06.2018 09:28 17,2 °C 88 % 1006,2 hPa 0,0 mm 1,5 km/h (1 Bft) O-NO 62 ° 0 min 0,000 mm 1,1 UV-I 142 W/m² 15,2 °C 17,2 °C 3,2 km/h (1 Bft)
12.06.2018 09:29 17,2 °C 88 % 1006,2 hPa 0,0 mm 3,2 km/h (1 Bft) O-NO 78 ° 0 min 0,000 mm 1,1 UV-I 139 W/m² 15,2 °C 17,2 °C 8,0 km/h (2 Bft)
12.06.2018 09:30 17,2 °C 88 % 1006,2 hPa 0,0 mm 5,4 km/h (1 Bft) O-NO 65 ° 0 min 0,000 mm 1,2 UV-I 146 W/m² 15,2 °C 17,2 °C 8,0 km/h (2 Bft)
12.06.2018 09:31 17,2 °C 88 % 1006,2 hPa 0,0 mm 4,4 km/h (1 Bft) O-NO 67 ° 0 min 0,000 mm 1,2 UV-I 153 W/m² 15,2 °C 17,2 °C 6,4 km/h (2 Bft)
12.06.2018 09:32 17,2 °C 88 % 1006,2 hPa 0,0 mm 5,1 km/h (1 Bft) O-NO 78 ° 0 min 0,000 mm 1,4 UV-I 162 W/m² 15,2 °C 17,2 °C 6,4 km/h (2 Bft)
12.06.2018 09:33 17,1 °C 88 % 1006,2 hPa 0,0 mm 2,2 km/h (1 Bft) O-NO 78 ° 0 min 0,000 mm 1,4 UV-I 176 W/m² 15,1 °C 17,1 °C 4,8 km/h (1 Bft)
12.06.2018 09:34 17,2 °C 88 % 1006,2 hPa 0,0 mm 2,3 km/h (1 Bft) O-NO 78 ° 0 min 0,000 mm 1,5 UV-I 190 W/m² 15,2 °C 17,2 °C 4,8 km/h (1 Bft)
12.06.2018 09:35 17,2 °C 88 % 1006,2 hPa 0,0 mm 0,8 km/h (0 Bft) O-NO 78 ° 0 min 0,000 mm 1,6 UV-I 200 W/m² 15,2 °C 17,2 °C 3,2 km/h (1 Bft)
12.06.2018 09:36 17,2 °C 88 % 1006,2 hPa 0,0 mm 5,0 km/h (1 Bft) O-NO 67 ° 0 min 0,000 mm 1,6 UV-I 193 W/m² 15,2 °C 17,2 °C 8,0 km/h (2 Bft)
12.06.2018 09:37 17,2 °C 88 % 1006,2 hPa 0,0 mm 5,3 km/h (1 Bft) O 82 ° 0 min 0,000 mm 1,6 UV-I 195 W/m² 15,2 °C 17,2 °C 8,0 km/h (2 Bft)
12.06.2018 09:38 17,2 °C 88 % 1006,2 hPa 0,0 mm 2,6 km/h (1 Bft) O 80 ° 0 min 0,000 mm 1,6 UV-I 202 W/m² 15,2 °C 17,2 °C 3,2 km/h (1 Bft)
12.06.2018 09:39 17,2 °C 88 % 1006,2 hPa 0,0 mm 4,7 km/h (1 Bft) O 87 ° 0 min 0,000 mm 1,5 UV-I 195 W/m² 15,2 °C 17,2 °C 6,4 km/h (2 Bft)
12.06.2018 09:40 17,2 °C 88 % 1006,2 hPa 0,0 mm 4,1 km/h (1 Bft) O 101 ° 0 min 0,000 mm 1,4 UV-I 183 W/m² 15,2 °C 17,2 °C 6,4 km/h (2 Bft)
12.06.2018 09:41 17,3 °C 89 % 1006,2 hPa 0,0 mm 2,6 km/h (1 Bft) O 101 ° 0 min 0,000 mm 1,4 UV-I 178 W/m² 15,5 °C 17,3 °C 4,8 km/h (1 Bft)
12.06.2018 09:42 17,3 °C 88 % 1006,3 hPa 0,0 mm 4,5 km/h (1 Bft) N-NO 26 ° 0 min 0,000 mm 1,4 UV-I 172 W/m² 15,3 °C 17,3 °C 6,4 km/h (2 Bft)
12.06.2018 09:43 17,3 °C 88 % 1006,3 hPa 0,0 mm 5,4 km/h (1 Bft) NO 51 ° 0 min 0,000 mm 1,4 UV-I 171 W/m² 15,3 °C 17,3 °C 8,0 km/h (2 Bft)
12.06.2018 09:44 17,3 °C 88 % 1006,2 hPa 0,0 mm 5,1 km/h (1 Bft) NO 53 ° 0 min 0,000 mm 1,4 UV-I 169 W/m² 15,3 °C 17,3 °C 8,0 km/h (2 Bft)
12.06.2018 09:45 17,3 °C 88 % 1006,2 hPa 0,0 mm 3,1 km/h (1 Bft) O-NO 61 ° 0 min 0,000 mm 1,5 UV-I 178 W/m² 15,3 °C 17,3 °C 6,4 km/h (2 Bft)
12.06.2018 09:46 17,3 °C 88 % 1006,2 hPa 0,0 mm 1,5 km/h (1 Bft) O-NO 61 ° 0 min 0,000 mm 1,6 UV-I 192 W/m² 15,3 °C 17,3 °C 3,2 km/h (1 Bft)
12.06.2018 09:47 17,3 °C 88 % 1006,2 hPa 0,0 mm 2,6 km/h (1 Bft) O-NO 65 ° 0 min 0,000 mm 1,7 UV-I 204 W/m² 15,3 °C 17,3 °C 4,8 km/h (1 Bft)
12.06.2018 09:48 17,3 °C 88 % 1006,2 hPa 0,0 mm 6,0 km/h (2 Bft) O-NO 65 ° 0 min 0,000 mm 1,8 UV-I 248 W/m² 15,3 °C 17,3 °C 6,4 km/h (2 Bft)
12.06.2018 09:49 17,3 °C 88 % 1006,2 hPa 0,0 mm 2,9 km/h (1 Bft) O-NO 65 ° 0 min 0,000 mm 2,2 UV-I 308 W/m² 15,3 °C 17,3 °C 4,8 km/h (1 Bft)
12.06.2018 09:50 17,3 °C 88 % 1006,2 hPa 0,0 mm 2,4 km/h (1 Bft) O-NO 65 ° 0 min 0,000 mm 2,2 UV-I 290 W/m² 15,3 °C 17,3 °C 3,2 km/h (1 Bft)
12.06.2018 09:51 17,3 °C 88 % 1006,1 hPa 0,0 mm 3,5 km/h (1 Bft) O 86 ° 0 min 0,000 mm 2,0 UV-I 274 W/m² 15,3 °C 17,3 °C 6,4 km/h (2 Bft)
12.06.2018 09:52 17,3 °C 88 % 1006,2 hPa 0,0 mm 5,3 km/h (1 Bft) O-NO 78 ° 0 min 0,000 mm 2,0 UV-I 267 W/m² 15,3 °C 17,3 °C 8,0 km/h (2 Bft)
12.06.2018 09:53 17,3 °C 87 % 1006,2 hPa 0,0 mm 4,1 km/h (1 Bft) O-NO 78 ° 0 min 0,000 mm 2,0 UV-I 278 W/m² 15,1 °C 17,3 °C 6,4 km/h (2 Bft)
12.06.2018 09:54 17,3 °C 87 % 1006,2 hPa 0,0 mm 3,3 km/h (1 Bft) O-NO 78 ° 0 min 0,000 mm 2,0 UV-I 285 W/m² 15,1 °C 17,3 °C 4,8 km/h (1 Bft)
12.06.2018 09:55 17,4 °C 87 % 1006,1 hPa 0,0 mm 1,9 km/h (1 Bft) O-NO 78 ° 0 min 0,000 mm 2,0 UV-I 295 W/m² 15,2 °C 17,4 °C 4,8 km/h (1 Bft)
12.06.2018 09:56 17,3 °C 87 % 1006,2 hPa 0,0 mm 2,4 km/h (1 Bft) O-NO 78 ° 0 min 0,000 mm 1,9 UV-I 292 W/m² 15,1 °C 17,3 °C 3,2 km/h (1 Bft)
12.06.2018 09:57 17,4 °C 88 % 1006,3 hPa 0,0 mm 2,5 km/h (1 Bft) O 79 ° 0 min 0,000 mm 1,8 UV-I 260 W/m² 15,4 °C 17,4 °C 4,8 km/h (1 Bft)
12.06.2018 09:58 17,5 °C 88 % 1006,2 hPa 0,0 mm 4,2 km/h (1 Bft) O 79 ° 0 min 0,000 mm 1,7 UV-I 239 W/m² 15,5 °C 17,5 °C 6,4 km/h (2 Bft)
12.06.2018 09:59 17,6 °C 88 % 1006,3 hPa 0,0 mm 4,1 km/h (1 Bft) NO 51 ° 0 min 0,000 mm 1,6 UV-I 223 W/m² 15,6 °C 17,6 °C 6,4 km/h (2 Bft)
12.06.2018 10:00 17,6 °C 87 % 1006,3 hPa 0,0 mm 4,0 km/h (1 Bft) NO 51 ° 0 min 0,000 mm 1,5 UV-I 211 W/m² 15,4 °C 17,6 °C 4,8 km/h (1 Bft)
12.06.2018 10:01 17,6 °C 86 % 1006,3 hPa 0,0 mm 1,1 km/h (1 Bft) NO 51 ° 0 min 0,102 mm 1,5 UV-I 213 W/m² 15,2 °C 17,6 °C 3,2 km/h (1 Bft)
12.06.2018 10:02 17,6 °C 86 % 1006,3 hPa 0,0 mm 0,5 km/h (0 Bft) NO 51 ° 0 min 0,000 mm 1,6 UV-I 216 W/m² 15,2 °C 17,6 °C 3,2 km/h (1 Bft)
12.06.2018 10:03 17,6 °C 86 % 1006,2 hPa 0,0 mm 1,8 km/h (1 Bft) NO 51 ° 0 min 0,000 mm 1,6 UV-I 220 W/m² 15,2 °C 17,6 °C 3,2 km/h (1 Bft)
12.06.2018 10:04 17,6 °C 86 % 1006,2 hPa 0,0 mm 1,8 km/h (1 Bft) NO 51 ° 0 min 0,000 mm 1,7 UV-I 229 W/m² 15,2 °C 17,6 °C 3,2 km/h (1 Bft)
12.06.2018 10:05 17,6 °C 86 % 1006,2 hPa 0,0 mm 0,5 km/h (0 Bft) NO 51 ° 0 min 0,000 mm 1,8 UV-I 241 W/m² 15,2 °C 17,6 °C 3,2 km/h (1 Bft)
12.06.2018 10:06 17,6 °C 86 % 1006,2 hPa 0,0 mm 2,7 km/h (1 Bft) NO 51 ° 0 min 0,000 mm 1,9 UV-I 251 W/m² 15,2 °C 17,6 °C 4,8 km/h (1 Bft)
12.06.2018 10:07 17,6 °C 86 % 1006,1 hPa 0,0 mm 3,6 km/h (1 Bft) NO 51 ° 0 min 0,000 mm 2,0 UV-I 255 W/m² 15,2 °C 17,6 °C 4,8 km/h (1 Bft)
12.06.2018 10:08 17,7 °C 86 % 1006,2 hPa 0,0 mm 0,9 km/h (0 Bft) NO 51 ° 0 min 0,000 mm 2,1 UV-I 257 W/m² 15,3 °C 17,7 °C 3,2 km/h (1 Bft)
12.06.2018 10:09 17,7 °C 85 % 1006,1 hPa 0,0 mm 2,5 km/h (1 Bft) NO 51 ° 0 min 0,000 mm 2,2 UV-I 265 W/m² 15,1 °C 17,7 °C 3,2 km/h (1 Bft)
12.06.2018 10:10 17,7 °C 85 % 1006,1 hPa 0,0 mm 0,9 km/h (0 Bft) NO 51 ° 0 min 0,000 mm 2,2 UV-I 281 W/m² 15,1 °C 17,7 °C 3,2 km/h (1 Bft)
12.06.2018 10:11 17,7 °C 85 % 1006,1 hPa 0,0 mm 0,0 km/h (0 Bft) NO 51 ° 0 min 0,000 mm 2,4 UV-I 341 W/m² 15,1 °C 17,7 °C 0,0 km/h (0 Bft)
12.06.2018 10:12 17,8 °C 85 % 1006,1 hPa 0,0 mm 0,0 km/h (0 Bft) NO 51 ° 0 min 0,000 mm 2,6 UV-I 341 W/m² 15,2 °C 17,8 °C 0,0 km/h (0 Bft)
12.06.2018 10:13 17,9 °C 85 % 1006,1 hPa 0,0 mm 0,2 km/h (0 Bft) NO 51 ° 0 min 0,000 mm 2,8 UV-I 341 W/m² 15,3 °C 17,9 °C 1,6 km/h (1 Bft)
12.06.2018 10:14 18,0 °C 86 % 1006,1 hPa 0,0 mm 0,2 km/h (0 Bft) NO 51 ° 0 min 0,000 mm 2,9 UV-I 371 W/m² 15,6 °C 18,0 °C 1,6 km/h (1 Bft)
12.06.2018 10:15 18,0 °C 85 % 1006,1 hPa 0,0 mm 0,2 km/h (0 Bft) NO 51 ° 0 min 0,000 mm 3,1 UV-I 396 W/m² 15,4 °C 18,0 °C 1,6 km/h (1 Bft)
12.06.2018 10:16 18,1 °C 84 % 1006,1 hPa 0,0 mm 0,0 km/h (0 Bft) NO 51 ° 0 min 0,000 mm 2,7 UV-I 343 W/m² 15,4 °C 18,1 °C 0,0 km/h (0 Bft)
12.06.2018 10:17 18,1 °C 85 % 1006,1 hPa 0,0 mm 2,2 km/h (1 Bft) NO 46 ° 0 min 0,000 mm 2,6 UV-I 334 W/m² 15,5 °C 18,1 °C 4,8 km/h (1 Bft)
12.06.2018 10:18 18,2 °C 84 % 1006,1 hPa 0,0 mm 1,6 km/h (1 Bft) NO 46 ° 0 min 0,000 mm 2,6 UV-I 348 W/m² 15,4 °C 18,2 °C 3,2 km/h (1 Bft)
12.06.2018 10:19 18,2 °C 84 % 1006,1 hPa 0,0 mm 0,1 km/h (0 Bft) NO 46 ° 0 min 0,000 mm 2,7 UV-I 353 W/m² 15,4 °C 18,2 °C 1,6 km/h (1 Bft)
12.06.2018 10:20 18,1 °C 83 % 1006,0 hPa 0,0 mm 1,8 km/h (1 Bft) NO 46 ° 0 min 0,000 mm 2,8 UV-I 376 W/m² 15,2 °C 18,1 °C 3,2 km/h (1 Bft)
12.06.2018 10:21 18,1 °C 84 % 1006,1 hPa 0,0 mm 0,7 km/h (0 Bft) NO 46 ° 0 min 0,000 mm 2,8 UV-I 374 W/m² 15,4 °C 18,1 °C 3,2 km/h (1 Bft)
12.06.2018 10:22 18,1 °C 84 % 1006,1 hPa 0,0 mm 0,4 km/h (0 Bft) NO 46 ° 0 min 0,000 mm 2,8 UV-I 369 W/m² 15,4 °C 18,1 °C 1,6 km/h (1 Bft)
12.06.2018 10:23 18,1 °C 84 % 1006,0 hPa 0,0 mm 1,0 km/h (0 Bft) NO 46 ° 0 min 0,000 mm 3,0 UV-I 485 W/m² 15,4 °C 18,1 °C 1,6 km/h (1 Bft)
12.06.2018 10:24 18,2 °C 85 % 1006,1 hPa 0,0 mm 0,2 km/h (0 Bft) NO 46 ° 0 min 0,000 mm 3,3 UV-I 485 W/m² 15,6 °C 18,2 °C 1,6 km/h (1 Bft)
12.06.2018 10:25 18,2 °C 85 % 1006,0 hPa 0,0 mm 2,3 km/h (1 Bft) NO 46 ° 0 min 0,000 mm 2,3 UV-I 287 W/m² 15,6 °C 18,2 °C 4,8 km/h (1 Bft)
12.06.2018 10:26 18,1 °C 84 % 1006,0 hPa 0,0 mm 0,0 km/h (0 Bft) NO 46 ° 0 min 0,000 mm 2,2 UV-I 288 W/m² 15,4 °C 18,1 °C 0,0 km/h (0 Bft)
12.06.2018 10:27 18,1 °C 84 % 1006,0 hPa 0,0 mm 0,4 km/h (0 Bft) NO 46 ° 0 min 0,000 mm 2,0 UV-I 251 W/m² 15,4 °C 18,1 °C 1,6 km/h (1 Bft)
12.06.2018 10:28 18,1 °C 84 % 1006,0 hPa 0,0 mm 0,1 km/h (0 Bft) NO 46 ° 0 min 0,000 mm 1,9 UV-I 234 W/m² 15,4 °C 18,1 °C 1,6 km/h (1 Bft)
12.06.2018 10:29 18,2 °C 85 % 1006,1 hPa 0,0 mm 0,5 km/h (0 Bft) NO 46 ° 0 min 0,000 mm 1,9 UV-I 230 W/m² 15,6 °C 18,2 °C 1,6 km/h (1 Bft)
12.06.2018 10:30 18,2 °C 85 % 1006,0 hPa 0,0 mm 0,0 km/h (0 Bft) NO 46 ° 0 min 0,000 mm 2,1 UV-I 239 W/m² 15,6 °C 18,2 °C 0,0 km/h (0 Bft)
12.06.2018 10:31 18,3 °C 85 % 1006,0 hPa 0,0 mm 0,0 km/h (0 Bft) NO 46 ° 0 min 0,000 mm 2,2 UV-I 248 W/m² 15,7 °C 18,3 °C 0,0 km/h (0 Bft)
12.06.2018 10:32 18,3 °C 86 % 1006,0 hPa 0,0 mm 0,8 km/h (0 Bft) NO 46 ° 0 min 0,000 mm 2,2 UV-I 257 W/m² 15,9 °C 18,3 °C 3,2 km/h (1 Bft)
12.06.2018 10:33 18,3 °C 84 % 1005,9 hPa 0,0 mm 0,2 km/h (0 Bft) NO 46 ° 0 min 0,000 mm 2,3 UV-I 264 W/m² 15,5 °C 18,3 °C 1,6 km/h (1 Bft)
12.06.2018 10:34 18,2 °C 84 % 1005,9 hPa 0,0 mm 2,5 km/h (1 Bft) NO 46 ° 0 min 0,000 mm 2,4 UV-I 271 W/m² 15,4 °C 18,2 °C 3,2 km/h (1 Bft)
12.06.2018 10:35 18,2 °C 85 % 1005,9 hPa 0,0 mm 1,7 km/h (1 Bft) NO 46 ° 0 min 0,000 mm 2,4 UV-I 283 W/m² 15,6 °C 18,2 °C 3,2 km/h (1 Bft)
12.06.2018 10:36 18,3 °C 86 % 1005,9 hPa 0,0 mm 2,5 km/h (1 Bft) NO 46 ° 0 min 0,000 mm 2,4 UV-I 288 W/m² 15,9 °C 18,3 °C 4,8 km/h (1 Bft)
12.06.2018 10:37 18,4 °C 86 % 1006,0 hPa 0,0 mm 3,6 km/h (1 Bft) NO 46 ° 0 min 0,000 mm 2,4 UV-I 287 W/m² 16,0 °C 18,4 °C 4,8 km/h (1 Bft)
12.06.2018 10:38 18,4 °C 83 % 1005,9 hPa 0,0 mm 2,2 km/h (1 Bft) NO 46 ° 0 min 0,000 mm 2,4 UV-I 281 W/m² 15,5 °C 18,4 °C 4,8 km/h (1 Bft)
12.06.2018 10:39 18,4 °C 84 % 1006,0 hPa 0,0 mm 0,0 km/h (0 Bft) NO 46 ° 0 min 0,000 mm 2,4 UV-I 279 W/m² 15,6 °C 18,4 °C 0,0 km/h (0 Bft)
12.06.2018 10:40 18,3 °C 83 % 1005,9 hPa 0,0 mm 0,0 km/h (0 Bft) NO 46 ° 0 min 0,000 mm 2,4 UV-I 281 W/m² 15,4 °C 18,3 °C 0,0 km/h (0 Bft)
12.06.2018 10:41 18,4 °C 85 % 1005,9 hPa 0,0 mm 0,0 km/h (0 Bft) NO 46 ° 0 min 0,000 mm 2,5 UV-I 297 W/m² 15,8 °C 18,4 °C 0,0 km/h (0 Bft)
12.06.2018 10:42 18,4 °C 84 % 1005,9 hPa 0,0 mm 0,0 km/h (0 Bft) NO 46 ° 0 min 0,000 mm 2,7 UV-I 311 W/m² 15,6 °C 18,4 °C 0,0 km/h (0 Bft)
12.06.2018 10:43 18,4 °C 84 % 1005,9 hPa 0,0 mm 0,9 km/h (0 Bft) NO 46 ° 0 min 0,000 mm 2,9 UV-I 343 W/m² 15,6 °C 18,4 °C 3,2 km/h (1 Bft)
12.06.2018 10:44 18,4 °C 84 % 1005,9 hPa 0,0 mm 0,4 km/h (0 Bft) NO 46 ° 0 min 0,000 mm 3,1 UV-I 394 W/m² 15,6 °C 18,4 °C 1,6 km/h (1 Bft)
12.06.2018 10:45 18,4 °C 84 % 1005,9 hPa 0,0 mm 0,2 km/h (0 Bft) NO 46 ° 0 min 0,000 mm 3,0 UV-I 397 W/m² 15,6 °C 18,4 °C 1,6 km/h (1 Bft)
12.06.2018 10:46 18,4 °C 83 % 1005,9 hPa 0,0 mm 0,7 km/h (0 Bft) NO 46 ° 0 min 0,000 mm 2,9 UV-I 380 W/m² 15,5 °C 18,4 °C 3,2 km/h (1 Bft)
12.06.2018 10:47 18,6 °C 85 % 1005,8 hPa 0,0 mm 2,1 km/h (1 Bft) NO 46 ° 0 min 0,000 mm 2,6 UV-I 295 W/m² 16,0 °C 18,6 °C 3,2 km/h (1 Bft)
12.06.2018 10:48 18,7 °C 85 % 1005,8 hPa 0,0 mm 2,8 km/h (1 Bft) NO 46 ° 0 min 0,000 mm 2,2 UV-I 279 W/m² 16,1 °C 18,7 °C 4,8 km/h (1 Bft)
12.06.2018 10:49 18,8 °C 84 % 1005,9 hPa 0,0 mm 1,9 km/h (1 Bft) NO 46 ° 0 min 0,000 mm 2,1 UV-I 258 W/m² 16,0 °C 18,8 °C 3,2 km/h (1 Bft)
12.06.2018 10:50 18,8 °C 82 % 1005,8 hPa 0,0 mm 6,4 km/h (2 Bft) N 11 ° 0 min 0,000 mm 1,9 UV-I 237 W/m² 15,7 °C 18,8 °C 11,3 km/h (2 Bft)
12.06.2018 10:51 18,8 °C 82 % 1005,9 hPa 0,0 mm 3,5 km/h (1 Bft) N 355 ° 0 min 0,000 mm 1,8 UV-I 216 W/m² 15,7 °C 18,8 °C 6,4 km/h (2 Bft)
12.06.2018 10:52 18,8 °C 82 % 1005,9 hPa 0,0 mm 3,6 km/h (1 Bft) N-NW 334 ° 0 min 0,000 mm 1,6 UV-I 185 W/m² 15,7 °C 18,8 °C 6,4 km/h (2 Bft)
12.06.2018 10:53 18,7 °C 82 % 1005,9 hPa 0,0 mm 3,2 km/h (1 Bft) N-NW 339 ° 0 min 0,000 mm 1,5 UV-I 174 W/m² 15,6 °C 18,7 °C 4,8 km/h (1 Bft)
12.06.2018 10:54 18,6 °C 81 % 1005,9 hPa 0,0 mm 2,2 km/h (1 Bft) N 5 ° 0 min 0,000 mm 1,4 UV-I 169 W/m² 15,3 °C 18,6 °C 3,2 km/h (1 Bft)
12.06.2018 10:55 18,6 °C 82 % 1005,9 hPa 0,0 mm 2,7 km/h (1 Bft) NO 44 ° 0 min 0,000 mm 1,3 UV-I 172 W/m² 15,5 °C 18,6 °C 4,8 km/h (1 Bft)
12.06.2018 10:56 18,5 °C 82 % 1005,9 hPa 0,0 mm 2,0 km/h (1 Bft) NO 44 ° 0 min 0,000 mm 1,4 UV-I 188 W/m² 15,4 °C 18,5 °C 4,8 km/h (1 Bft)
12.06.2018 10:57 18,5 °C 83 % 1005,8 hPa 0,0 mm 1,9 km/h (1 Bft) NO 44 ° 0 min 0,000 mm 1,5 UV-I 202 W/m² 15,6 °C 18,5 °C 3,2 km/h (1 Bft)
12.06.2018 10:58 18,4 °C 83 % 1005,8 hPa 0,0 mm 2,0 km/h (1 Bft) NO 44 ° 0 min 0,000 mm 1,7 UV-I 253 W/m² 15,5 °C 18,4 °C 3,2 km/h (1 Bft)
12.06.2018 10:59 18,4 °C 83 % 1005,9 hPa 0,0 mm 2,3 km/h (1 Bft) NO 44 ° 0 min 0,000 mm 1,7 UV-I 243 W/m² 15,5 °C 18,4 °C 3,2 km/h (1 Bft)
12.06.2018 11:00 18,4 °C 83 % 1005,8 hPa 0,0 mm 1,4 km/h (1 Bft) NO 44 ° 0 min 0,000 mm 1,6 UV-I 223 W/m² 15,5 °C 18,4 °C 3,2 km/h (1 Bft)
12.06.2018 11:01 18,4 °C 84 % 1005,8 hPa 0,0 mm 4,0 km/h (1 Bft) O-NO 77 ° 0 min 0,152 mm 1,6 UV-I 216 W/m² 15,6 °C 18,4 °C 6,4 km/h (2 Bft)
12.06.2018 11:02 18,4 °C 85 % 1005,8 hPa 0,0 mm 4,3 km/h (1 Bft) N-NO 32 ° 0 min 0,000 mm 1,6 UV-I 213 W/m² 15,8 °C 18,4 °C 6,4 km/h (2 Bft)
12.06.2018 11:03 18,4 °C 85 % 1005,9 hPa 0,0 mm 5,6 km/h (1 Bft) NO 42 ° 0 min 0,000 mm 1,5 UV-I 207 W/m² 15,8 °C 18,4 °C 8,0 km/h (2 Bft)
12.06.2018 11:04 18,4 °C 85 % 1005,9 hPa 0,0 mm 4,0 km/h (1 Bft) NO 37 ° 0 min 0,000 mm 1,5 UV-I 195 W/m² 15,8 °C 18,4 °C 8,0 km/h (2 Bft)
12.06.2018 11:05 18,5 °C 85 % 1005,9 hPa 0,0 mm 4,8 km/h (1 Bft) O-NO 57 ° 0 min 0,000 mm 1,6 UV-I 199 W/m² 15,9 °C 18,5 °C 8,0 km/h (2 Bft)
12.06.2018 11:06 18,4 °C 84 % 1005,9 hPa 0,0 mm 7,3 km/h (2 Bft) O-NO 76 ° 0 min 0,000 mm 1,7 UV-I 214 W/m² 15,6 °C 18,4 °C 12,9 km/h (3 Bft)
12.06.2018 11:07 18,4 °C 84 % 1005,9 hPa 0,0 mm 5,0 km/h (1 Bft) O-SO 108 ° 0 min 0,000 mm 1,8 UV-I 227 W/m² 15,6 °C 18,4 °C 6,4 km/h (2 Bft)
12.06.2018 11:08 18,3 °C 85 % 1005,9 hPa 0,0 mm 4,7 km/h (1 Bft) N-NO 22 ° 0 min 0,000 mm 2,0 UV-I 244 W/m² 15,7 °C 18,3 °C 6,4 km/h (2 Bft)
12.06.2018 11:09 18,3 °C 85 % 1005,9 hPa 0,0 mm 4,0 km/h (1 Bft) N-NO 29 ° 0 min 0,000 mm 2,1 UV-I 267 W/m² 15,7 °C 18,3 °C 6,4 km/h (2 Bft)
12.06.2018 11:10 18,3 °C 84 % 1006,0 hPa 0,0 mm 7,0 km/h (2 Bft) NO 36 ° 0 min 0,000 mm 2,1 UV-I 239 W/m² 15,5 °C 18,3 °C 9,7 km/h (2 Bft)
12.06.2018 11:11 18,3 °C 84 % 1006,0 hPa 0,0 mm 4,2 km/h (1 Bft) NO 55 ° 0 min 0,000 mm 1,7 UV-I 209 W/m² 15,5 °C 18,3 °C 6,4 km/h (2 Bft)
12.06.2018 11:12 18,3 °C 84 % 1006,0 hPa 0,0 mm 5,5 km/h (1 Bft) NO 42 ° 0 min 0,000 mm 1,7 UV-I 197 W/m² 15,5 °C 18,3 °C 9,7 km/h (2 Bft)
12.06.2018 11:13 18,3 °C 84 % 1006,0 hPa 0,0 mm 4,4 km/h (1 Bft) N-NO 24 ° 0 min 0,000 mm 1,7 UV-I 202 W/m² 15,5 °C 18,3 °C 9,7 km/h (2 Bft)
12.06.2018 11:14 18,3 °C 84 % 1006,0 hPa 0,0 mm 3,4 km/h (1 Bft) O-NO 77 ° 0 min 0,000 mm 1,8 UV-I 206 W/m² 15,5 °C 18,3 °C 6,4 km/h (2 Bft)
12.06.2018 11:15 18,3 °C 85 % 1006,0 hPa 0,0 mm 2,3 km/h (1 Bft) O-NO 77 ° 0 min 0,000 mm 1,8 UV-I 213 W/m² 15,7 °C 18,3 °C 4,8 km/h (1 Bft)
12.06.2018 11:16 18,2 °C 85 % 1006,1 hPa 0,0 mm 4,5 km/h (1 Bft) O-NO 72 ° 0 min 0,000 mm 1,8 UV-I 202 W/m² 15,6 °C 18,2 °C 6,4 km/h (2 Bft)
12.06.2018 11:17 18,2 °C 84 % 1006,1 hPa 0,0 mm 3,4 km/h (1 Bft) O 88 ° 0 min 0,000 mm 1,7 UV-I 193 W/m² 15,4 °C 18,2 °C 4,8 km/h (1 Bft)
12.06.2018 11:18 18,2 °C 85 % 1006,0 hPa 0,0 mm 1,9 km/h (1 Bft) O 88 ° 0 min 0,000 mm 1,6 UV-I 181 W/m² 15,6 °C 18,2 °C 6,4 km/h (2 Bft)
12.06.2018 11:19 18,2 °C 85 % 1006,1 hPa 0,0 mm 4,9 km/h (1 Bft) O 86 ° 0 min 0,000 mm 1,5 UV-I 174 W/m² 15,6 °C 18,2 °C 6,4 km/h (2 Bft)
12.06.2018 11:20 18,2 °C 85 % 1006,1 hPa 0,0 mm 5,2 km/h (1 Bft) NO 47 ° 0 min 0,000 mm 1,5 UV-I 171 W/m² 15,6 °C 18,2 °C 6,4 km/h (2 Bft)
12.06.2018 11:21 18,1 °C 85 % 1006,1 hPa 0,0 mm 2,3 km/h (1 Bft) NO 47 ° 0 min 0,000 mm 1,5 UV-I 167 W/m² 15,5 °C 18,1 °C 4,8 km/h (1 Bft)
12.06.2018 11:22 18,2 °C 85 % 1006,0 hPa 0,0 mm 2,7 km/h (1 Bft) NO 47 ° 0 min 0,000 mm 1,4 UV-I 149 W/m² 15,6 °C 18,2 °C 4,8 km/h (1 Bft)
12.06.2018 11:23 18,2 °C 85 % 1006,0 hPa 0,0 mm 3,9 km/h (1 Bft) O-NO 61 ° 0 min 0,000 mm 1,2 UV-I 139 W/m² 15,6 °C 18,2 °C 4,8 km/h (1 Bft)
12.06.2018 11:24 18,2 °C 85 % 1006,0 hPa 0,0 mm 1,1 km/h (1 Bft) O-NO 61 ° 0 min 0,000 mm 1,1 UV-I 130 W/m² 15,6 °C 18,2 °C 3,2 km/h (1 Bft)
12.06.2018 11:25 18,2 °C 85 % 1006,0 hPa 0,0 mm 5,0 km/h (1 Bft) O-NO 61 ° 0 min 0,000 mm 1,1 UV-I 123 W/m² 15,6 °C 18,2 °C 8,0 km/h (2 Bft)
12.06.2018 11:26 18,2 °C 85 % 1006,0 hPa 0,0 mm 5,3 km/h (1 Bft) O-SO 106 ° 0 min 0,000 mm 1,1 UV-I 125 W/m² 15,6 °C 18,2 °C 8,0 km/h (2 Bft)
12.06.2018 11:27 18,1 °C 85 % 1006,0 hPa 0,0 mm 4,0 km/h (1 Bft) O-SO 118 ° 0 min 0,000 mm 1,1 UV-I 130 W/m² 15,5 °C 18,1 °C 9,7 km/h (2 Bft)
12.06.2018 11:28 18,1 °C 85 % 1006,0 hPa 0,0 mm 7,6 km/h (2 Bft) O 86 ° 0 min 0,000 mm 1,2 UV-I 153 W/m² 15,5 °C 18,1 °C 11,3 km/h (2 Bft)
12.06.2018 11:29 17,9 °C 85 % 1006,0 hPa 0,0 mm 6,2 km/h (2 Bft) O-NO 74 ° 0 min 0,000 mm 1,5 UV-I 171 W/m² 15,3 °C 17,9 °C 9,7 km/h (2 Bft)
12.06.2018 11:30 17,9 °C 85 % 1006,0 hPa 0,0 mm 5,6 km/h (1 Bft) O 99 ° 0 min 0,000 mm 1,7 UV-I 188 W/m² 15,3 °C 17,9 °C 8,0 km/h (2 Bft)
12.06.2018 11:31 17,9 °C 86 % 1006,0 hPa 0,0 mm 6,0 km/h (2 Bft) O 87 ° 0 min 0,000 mm 1,8 UV-I 204 W/m² 15,5 °C 17,9 °C 9,7 km/h (2 Bft)
12.06.2018 11:32 17,9 °C 86 % 1006,0 hPa 0,0 mm 3,0 km/h (1 Bft) O 82 ° 0 min 0,000 mm 2,1 UV-I 230 W/m² 15,5 °C 17,9 °C 4,8 km/h (1 Bft)
12.06.2018 11:33 17,9 °C 86 % 1006,0 hPa 0,0 mm 4,6 km/h (1 Bft) NO 34 ° 0 min 0,000 mm 2,2 UV-I 258 W/m² 15,5 °C 17,9 °C 6,4 km/h (2 Bft)
12.06.2018 11:34 18,0 °C 86 % 1006,0 hPa 0,0 mm 3,0 km/h (1 Bft) O 82 ° 0 min 0,000 mm 2,3 UV-I 262 W/m² 15,6 °C 18,0 °C 8,0 km/h (2 Bft)
12.06.2018 11:35 18,0 °C 86 % 1006,1 hPa 0,0 mm 3,7 km/h (1 Bft) NO 49 ° 0 min 0,000 mm 2,4 UV-I 267 W/m² 15,6 °C 18,0 °C 9,7 km/h (2 Bft)
12.06.2018 11:36 18,1 °C 86 % 1006,0 hPa 0,0 mm 4,3 km/h (1 Bft) O 84 ° 0 min 0,000 mm 2,4 UV-I 272 W/m² 15,7 °C 18,1 °C 8,0 km/h (2 Bft)
12.06.2018 11:37 18,1 °C 85 % 1006,0 hPa 0,0 mm 4,0 km/h (1 Bft) O-NO 74 ° 0 min 0,000 mm 2,5 UV-I 283 W/m² 15,5 °C 18,1 °C 4,8 km/h (1 Bft)
12.06.2018 11:38 18,1 °C 85 % 1006,0 hPa 0,0 mm 5,2 km/h (1 Bft) O-NO 65 ° 0 min 0,000 mm 2,7 UV-I 302 W/m² 15,5 °C 18,1 °C 8,0 km/h (2 Bft)
12.06.2018 11:39 18,1 °C 85 % 1006,0 hPa 0,0 mm 4,2 km/h (1 Bft) O-NO 71 ° 0 min 0,000 mm 3,0 UV-I 411 W/m² 15,5 °C 18,1 °C 8,0 km/h (2 Bft)
12.06.2018 11:40 18,2 °C 85 % 1006,0 hPa 0,0 mm 4,2 km/h (1 Bft) O-NO 59 ° 0 min 0,000 mm 3,5 UV-I 446 W/m² 15,6 °C 18,2 °C 6,4 km/h (2 Bft)
12.06.2018 11:41 18,2 °C 85 % 1006,0 hPa 0,0 mm 3,3 km/h (1 Bft) O 82 ° 0 min 0,000 mm 3,8 UV-I 446 W/m² 15,6 °C 18,2 °C 6,4 km/h (2 Bft)
12.06.2018 11:42 18,3 °C 85 % 1006,0 hPa 0,0 mm 8,0 km/h (2 Bft) NO 44 ° 0 min 0,000 mm 4,0 UV-I 446 W/m² 15,7 °C 18,3 °C 11,3 km/h (2 Bft)
12.06.2018 11:43 18,3 °C 84 % 1006,0 hPa 0,0 mm 3,4 km/h (1 Bft) O-NO 74 ° 0 min 0,000 mm 3,7 UV-I 446 W/m² 15,5 °C 18,3 °C 8,0 km/h (2 Bft)
12.06.2018 11:44 18,4 °C 84 % 1006,0 hPa 0,0 mm 4,1 km/h (1 Bft) O-NO 73 ° 0 min 0,000 mm 3,7 UV-I 408 W/m² 15,6 °C 18,4 °C 6,4 km/h (2 Bft)
12.06.2018 11:45 18,5 °C 84 % 1006,0 hPa 0,0 mm 6,4 km/h (2 Bft) O 79 ° 0 min 0,000 mm 3,9 UV-I 487 W/m² 15,7 °C 18,5 °C 11,3 km/h (2 Bft)
12.06.2018 11:46 18,5 °C 84 % 1006,0 hPa 0,0 mm 7,2 km/h (2 Bft) NO 41 ° 0 min 0,000 mm 4,2 UV-I 485 W/m² 15,7 °C 18,5 °C 11,3 km/h (2 Bft)
12.06.2018 11:47 18,5 °C 84 % 1006,0 hPa 0,0 mm 4,8 km/h (1 Bft) O 81 ° 0 min 0,000 mm 5,0 UV-I 554 W/m² 15,7 °C 18,5 °C 8,0 km/h (2 Bft)
12.06.2018 11:48 18,6 °C 84 % 1005,9 hPa 0,0 mm 4,7 km/h (1 Bft) NO 44 ° 0 min 0,000 mm 6,4 UV-I 554 W/m² 15,8 °C 18,6 °C 8,0 km/h (2 Bft)
12.06.2018 11:49 18,7 °C 85 % 1005,9 hPa 0,0 mm 5,8 km/h (2 Bft) O-NO 72 ° 0 min 0,000 mm 7,4 UV-I 554 W/m² 16,1 °C 18,7 °C 8,0 km/h (2 Bft)
12.06.2018 11:50 18,9 °C 84 % 1005,9 hPa 0,0 mm 5,8 km/h (2 Bft) O 85 ° 0 min 0,000 mm 7,1 UV-I 554 W/m² 16,1 °C 18,9 °C 11,3 km/h (2 Bft)
12.06.2018 11:51 19,0 °C 83 % 1005,9 hPa 0,0 mm 4,0 km/h (1 Bft) O 79 ° 1 min 0,000 mm 5,5 UV-I 708 W/m² 16,0 °C 19,0 °C 11,3 km/h (2 Bft)
12.06.2018 11:52 19,1 °C 82 % 1005,9 hPa 0,0 mm 7,7 km/h (2 Bft) O-NO 68 ° 1 min 0,000 mm 5,3 UV-I 708 W/m² 16,0 °C 19,1 °C 14,5 km/h (3 Bft)
12.06.2018 11:53 19,0 °C 82 % 1006,0 hPa 0,0 mm 4,8 km/h (1 Bft) NO 55 ° 0 min 0,000 mm 4,3 UV-I 515 W/m² 15,9 °C 19,0 °C 8,0 km/h (2 Bft)
12.06.2018 11:54 19,0 °C 82 % 1006,0 hPa 0,0 mm 3,6 km/h (1 Bft) NO 46 ° 0 min 0,000 mm 3,8 UV-I 443 W/m² 15,9 °C 19,0 °C 6,4 km/h (2 Bft)
12.06.2018 11:55 19,1 °C 83 % 1006,0 hPa 0,0 mm 6,7 km/h (2 Bft) N-NO 32 ° 0 min 0,000 mm 3,9 UV-I 450 W/m² 16,1 °C 19,1 °C 9,7 km/h (2 Bft)
12.06.2018 11:56 19,2 °C 83 % 1006,0 hPa 0,0 mm 6,2 km/h (2 Bft) N-NO 32 ° 0 min 0,000 mm 4,1 UV-I 490 W/m² 16,2 °C 19,2 °C 8,0 km/h (2 Bft)
12.06.2018 11:57 19,2 °C 83 % 1006,0 hPa 0,0 mm 5,6 km/h (1 Bft) O-NO 60 ° 0 min 0,000 mm 5,2 UV-I 490 W/m² 16,2 °C 19,2 °C 6,4 km/h (2 Bft)
12.06.2018 11:58 19,2 °C 83 % 1005,9 hPa 0,0 mm 7,0 km/h (2 Bft) O-SO 105 ° 0 min 0,000 mm 4,5 UV-I 520 W/m² 16,2 °C 19,2 °C 9,7 km/h (2 Bft)
12.06.2018 11:59 19,2 °C 83 % 1005,9 hPa 0,0 mm 7,5 km/h (2 Bft) O-NO 69 ° 0 min 0,000 mm 4,9 UV-I 545 W/m² 16,2 °C 19,2 °C 12,9 km/h (3 Bft)
12.06.2018 12:00 19,2 °C 82 % 1005,9 hPa 0,0 mm 7,8 km/h (2 Bft) O-NO 74 ° 0 min 0,000 mm 4,9 UV-I 561 W/m² 16,0 °C 19,2 °C 12,9 km/h (3 Bft)
12.06.2018 12:01 19,3 °C 84 % 1005,9 hPa 0,0 mm 7,1 km/h (2 Bft) NO 41 ° 0 min 0,204 mm 7,2 UV-I 561 W/m² 16,5 °C 19,3 °C 11,3 km/h (2 Bft)
12.06.2018 12:02 19,3 °C 82 % 1005,9 hPa 0,0 mm 7,7 km/h (2 Bft) SO 138 ° 0 min 0,000 mm 6,6 UV-I 561 W/m² 16,1 °C 19,3 °C 11,3 km/h (2 Bft)
12.06.2018 12:03 19,3 °C 81 % 1005,9 hPa 0,0 mm 4,0 km/h (1 Bft) O-NO 57 ° 0 min 0,000 mm 6,5 UV-I 561 W/m² 16,0 °C 19,3 °C 8,0 km/h (2 Bft)
12.06.2018 12:04 19,5 °C 83 % 1006,0 hPa 0,0 mm 7,0 km/h (2 Bft) O 89 ° 0 min 0,000 mm 6,5 UV-I 561 W/m² 16,5 °C 19,5 °C 12,9 km/h (3 Bft)
12.06.2018 12:05 19,4 °C 82 % 1006,0 hPa 0,0 mm 6,6 km/h (2 Bft) O-NO 70 ° 1 min 0,000 mm 6,9 UV-I 995 W/m² 16,2 °C 19,4 °C 9,7 km/h (2 Bft)
12.06.2018 12:06 19,4 °C 80 % 1005,9 hPa 0,0 mm 4,7 km/h (1 Bft) O 85 ° 1 min 0,000 mm 6,3 UV-I 1056 W/m² 15,9 °C 19,4 °C 6,4 km/h (2 Bft)
12.06.2018 12:07 19,4 °C 81 % 1006,0 hPa 0,0 mm 4,9 km/h (1 Bft) NO 48 ° 1 min 0,000 mm 5,1 UV-I 1056 W/m² 16,1 °C 19,4 °C 8,0 km/h (2 Bft)
12.06.2018 12:08 19,3 °C 81 % 1005,9 hPa 0,0 mm 5,8 km/h (2 Bft) O 89 ° 1 min 0,000 mm 4,8 UV-I 1056 W/m² 16,0 °C 19,3 °C 11,3 km/h (2 Bft)
12.06.2018 12:09 19,2 °C 80 % 1005,8 hPa 0,0 mm 7,1 km/h (2 Bft) O-NO 59 ° 0 min 0,000 mm 5,6 UV-I 526 W/m² 15,7 °C 19,2 °C 9,7 km/h (2 Bft)
12.06.2018 12:10 19,2 °C 80 % 1005,9 hPa 0,0 mm 4,7 km/h (1 Bft) O-SO 103 ° 0 min 0,000 mm 4,4 UV-I 526 W/m² 15,7 °C 19,2 °C 6,4 km/h (2 Bft)
12.06.2018 12:11 19,2 °C 81 % 1005,8 hPa 0,0 mm 3,1 km/h (1 Bft) O 92 ° 0 min 0,000 mm 4,0 UV-I 526 W/m² 15,9 °C 19,2 °C 4,8 km/h (1 Bft)
12.06.2018 12:12 19,1 °C 81 % 1005,8 hPa 0,0 mm 1,7 km/h (1 Bft) NO 42 ° 0 min 0,000 mm 4,3 UV-I 443 W/m² 15,8 °C 19,1 °C 4,8 km/h (1 Bft)
12.06.2018 12:13 19,2 °C 81 % 1005,8 hPa 0,0 mm 8,0 km/h (2 Bft) NO 42 ° 0 min 0,000 mm 4,4 UV-I 457 W/m² 15,9 °C 19,2 °C 14,5 km/h (3 Bft)
12.06.2018 12:14 19,3 °C 81 % 1005,8 hPa 0,0 mm 7,5 km/h (2 Bft) NO 56 ° 0 min 0,000 mm 4,4 UV-I 464 W/m² 16,0 °C 19,3 °C 11,3 km/h (2 Bft)
12.06.2018 12:15 19,3 °C 81 % 1005,8 hPa 0,0 mm 3,4 km/h (1 Bft) O-NO 59 ° 0 min 0,000 mm 4,3 UV-I 459 W/m² 16,0 °C 19,3 °C 6,4 km/h (2 Bft)
12.06.2018 12:16 19,3 °C 81 % 1005,8 hPa 0,0 mm 4,0 km/h (1 Bft) O-NO 59 ° 0 min 0,000 mm 4,1 UV-I 452 W/m² 16,0 °C 19,3 °C 6,4 km/h (2 Bft)
12.06.2018 12:17 19,4 °C 82 % 1005,8 hPa 0,0 mm 5,7 km/h (1 Bft) O-NO 78 ° 0 min 0,000 mm 4,0 UV-I 439 W/m² 16,2 °C 19,4 °C 11,3 km/h (2 Bft)
12.06.2018 12:18 19,4 °C 80 % 1005,7 hPa 0,0 mm 7,2 km/h (2 Bft) O-SO 109 ° 0 min 0,000 mm 3,9 UV-I 427 W/m² 15,9 °C 19,4 °C 12,9 km/h (3 Bft)
12.06.2018 12:19 19,3 °C 81 % 1005,8 hPa 0,0 mm 7,8 km/h (2 Bft) O-NO 64 ° 0 min 0,000 mm 3,8 UV-I 425 W/m² 16,0 °C 19,3 °C 14,5 km/h (3 Bft)
12.06.2018 12:20 19,3 °C 81 % 1005,8 hPa 0,0 mm 8,4 km/h (2 Bft) NO 46 ° 0 min 0,000 mm 3,6 UV-I 383 W/m² 16,0 °C 19,3 °C 11,3 km/h (2 Bft)
12.06.2018 12:21 19,3 °C 80 % 1005,8 hPa 0,0 mm 5,6 km/h (1 Bft) NO 49 ° 0 min 0,000 mm 3,4 UV-I 373 W/m² 15,8 °C 19,3 °C 8,0 km/h (2 Bft)
12.06.2018 12:22 19,3 °C 80 % 1005,9 hPa 0,0 mm 4,6 km/h (1 Bft) O-NO 74 ° 0 min 0,000 mm 3,0 UV-I 350 W/m² 15,8 °C 19,3 °C 8,0 km/h (2 Bft)
12.06.2018 12:23 19,2 °C 80 % 1005,9 hPa 0,0 mm 4,3 km/h (1 Bft) O-NO 60 ° 0 min 0,000 mm 2,9 UV-I 323 W/m² 15,7 °C 19,2 °C 6,4 km/h (2 Bft)
12.06.2018 12:24 19,2 °C 82 % 1005,9 hPa 0,0 mm 3,3 km/h (1 Bft) NO 53 ° 0 min 0,000 mm 2,8 UV-I 306 W/m² 16,0 °C 19,2 °C 4,8 km/h (1 Bft)
12.06.2018 12:25 19,2 °C 81 % 1005,9 hPa 0,0 mm 6,3 km/h (2 Bft) NO 53 ° 0 min 0,000 mm 2,9 UV-I 322 W/m² 15,9 °C 19,2 °C 9,7 km/h (2 Bft)
12.06.2018 12:26 19,2 °C 81 % 1005,9 hPa 0,0 mm 3,9 km/h (1 Bft) N-NO 30 ° 0 min 0,000 mm 3,0 UV-I 355 W/m² 15,9 °C 19,2 °C 6,4 km/h (2 Bft)
12.06.2018 12:27 19,2 °C 82 % 1005,9 hPa 0,0 mm 4,2 km/h (1 Bft) O-NO 71 ° 0 min 0,000 mm 3,1 UV-I 353 W/m² 16,0 °C 19,2 °C 6,4 km/h (2 Bft)
12.06.2018 12:28 19,2 °C 82 % 1005,9 hPa 0,0 mm 3,4 km/h (1 Bft) O 89 ° 0 min 0,000 mm 3,2 UV-I 366 W/m² 16,0 °C 19,2 °C 6,4 km/h (2 Bft)
12.06.2018 12:29 19,2 °C 82 % 1005,9 hPa 0,0 mm 2,0 km/h (1 Bft) O 89 ° 0 min 0,000 mm 3,4 UV-I 408 W/m² 16,0 °C 19,2 °C 6,4 km/h (2 Bft)
12.06.2018 12:30 19,1 °C 81 % 1005,9 hPa 0,0 mm 3,7 km/h (1 Bft) O 87 ° 0 min 0,000 mm 3,4 UV-I 399 W/m² 15,8 °C 19,1 °C 6,4 km/h (2 Bft)
12.06.2018 12:31 19,1 °C 81 % 1005,9 hPa 0,0 mm 2,5 km/h (1 Bft) O 79 ° 0 min 0,000 mm 3,1 UV-I 350 W/m² 15,8 °C 19,1 °C 4,8 km/h (1 Bft)
12.06.2018 12:32 19,1 °C 82 % 1005,9 hPa 0,0 mm 6,6 km/h (2 Bft) O 98 ° 0 min 0,000 mm 3,0 UV-I 323 W/m² 16,0 °C 19,1 °C 11,3 km/h (2 Bft)
12.06.2018 12:33 19,0 °C 81 % 1005,9 hPa 0,0 mm 5,6 km/h (1 Bft) O-NO 75 ° 0 min 0,000 mm 2,9 UV-I 329 W/m² 15,7 °C 19,0 °C 9,7 km/h (2 Bft)
12.06.2018 12:34 19,0 °C 82 % 1005,9 hPa 0,0 mm 3,9 km/h (1 Bft) N-NO 28 ° 0 min 0,000 mm 2,9 UV-I 338 W/m² 15,9 °C 19,0 °C 9,7 km/h (2 Bft)
12.06.2018 12:35 19,1 °C 82 % 1005,9 hPa 0,0 mm 4,5 km/h (1 Bft) O-NO 65 ° 0 min 0,000 mm 2,9 UV-I 334 W/m² 16,0 °C 19,1 °C 8,0 km/h (2 Bft)
12.06.2018 12:36 19,2 °C 82 % 1005,9 hPa 0,0 mm 6,6 km/h (2 Bft) O-NO 60 ° 0 min 0,000 mm 2,7 UV-I 309 W/m² 16,0 °C 19,2 °C 8,0 km/h (2 Bft)
12.06.2018 12:37 19,3 °C 82 % 1005,9 hPa 0,0 mm 4,3 km/h (1 Bft) O-NO 64 ° 0 min 0,000 mm 2,6 UV-I 288 W/m² 16,1 °C 19,3 °C 6,4 km/h (2 Bft)
12.06.2018 12:38 19,3 °C 81 % 1005,8 hPa 0,0 mm 8,9 km/h (2 Bft) O-NO 69 ° 0 min 0,000 mm 2,6 UV-I 306 W/m² 16,0 °C 19,3 °C 14,5 km/h (3 Bft)
12.06.2018 12:39 19,2 °C 81 % 1005,8 hPa 0,0 mm 7,7 km/h (2 Bft) NO 44 ° 0 min 0,000 mm 2,9 UV-I 315 W/m² 15,9 °C 19,2 °C 11,3 km/h (2 Bft)
12.06.2018 12:40 19,2 °C 81 % 1005,8 hPa 0,0 mm 7,0 km/h (2 Bft) O-NO 69 ° 0 min 0,000 mm 2,9 UV-I 327 W/m² 15,9 °C 19,2 °C 11,3 km/h (2 Bft)
12.06.2018 12:41 19,2 °C 81 % 1005,7 hPa 0,0 mm 7,1 km/h (2 Bft) O 80 ° 0 min 0,000 mm 3,1 UV-I 346 W/m² 15,9 °C 19,2 °C 12,9 km/h (3 Bft)
12.06.2018 12:42 19,1 °C 81 % 1005,7 hPa 0,0 mm 4,4 km/h (1 Bft) NO 43 ° 0 min 0,000 mm 3,3 UV-I 371 W/m² 15,8 °C 19,1 °C 8,0 km/h (2 Bft)
12.06.2018 12:43 19,2 °C 81 % 1005,7 hPa 0,0 mm 5,8 km/h (2 Bft) O-SO 107 ° 0 min 0,000 mm 3,5 UV-I 403 W/m² 15,9 °C 19,2 °C 9,7 km/h (2 Bft)
12.06.2018 12:44 19,1 °C 80 % 1005,7 hPa 0,0 mm 8,9 km/h (2 Bft) O-NO 71 ° 0 min 0,000 mm 3,6 UV-I 422 W/m² 15,6 °C 19,1 °C 11,3 km/h (2 Bft)
12.06.2018 12:45 19,1 °C 83 % 1005,7 hPa 0,0 mm 4,2 km/h (1 Bft) NO 45 ° 0 min 0,000 mm 3,5 UV-I 459 W/m² 16,1 °C 19,1 °C 8,0 km/h (2 Bft)
12.06.2018 12:46 19,1 °C 81 % 1005,7 hPa 0,0 mm 5,0 km/h (1 Bft) O-NO 67 ° 0 min 0,000 mm 3,2 UV-I 376 W/m² 15,8 °C 19,1 °C 8,0 km/h (2 Bft)
12.06.2018 12:47 19,1 °C 81 % 1005,8 hPa 0,0 mm 9,1 km/h (2 Bft) O-NO 61 ° 0 min 0,000 mm 3,1 UV-I 352 W/m² 15,8 °C 19,1 °C 16,1 km/h (3 Bft)
12.06.2018 12:48 19,1 °C 81 % 1005,7 hPa 0,0 mm 5,7 km/h (1 Bft) O 79 ° 0 min 0,000 mm 3,1 UV-I 353 W/m² 15,8 °C 19,1 °C 9,7 km/h (2 Bft)
12.06.2018 12:49 19,1 °C 81 % 1005,7 hPa 0,0 mm 8,8 km/h (2 Bft) O 86 ° 0 min 0,000 mm 3,2 UV-I 362 W/m² 15,8 °C 19,1 °C 14,5 km/h (3 Bft)
12.06.2018 12:50 19,1 °C 82 % 1005,6 hPa 0,0 mm 4,4 km/h (1 Bft) NO 51 ° 0 min 0,000 mm 3,3 UV-I 374 W/m² 16,0 °C 19,1 °C 9,7 km/h (2 Bft)
12.06.2018 12:51 19,1 °C 82 % 1005,6 hPa 0,0 mm 4,9 km/h (1 Bft) O 92 ° 0 min 0,000 mm 3,3 UV-I 355 W/m² 16,0 °C 19,1 °C 8,0 km/h (2 Bft)
12.06.2018 12:52 19,0 °C 81 % 1005,5 hPa 0,0 mm 4,0 km/h (1 Bft) O 90 ° 0 min 0,000 mm 3,3 UV-I 338 W/m² 15,7 °C 19,0 °C 6,4 km/h (2 Bft)
12.06.2018 12:53 19,0 °C 81 % 1005,5 hPa 0,0 mm 5,2 km/h (1 Bft) O-NO 59 ° 0 min 0,000 mm 3,2 UV-I 322 W/m² 15,7 °C 19,0 °C 9,7 km/h (2 Bft)
12.06.2018 12:54 19,0 °C 81 % 1005,6 hPa 0,0 mm 6,1 km/h (2 Bft) O-NO 72 ° 0 min 0,000 mm 3,2 UV-I 313 W/m² 15,7 °C 19,0 °C 12,9 km/h (3 Bft)
12.06.2018 12:55 18,9 °C 82 % 1005,5 hPa 0,0 mm 6,7 km/h (2 Bft) NO 53 ° 0 min 0,000 mm 3,1 UV-I 295 W/m² 15,8 °C 18,9 °C 9,7 km/h (2 Bft)
12.06.2018 12:56 18,9 °C 81 % 1005,5 hPa 0,0 mm 1,9 km/h (1 Bft) O 94 ° 0 min 0,000 mm 3,0 UV-I 292 W/m² 15,6 °C 18,9 °C 3,2 km/h (1 Bft)
12.06.2018 12:57 18,9 °C 82 % 1005,5 hPa 0,0 mm 4,0 km/h (1 Bft) O 80 ° 0 min 0,000 mm 3,1 UV-I 306 W/m² 15,8 °C 18,9 °C 8,0 km/h (2 Bft)
12.06.2018 12:58 18,9 °C 83 % 1005,5 hPa 0,0 mm 8,0 km/h (2 Bft) NO 46 ° 0 min 0,000 mm 3,3 UV-I 332 W/m² 15,9 °C 18,9 °C 12,9 km/h (3 Bft)
12.06.2018 12:59 18,9 °C 82 % 1005,5 hPa 0,0 mm 4,5 km/h (1 Bft) NO 35 ° 0 min 0,000 mm 3,8 UV-I 383 W/m² 15,8 °C 18,9 °C 6,4 km/h (2 Bft)
12.06.2018 13:00 19,0 °C 81 % 1005,5 hPa 0,0 mm 9,1 km/h (2 Bft) O-NO 78 ° 0 min 0,000 mm 6,3 UV-I 383 W/m² 15,7 °C 19,0 °C 17,7 km/h (3 Bft)
12.06.2018 13:01 19,2 °C 83 % 1005,4 hPa 0,0 mm 5,3 km/h (1 Bft) O-NO 73 ° 1 min 0,279 mm 6,8 UV-I 886 W/m² 16,2 °C 19,2 °C 12,9 km/h (3 Bft)
12.06.2018 13:02 19,2 °C 81 % 1005,4 hPa 0,0 mm 5,9 km/h (2 Bft) NO 44 ° 1 min 0,000 mm 6,7 UV-I 902 W/m² 15,9 °C 19,2 °C 8,0 km/h (2 Bft)
12.06.2018 13:03 19,3 °C 82 % 1005,4 hPa 0,0 mm 5,7 km/h (1 Bft) O-SO 117 ° 1 min 0,000 mm 5,2 UV-I 902 W/m² 16,1 °C 19,3 °C 9,7 km/h (2 Bft)
12.06.2018 13:04 19,4 °C 81 % 1005,4 hPa 0,0 mm 6,0 km/h (2 Bft) O 91 ° 1 min 0,000 mm 5,9 UV-I 902 W/m² 16,1 °C 19,4 °C 11,3 km/h (2 Bft)
12.06.2018 13:05 19,6 °C 82 % 1005,4 hPa 0,0 mm 6,0 km/h (2 Bft) NO 36 ° 1 min 0,000 mm 7,4 UV-I 902 W/m² 16,4 °C 19,6 °C 11,3 km/h (2 Bft)
12.06.2018 13:06 19,7 °C 80 % 1005,3 hPa 0,0 mm 9,7 km/h (2 Bft) O 91 ° 1 min 0,000 mm 7,6 UV-I 984 W/m² 16,1 °C 19,7 °C 11,3 km/h (2 Bft)
12.06.2018 13:07 19,8 °C 81 % 1005,4 hPa 0,0 mm 8,6 km/h (2 Bft) O-NO 67 ° 1 min 0,000 mm 7,6 UV-I 916 W/m² 16,4 °C 19,8 °C 14,5 km/h (3 Bft)
12.06.2018 13:08 19,8 °C 78 % 1005,4 hPa 0,0 mm 6,8 km/h (2 Bft) NO 51 ° 1 min 0,000 mm 6,0 UV-I 916 W/m² 15,8 °C 19,8 °C 8,0 km/h (2 Bft)
12.06.2018 13:09 19,8 °C 80 % 1005,4 hPa 0,0 mm 10,2 km/h (2 Bft) O-SO 115 ° 1 min 0,000 mm 6,4 UV-I 916 W/m² 16,2 °C 19,8 °C 16,1 km/h (3 Bft)
12.06.2018 13:10 19,8 °C 79 % 1005,4 hPa 0,0 mm 8,4 km/h (2 Bft) N-NO 26 ° 1 min 0,000 mm 6,6 UV-I 807 W/m² 16,0 °C 19,8 °C 16,1 km/h (3 Bft)
12.06.2018 13:11 19,7 °C 78 % 1005,4 hPa 0,0 mm 7,4 km/h (2 Bft) O-NO 65 ° 1 min 0,000 mm 6,6 UV-I 824 W/m² 15,8 °C 19,7 °C 16,1 km/h (3 Bft)
12.06.2018 13:12 19,7 °C 79 % 1005,3 hPa 0,0 mm 5,5 km/h (1 Bft) NO 47 ° 1 min 0,000 mm 6,1 UV-I 735 W/m² 16,0 °C 19,7 °C 9,7 km/h (2 Bft)
12.06.2018 13:13 19,8 °C 80 % 1005,3 hPa 0,0 mm 8,9 km/h (2 Bft) N-NO 29 ° 1 min 0,000 mm 7,3 UV-I 974 W/m² 16,2 °C 19,8 °C 16,1 km/h (3 Bft)
12.06.2018 13:14 19,9 °C 79 % 1005,3 hPa 0,0 mm 9,8 km/h (2 Bft) NO 44 ° 1 min 0,000 mm 7,0 UV-I 974 W/m² 16,1 °C 19,9 °C 16,1 km/h (3 Bft)
12.06.2018 13:15 20,1 °C 80 % 1005,3 hPa 0,0 mm 7,1 km/h (2 Bft) NO 46 ° 1 min 0,000 mm 7,2 UV-I 911 W/m² 16,5 °C 20,1 °C 11,3 km/h (2 Bft)
12.06.2018 13:16 20,3 °C 78 % 1005,3 hPa 0,0 mm 5,2 km/h (1 Bft) O-NO 71 ° 1 min 0,000 mm 7,8 UV-I 1000 W/m² 16,3 °C 20,3 °C 8,0 km/h (2 Bft)
12.06.2018 13:17 20,4 °C 77 % 1005,2 hPa 0,0 mm 9,6 km/h (2 Bft) O-SO 104 ° 1 min 0,000 mm 7,6 UV-I 1007 W/m² 16,2 °C 20,4 °C 14,5 km/h (3 Bft)
12.06.2018 13:18 20,3 °C 79 % 1005,2 hPa 0,0 mm 8,5 km/h (2 Bft) O 84 ° 1 min 0,000 mm 7,7 UV-I 1025 W/m² 16,5 °C 20,3 °C 16,1 km/h (3 Bft)
12.06.2018 13:19 20,3 °C 77 % 1005,2 hPa 0,0 mm 6,9 km/h (2 Bft) N-NO 30 ° 1 min 0,000 mm 8,3 UV-I 1132 W/m² 16,1 °C 20,3 °C 14,5 km/h (3 Bft)
12.06.2018 13:20 20,3 °C 77 % 1005,2 hPa 0,0 mm 5,8 km/h (2 Bft) SO 136 ° 1 min 0,000 mm 8,1 UV-I 1100 W/m² 16,1 °C 20,3 °C 8,0 km/h (2 Bft)
12.06.2018 13:21 20,3 °C 77 % 1005,2 hPa 0,0 mm 5,2 km/h (1 Bft) O 96 ° 1 min 0,000 mm 6,5 UV-I 1014 W/m² 16,1 °C 20,3 °C 9,7 km/h (2 Bft)
12.06.2018 13:22 20,5 °C 79 % 1005,2 hPa 0,0 mm 8,0 km/h (2 Bft) N-NO 17 ° 1 min 0,000 mm 5,6 UV-I 1014 W/m² 16,7 °C 20,5 °C 16,1 km/h (3 Bft)
12.06.2018 13:23 20,6 °C 77 % 1005,2 hPa 0,0 mm 3,6 km/h (1 Bft) O-NO 68 ° 1 min 0,000 mm 7,6 UV-I 1014 W/m² 16,4 °C 20,6 °C 6,4 km/h (2 Bft)
12.06.2018 13:24 20,6 °C 78 % 1005,1 hPa 0,0 mm 5,7 km/h (1 Bft) O 92 ° 1 min 0,000 mm 7,5 UV-I 1051 W/m² 16,6 °C 20,6 °C 11,3 km/h (2 Bft)
12.06.2018 13:25 20,8 °C 78 % 1005,2 hPa 0,0 mm 14,5 km/h (3 Bft) O 86 ° 1 min 0,000 mm 7,4 UV-I 1032 W/m² 16,8 °C 20,8 °C 22,5 km/h (4 Bft)
12.06.2018 13:26 20,7 °C 77 % 1005,2 hPa 0,0 mm 8,8 km/h (2 Bft) O 94 ° 1 min 0,000 mm 7,1 UV-I 984 W/m² 16,5 °C 20,7 °C 17,7 km/h (3 Bft)
12.06.2018 13:27 20,7 °C 76 % 1005,1 hPa 0,0 mm 6,4 km/h (2 Bft) N 9 ° 1 min 0,000 mm 6,7 UV-I 902 W/m² 16,3 °C 20,7 °C 11,3 km/h (2 Bft)
12.06.2018 13:28 20,7 °C 78 % 1005,1 hPa 0,0 mm 8,4 km/h (2 Bft) O-NO 59 ° 1 min 0,000 mm 6,5 UV-I 860 W/m² 16,7 °C 20,7 °C 14,5 km/h (3 Bft)
12.06.2018 13:29 20,8 °C 77 % 1005,1 hPa 0,0 mm 8,6 km/h (2 Bft) N-NO 26 ° 1 min 0,000 mm 6,2 UV-I 793 W/m² 16,6 °C 20,8 °C 14,5 km/h (3 Bft)
12.06.2018 13:30 20,8 °C 77 % 1005,1 hPa 0,0 mm 6,4 km/h (2 Bft) O-NO 78 ° 1 min 0,000 mm 6,3 UV-I 828 W/m² 16,6 °C 20,8 °C 11,3 km/h (2 Bft)
12.06.2018 13:31 20,7 °C 76 % 1005,1 hPa 0,0 mm 4,2 km/h (1 Bft) NO 36 ° 1 min 0,000 mm 6,7 UV-I 875 W/m² 16,3 °C 20,7 °C 11,3 km/h (2 Bft)
12.06.2018 13:32 20,7 °C 76 % 1005,1 hPa 0,0 mm 8,2 km/h (2 Bft) O 100 ° 1 min 0,000 mm 6,6 UV-I 889 W/m² 16,3 °C 20,7 °C 11,3 km/h (2 Bft)
12.06.2018 13:33 20,7 °C 77 % 1005,1 hPa 0,0 mm 12,9 km/h (3 Bft) O-NO 63 ° 1 min 0,000 mm 6,0 UV-I 884 W/m² 16,5 °C 20,7 °C 16,1 km/h (3 Bft)
12.06.2018 13:34 20,6 °C 76 % 1005,1 hPa 0,0 mm 13,2 km/h (3 Bft) O-NO 76 ° 1 min 0,000 mm 4,0 UV-I 884 W/m² 16,2 °C 20,6 °C 19,3 km/h (3 Bft)
12.06.2018 13:35 20,5 °C 76 % 1005,0 hPa 0,0 mm 9,3 km/h (2 Bft) O-NO 77 ° 1 min 0,000 mm 6,1 UV-I 884 W/m² 16,1 °C 20,5 °C 14,5 km/h (3 Bft)
12.06.2018 13:36 20,4 °C 79 % 1005,0 hPa 0,0 mm 6,9 km/h (2 Bft) O-NO 65 ° 0 min 0,000 mm 4,2 UV-I 478 W/m² 16,6 °C 20,4 °C 16,1 km/h (3 Bft)
12.06.2018 13:37 20,4 °C 77 % 1005,0 hPa 0,0 mm 11,2 km/h (2 Bft) N-NO 30 ° 0 min 0,000 mm 4,4 UV-I 540 W/m² 16,2 °C 20,4 °C 16,1 km/h (3 Bft)
12.06.2018 13:38 20,3 °C 76 % 1005,0 hPa 0,0 mm 8,1 km/h (2 Bft) NO 52 ° 0 min 0,000 mm 5,9 UV-I 540 W/m² 15,9 °C 20,3 °C 9,7 km/h (2 Bft)
12.06.2018 13:39 20,4 °C 77 % 1005,0 hPa 0,0 mm 8,1 km/h (2 Bft) O-SO 109 ° 0 min 0,000 mm 7,0 UV-I 540 W/m² 16,2 °C 20,4 °C 12,9 km/h (3 Bft)
12.06.2018 13:40 20,4 °C 81 % 1004,9 hPa 0,0 mm 5,3 km/h (1 Bft) O-NO 78 ° 0 min 0,000 mm 5,6 UV-I 540 W/m² 17,0 °C 20,4 °C 6,4 km/h (2 Bft)
12.06.2018 13:41 20,7 °C 79 % 1004,8 hPa 0,0 mm 7,8 km/h (2 Bft) NO 55 ° 0 min 0,000 mm 5,4 UV-I 540 W/m² 16,9 °C 20,7 °C 14,5 km/h (3 Bft)
12.06.2018 13:42 20,6 °C 75 % 1004,8 hPa 0,0 mm 6,7 km/h (2 Bft) NO 52 ° 0 min 0,000 mm 4,5 UV-I 466 W/m² 16,0 °C 20,6 °C 11,3 km/h (2 Bft)
12.06.2018 13:43 20,5 °C 74 % 1004,8 hPa 0,0 mm 5,2 km/h (1 Bft) NO 45 ° 0 min 0,000 mm 4,1 UV-I 443 W/m² 15,7 °C 20,5 °C 8,0 km/h (2 Bft)
12.06.2018 13:44 20,4 °C 73 % 1004,7 hPa 0,0 mm 5,4 km/h (1 Bft) NO 49 ° 0 min 0,000 mm 3,8 UV-I 436 W/m² 15,4 °C 20,4 °C 9,7 km/h (2 Bft)
12.06.2018 13:45 20,3 °C 75 % 1004,7 hPa 0,0 mm 2,9 km/h (1 Bft) O-NO 59 ° 0 min 0,000 mm 3,7 UV-I 417 W/m² 15,7 °C 20,3 °C 4,8 km/h (1 Bft)
12.06.2018 13:46 20,2 °C 75 % 1004,7 hPa 0,0 mm 4,0 km/h (1 Bft) O-NO 74 ° 0 min 0,000 mm 3,5 UV-I 406 W/m² 15,6 °C 20,2 °C 6,4 km/h (2 Bft)
12.06.2018 13:47 20,2 °C 75 % 1004,6 hPa 0,0 mm 3,8 km/h (1 Bft) O-NO 74 ° 0 min 0,000 mm 3,4 UV-I 392 W/m² 15,6 °C 20,2 °C 6,4 km/h (2 Bft)
12.06.2018 13:48 20,1 °C 76 % 1004,6 hPa 0,0 mm 5,0 km/h (1 Bft) NO 34 ° 0 min 0,000 mm 3,2 UV-I 366 W/m² 15,7 °C 20,1 °C 14,5 km/h (3 Bft)
12.06.2018 13:49 20,0 °C 76 % 1004,6 hPa 0,0 mm 6,1 km/h (2 Bft) NO 41 ° 0 min 0,000 mm 3,1 UV-I 357 W/m² 15,6 °C 20,0 °C 12,9 km/h (3 Bft)
12.06.2018 13:50 20,0 °C 76 % 1004,5 hPa 0,0 mm 5,0 km/h (1 Bft) SO 124 ° 0 min 0,000 mm 2,8 UV-I 332 W/m² 15,6 °C 20,0 °C 12,9 km/h (3 Bft)
12.06.2018 13:51 20,0 °C 77 % 1004,5 hPa 0,0 mm 6,0 km/h (2 Bft) O-NO 65 ° 0 min 0,000 mm 2,6 UV-I 315 W/m² 15,8 °C 20,0 °C 11,3 km/h (2 Bft)
12.06.2018 13:52 19,9 °C 76 % 1004,5 hPa 0,0 mm 9,0 km/h (2 Bft) O-NO 61 ° 0 min 0,000 mm 2,3 UV-I 287 W/m² 15,5 °C 19,9 °C 16,1 km/h (3 Bft)
12.06.2018 13:53 19,8 °C 77 % 1004,5 hPa 0,0 mm 8,9 km/h (2 Bft) O-NO 67 ° 0 min 0,000 mm 2,1 UV-I 255 W/m² 15,6 °C 19,8 °C 12,9 km/h (3 Bft)
12.06.2018 13:54 19,8 °C 77 % 1004,5 hPa 0,0 mm 5,2 km/h (1 Bft) O 79 ° 0 min 0,000 mm 1,9 UV-I 230 W/m² 15,6 °C 19,8 °C 8,0 km/h (2 Bft)
12.06.2018 13:55 19,7 °C 78 % 1004,5 hPa 0,0 mm 3,1 km/h (1 Bft) NO 34 ° 0 min 0,000 mm 1,9 UV-I 230 W/m² 15,8 °C 19,7 °C 4,8 km/h (1 Bft)
12.06.2018 13:56 19,7 °C 78 % 1004,5 hPa 0,0 mm 4,2 km/h (1 Bft) NO 44 ° 0 min 0,000 mm 2,0 UV-I 236 W/m² 15,8 °C 19,7 °C 8,0 km/h (2 Bft)
12.06.2018 13:57 19,7 °C 79 % 1004,6 hPa 0,0 mm 6,7 km/h (2 Bft) O-NO 62 ° 0 min 0,000 mm 1,9 UV-I 229 W/m² 16,0 °C 19,7 °C 9,7 km/h (2 Bft)
12.06.2018 13:58 19,6 °C 79 % 1004,6 hPa 0,0 mm 2,9 km/h (1 Bft) NO 52 ° 0 min 0,000 mm 1,8 UV-I 209 W/m² 15,9 °C 19,6 °C 6,4 km/h (2 Bft)
12.06.2018 13:59 19,7 °C 79 % 1004,6 hPa 0,0 mm 2,0 km/h (1 Bft) O-NO 71 ° 0 min 0,000 mm 1,7 UV-I 192 W/m² 16,0 °C 19,7 °C 4,8 km/h (1 Bft)
12.06.2018 14:00 19,6 °C 79 % 1004,6 hPa 0,0 mm 6,9 km/h (2 Bft) O-NO 74 ° 0 min 0,000 mm 1,7 UV-I 185 W/m² 15,9 °C 19,6 °C 9,7 km/h (2 Bft)
12.06.2018 14:01 19,5 °C 79 % 1004,7 hPa 0,0 mm 4,7 km/h (1 Bft) O-NO 57 ° 0 min 0,406 mm 1,6 UV-I 179 W/m² 15,8 °C 19,5 °C 8,0 km/h (2 Bft)
12.06.2018 14:02 19,5 °C 79 % 1004,6 hPa 0,0 mm 5,9 km/h (2 Bft) O-NO 63 ° 0 min 0,000 mm 1,6 UV-I 174 W/m² 15,8 °C 19,5 °C 8,0 km/h (2 Bft)
12.06.2018 14:03 19,6 °C 80 % 1004,7 hPa 0,0 mm 5,0 km/h (1 Bft) O-NO 65 ° 0 min 0,000 mm 1,5 UV-I 165 W/m² 16,1 °C 19,6 °C 8,0 km/h (2 Bft)
12.06.2018 14:04 19,5 °C 78 % 1004,7 hPa 0,0 mm 7,2 km/h (2 Bft) NO 50 ° 0 min 0,000 mm 1,4 UV-I 155 W/m² 15,6 °C 19,5 °C 14,5 km/h (3 Bft)
12.06.2018 14:05 19,4 °C 79 % 1004,7 hPa 0,0 mm 4,7 km/h (1 Bft) NO 49 ° 0 min 0,000 mm 1,3 UV-I 148 W/m² 15,7 °C 19,4 °C 8,0 km/h (2 Bft)
12.06.2018 14:06 19,4 °C 79 % 1004,7 hPa 0,0 mm 6,6 km/h (2 Bft) O-NO 69 ° 0 min 0,000 mm 1,3 UV-I 149 W/m² 15,7 °C 19,4 °C 11,3 km/h (2 Bft)
12.06.2018 14:07 19,4 °C 78 % 1004,7 hPa 0,0 mm 5,0 km/h (1 Bft) O-NO 67 ° 0 min 0,000 mm 1,5 UV-I 156 W/m² 15,5 °C 19,4 °C 9,7 km/h (2 Bft)
12.06.2018 14:08 19,4 °C 79 % 1004,6 hPa 0,0 mm 4,6 km/h (1 Bft) NO 44 ° 0 min 0,000 mm 1,6 UV-I 169 W/m² 15,7 °C 19,4 °C 6,4 km/h (2 Bft)
12.06.2018 14:09 19,4 °C 79 % 1004,6 hPa 0,0 mm 7,1 km/h (2 Bft) O-NO 57 ° 0 min 0,000 mm 1,7 UV-I 183 W/m² 15,7 °C 19,4 °C 12,9 km/h (3 Bft)
12.06.2018 14:10 19,4 °C 78 % 1004,6 hPa 0,0 mm 4,5 km/h (1 Bft) O-NO 58 ° 0 min 0,000 mm 1,9 UV-I 199 W/m² 15,5 °C 19,4 °C 6,4 km/h (2 Bft)
12.06.2018 14:11 19,4 °C 78 % 1004,6 hPa 0,0 mm 2,8 km/h (1 Bft) NO 34 ° 0 min 0,000 mm 2,1 UV-I 216 W/m² 15,5 °C 19,4 °C 4,8 km/h (1 Bft)
12.06.2018 14:12 19,5 °C 79 % 1004,6 hPa 0,0 mm 3,1 km/h (1 Bft) O-NO 66 ° 0 min 0,000 mm 2,2 UV-I 232 W/m² 15,8 °C 19,5 °C 4,8 km/h (1 Bft)
12.06.2018 14:13 19,6 °C 79 % 1004,6 hPa 0,0 mm 1,6 km/h (1 Bft) O-NO 66 ° 0 min 0,000 mm 2,2 UV-I 234 W/m² 15,9 °C 19,6 °C 3,2 km/h (1 Bft)
12.06.2018 14:14 19,6 °C 78 % 1004,5 hPa 0,0 mm 4,3 km/h (1 Bft) O-NO 73 ° 0 min 0,000 mm 2,2 UV-I 230 W/m² 15,7 °C 19,6 °C 6,4 km/h (2 Bft)
12.06.2018 14:15 19,6 °C 77 % 1004,5 hPa 0,0 mm 2,3 km/h (1 Bft) O-NO 68 ° 0 min 0,000 mm 2,1 UV-I 225 W/m² 15,5 °C 19,6 °C 4,8 km/h (1 Bft)
12.06.2018 14:16 19,6 °C 77 % 1004,5 hPa 0,0 mm 0,3 km/h (0 Bft) O-NO 68 ° 0 min 0,000 mm 2,0 UV-I 214 W/m² 15,5 °C 19,6 °C 1,6 km/h (1 Bft)
12.06.2018 14:17 19,6 °C 78 % 1004,5 hPa 0,0 mm 1,1 km/h (1 Bft) O-NO 68 ° 0 min 0,000 mm 1,9 UV-I 193 W/m² 15,7 °C 19,6 °C 3,2 km/h (1 Bft)
12.06.2018 14:18 19,6 °C 77 % 1004,5 hPa 0,0 mm 2,5 km/h (1 Bft) O-NO 61 ° 0 min 0,000 mm 1,8 UV-I 181 W/m² 15,5 °C 19,6 °C 4,8 km/h (1 Bft)
12.06.2018 14:19 19,6 °C 78 % 1004,5 hPa 0,0 mm 1,3 km/h (1 Bft) O-NO 61 ° 0 min 0,000 mm 1,6 UV-I 169 W/m² 15,7 °C 19,6 °C 3,2 km/h (1 Bft)
12.06.2018 14:20 19,6 °C 78 % 1004,5 hPa 0,0 mm 3,7 km/h (1 Bft) O-NO 61 ° 0 min 0,000 mm 1,5 UV-I 163 W/m² 15,7 °C 19,6 °C 4,8 km/h (1 Bft)
12.06.2018 14:21 19,6 °C 78 % 1004,4 hPa 0,0 mm 2,3 km/h (1 Bft) O-NO 61 ° 0 min 0,000 mm 1,4 UV-I 151 W/m² 15,7 °C 19,6 °C 3,2 km/h (1 Bft)
12.06.2018 14:22 19,6 °C 77 % 1004,5 hPa 0,0 mm 1,8 km/h (1 Bft) NO 53 ° 0 min 0,000 mm 1,2 UV-I 137 W/m² 15,5 °C 19,6 °C 4,8 km/h (1 Bft)
12.06.2018 14:23 19,6 °C 78 % 1004,5 hPa 0,0 mm 0,9 km/h (0 Bft) NO 53 ° 0 min 0,000 mm 1,1 UV-I 104 W/m² 15,7 °C 19,6 °C 3,2 km/h (1 Bft)
12.06.2018 14:24 19,6 °C 77 % 1004,4 hPa 0,0 mm 2,1 km/h (1 Bft) O-NO 73 ° 0 min 0,000 mm 0,7 UV-I 88 W/m² 15,5 °C 19,6 °C 3,2 km/h (1 Bft)
12.06.2018 14:25 19,7 °C 77 % 1004,5 hPa 0,0 mm 4,7 km/h (1 Bft) NO 34 ° 0 min 0,000 mm 0,6 UV-I 72 W/m² 15,5 °C 19,7 °C 8,0 km/h (2 Bft)
12.06.2018 14:26 19,7 °C 77 % 1004,5 hPa 0,0 mm 7,8 km/h (2 Bft) N-NW 333 ° 0 min 0,000 mm 0,5 UV-I 60 W/m² 15,5 °C 19,7 °C 9,7 km/h (2 Bft)
12.06.2018 14:27 19,7 °C 77 % 1004,5 hPa 0,0 mm 5,0 km/h (1 Bft) N-NO 32 ° 0 min 0,000 mm 0,0 UV-I 53 W/m² 15,5 °C 19,7 °C 8,0 km/h (2 Bft)
12.06.2018 14:28 19,7 °C 77 % 1004,5 hPa 0,0 mm 2,4 km/h (1 Bft) NO 36 ° 0 min 0,000 mm 0,0 UV-I 49 W/m² 15,5 °C 19,7 °C 4,8 km/h (1 Bft)
12.06.2018 14:29 19,6 °C 76 % 1004,5 hPa 0,0 mm 3,0 km/h (1 Bft) O-NO 61 ° 0 min 0,000 mm 0,0 UV-I 54 W/m² 15,2 °C 19,6 °C 6,4 km/h (2 Bft)
12.06.2018 14:30 19,5 °C 76 % 1004,4 hPa 0,0 mm 6,4 km/h (2 Bft) NO 52 ° 0 min 0,000 mm 0,5 UV-I 58 W/m² 15,2 °C 19,5 °C 9,7 km/h (2 Bft)
12.06.2018 14:31 19,4 °C 76 % 1004,4 hPa 0,0 mm 4,4 km/h (1 Bft) NO 34 ° 0 min 0,000 mm 0,6 UV-I 62 W/m² 15,1 °C 19,4 °C 6,4 km/h (2 Bft)
12.06.2018 14:32 19,4 °C 76 % 1004,4 hPa 0,0 mm 3,5 km/h (1 Bft) NO 34 ° 0 min 0,000 mm 0,6 UV-I 67 W/m² 15,1 °C 19,4 °C 4,8 km/h (1 Bft)
12.06.2018 14:33 19,4 °C 77 % 1004,3 hPa 0,0 mm 1,5 km/h (1 Bft) N-NO 16 ° 0 min 0,000 mm 0,7 UV-I 74 W/m² 15,3 °C 19,4 °C 4,8 km/h (1 Bft)
12.06.2018 14:34 19,4 °C 77 % 1004,3 hPa 0,0 mm 7,7 km/h (2 Bft) N 10 ° 0 min 0,000 mm 0,7 UV-I 77 W/m² 15,3 °C 19,4 °C 12,9 km/h (3 Bft)
12.06.2018 14:35 19,4 °C 76 % 1004,4 hPa 0,0 mm 5,2 km/h (1 Bft) O-NO 69 ° 0 min 0,000 mm 0,7 UV-I 70 W/m² 15,1 °C 19,4 °C 12,9 km/h (3 Bft)
12.06.2018 14:36 19,3 °C 77 % 1004,5 hPa 0,0 mm 0,3 km/h (0 Bft) O-NO 69 ° 0 min 0,000 mm 0,6 UV-I 63 W/m² 15,2 °C 19,3 °C 1,6 km/h (1 Bft)
12.06.2018 14:37 19,3 °C 77 % 1004,5 hPa 0,0 mm 5,8 km/h (2 Bft) NO 49 ° 0 min 0,000 mm 0,5 UV-I 56 W/m² 15,2 °C 19,3 °C 8,0 km/h (2 Bft)
12.06.2018 14:38 19,2 °C 77 % 1004,5 hPa 0,0 mm 5,6 km/h (1 Bft) O-NO 63 ° 0 min 0,000 mm 0,0 UV-I 51 W/m² 15,1 °C 19,2 °C 8,0 km/h (2 Bft)
12.06.2018 14:39 19,2 °C 78 % 1004,6 hPa 0,0 mm 4,1 km/h (1 Bft) N 5 ° 0 min 0,000 mm 0,0 UV-I 46 W/m² 15,3 °C 19,2 °C 6,4 km/h (2 Bft)
12.06.2018 14:40 19,2 °C 77 % 1004,6 hPa 0,0 mm 3,4 km/h (1 Bft) N-NO 19 ° 0 min 0,000 mm 0,0 UV-I 42 W/m² 15,1 °C 19,2 °C 6,4 km/h (2 Bft)
12.06.2018 14:41 19,2 °C 77 % 1004,6 hPa 0,0 mm 2,0 km/h (1 Bft) N-NO 19 ° 0 min 0,000 mm 0,0 UV-I 40 W/m² 15,1 °C 19,2 °C 4,8 km/h (1 Bft)
12.06.2018 14:42 19,2 °C 78 % 1004,7 hPa 0,0 mm 0,6 km/h (0 Bft) N-NO 19 ° 0 min 0,000 mm 0,0 UV-I 39 W/m² 15,3 °C 19,2 °C 3,2 km/h (1 Bft)
12.06.2018 14:43 19,2 °C 78 % 1004,7 hPa 0,0 mm 0,8 km/h (0 Bft) N-NO 19 ° 0 min 0,000 mm 0,0 UV-I 39 W/m² 15,3 °C 19,2 °C 1,6 km/h (1 Bft)
12.06.2018 14:44 19,2 °C 78 % 1004,7 hPa 0,0 mm 1,8 km/h (1 Bft) N-NO 19 ° 0 min 0,000 mm 0,0 UV-I 39 W/m² 15,3 °C 19,2 °C 3,2 km/h (1 Bft)
12.06.2018 14:45 19,1 °C 78 % 1004,7 hPa 0,0 mm 3,4 km/h (1 Bft) N-NO 26 ° 0 min 0,000 mm 0,0 UV-I 39 W/m² 15,2 °C 19,1 °C 6,4 km/h (2 Bft)
12.06.2018 14:46 19,1 °C 77 % 1004,7 hPa 0,0 mm 4,7 km/h (1 Bft) O-NO 60 ° 0 min 0,000 mm 0,0 UV-I 39 W/m² 15,0 °C 19,1 °C 8,0 km/h (2 Bft)
12.06.2018 14:47 19,1 °C 77 % 1004,7 hPa 0,0 mm 5,7 km/h (1 Bft) N-NO 32 ° 0 min 0,000 mm 0,0 UV-I 39 W/m² 15,0 °C 19,1 °C 8,0 km/h (2 Bft)
12.06.2018 14:48 19,1 °C 76 % 1004,6 hPa 0,0 mm 5,2 km/h (1 Bft) N 355 ° 0 min 0,000 mm 0,0 UV-I 39 W/m² 14,8 °C 19,1 °C 8,0 km/h (2 Bft)
12.06.2018 14:49 19,1 °C 76 % 1004,6 hPa 0,0 mm 3,0 km/h (1 Bft) N-NW 347 ° 0 min 0,000 mm 0,0 UV-I 37 W/m² 14,8 °C 19,1 °C 8,0 km/h (2 Bft)
12.06.2018 14:50 19,1 °C 77 % 1004,6 hPa 0,0 mm 1,0 km/h (0 Bft) N-NW 347 ° 0 min 0,000 mm 0,0 UV-I 33 W/m² 15,0 °C 19,1 °C 1,6 km/h (1 Bft)
12.06.2018 14:51 19,0 °C 77 % 1004,6 hPa 0,0 mm 1,4 km/h (1 Bft) N-NW 347 ° 0 min 0,000 mm 0,0 UV-I 32 W/m² 14,9 °C 19,0 °C 4,8 km/h (1 Bft)
12.06.2018 14:52 18,9 °C 78 % 1004,6 hPa 0,0 mm 4,8 km/h (1 Bft) N-NO 20 ° 0 min 0,000 mm 0,0 UV-I 30 W/m² 15,0 °C 18,9 °C 6,4 km/h (2 Bft)
12.06.2018 14:53 18,9 °C 78 % 1004,6 hPa 0,0 mm 5,0 km/h (1 Bft) N-NW 335 ° 0 min 0,000 mm 0,0 UV-I 28 W/m² 15,0 °C 18,9 °C 6,4 km/h (2 Bft)
12.06.2018 14:54 18,9 °C 77 % 1004,6 hPa 0,0 mm 2,7 km/h (1 Bft) N-NO 24 ° 0 min 0,000 mm 0,0 UV-I 28 W/m² 14,8 °C 18,9 °C 4,8 km/h (1 Bft)
12.06.2018 14:55 18,8 °C 78 % 1004,5 hPa 0,0 mm 4,2 km/h (1 Bft) N-NO 21 ° 0 min 0,000 mm 0,0 UV-I 26 W/m² 14,9 °C 18,8 °C 6,4 km/h (2 Bft)
12.06.2018 14:56 18,9 °C 78 % 1004,5 hPa 0,0 mm 3,1 km/h (1 Bft) N-NO 21 ° 0 min 0,000 mm 0,0 UV-I 23 W/m² 15,0 °C 18,9 °C 4,8 km/h (1 Bft)
12.06.2018 14:57 18,9 °C 78 % 1004,5 hPa 0,0 mm 2,8 km/h (1 Bft) N-NO 18 ° 0 min 0,000 mm 0,0 UV-I 21 W/m² 15,0 °C 18,9 °C 4,8 km/h (1 Bft)
12.06.2018 14:58 18,9 °C 78 % 1004,6 hPa 0,0 mm 4,1 km/h (1 Bft) N 355 ° 0 min 0,000 mm 0,0 UV-I 18 W/m² 15,0 °C 18,9 °C 8,0 km/h (2 Bft)
12.06.2018 14:59 18,8 °C 78 % 1004,6 hPa 0,0 mm 5,6 km/h (1 Bft) N 355 ° 0 min 0,000 mm 0,0 UV-I 16 W/m² 14,9 °C 18,8 °C 8,0 km/h (2 Bft)
12.06.2018 15:00 18,8 °C 78 % 1004,5 hPa 0,0 mm 2,9 km/h (1 Bft) N-NO 27 ° 0 min 0,000 mm 0,0 UV-I 16 W/m² 14,9 °C 18,8 °C 4,8 km/h (1 Bft)
12.06.2018 15:01 18,8 °C 78 % 1004,6 hPa 0,0 mm 0,7 km/h (0 Bft) N-NO 27 ° 0 min 0,077 mm 0,0 UV-I 14 W/m² 14,9 °C 18,8 °C 1,6 km/h (1 Bft)
12.06.2018 15:02 18,8 °C 79 % 1004,6 hPa 0,0 mm 2,8 km/h (1 Bft) N-NO 27 ° 0 min 0,000 mm 0,0 UV-I 12 W/m² 15,1 °C 18,8 °C 4,8 km/h (1 Bft)
12.06.2018 15:03 18,8 °C 78 % 1004,6 hPa 0,0 mm 3,9 km/h (1 Bft) N-NO 24 ° 0 min 0,000 mm 0,0 UV-I 12 W/m² 14,9 °C 18,8 °C 6,4 km/h (2 Bft)
12.06.2018 15:04 18,8 °C 78 % 1004,7 hPa 0,0 mm 1,0 km/h (0 Bft) N-NO 24 ° 0 min 0,000 mm 0,0 UV-I 12 W/m² 14,9 °C 18,8 °C 1,6 km/h (1 Bft)
12.06.2018 15:05 18,8 °C 79 % 1004,6 hPa 0,0 mm 2,0 km/h (1 Bft) N-NO 24 ° 0 min 0,000 mm 0,0 UV-I 11 W/m² 15,1 °C 18,8 °C 3,2 km/h (1 Bft)
12.06.2018 15:06 18,7 °C 79 % 1004,7 hPa 0,0 mm 0,8 km/h (0 Bft) N-NO 24 ° 0 min 0,000 mm 0,0 UV-I 9 W/m² 15,0 °C 18,7 °C 1,6 km/h (1 Bft)
12.06.2018 15:07 18,7 °C 79 % 1004,7 hPa 0,0 mm 1,5 km/h (1 Bft) N-NO 24 ° 0 min 0,000 mm 0,0 UV-I 9 W/m² 15,0 °C 18,7 °C 3,2 km/h (1 Bft)
12.06.2018 15:08 18,7 °C 80 % 1004,7 hPa 0,0 mm 1,0 km/h (0 Bft) N-NO 24 ° 0 min 0,000 mm 0,0 UV-I 7 W/m² 15,2 °C 18,7 °C 3,2 km/h (1 Bft)
12.06.2018 15:09 18,6 °C 80 % 1004,7 hPa 0,0 mm 1,0 km/h (0 Bft) N-NO 24 ° 0 min 0,000 mm 0,0 UV-I 7 W/m² 15,1 °C 18,6 °C 1,6 km/h (1 Bft)
12.06.2018 15:10 18,6 °C 81 % 1004,7 hPa 0,0 mm 2,2 km/h (1 Bft) N-NW 348 ° 0 min 0,000 mm 0,0 UV-I 7 W/m² 15,3 °C 18,6 °C 4,8 km/h (1 Bft)
12.06.2018 15:11 18,5 °C 81 % 1004,7 hPa 0,0 mm 1,5 km/h (1 Bft) N-NW 348 ° 0 min 0,000 mm 0,0 UV-I 5 W/m² 15,2 °C 18,5 °C 3,2 km/h (1 Bft)
12.06.2018 15:12 18,4 °C 81 % 1004,7 hPa 0,0 mm 2,0 km/h (1 Bft) N-NW 348 ° 0 min 0,000 mm 0,0 UV-I 5 W/m² 15,1 °C 18,4 °C 3,2 km/h (1 Bft)
12.06.2018 15:13 18,4 °C 82 % 1004,7 hPa 0,0 mm 0,7 km/h (0 Bft) NW 321 ° 0 min 0,000 mm 0,0 UV-I 5 W/m² 15,3 °C 18,4 °C 4,8 km/h (1 Bft)
12.06.2018 15:14 18,3 °C 84 % 1004,7 hPa 0,0 mm 4,8 km/h (1 Bft) W 275 ° 0 min 0,000 mm 0,0 UV-I 5 W/m² 15,5 °C 18,3 °C 6,4 km/h (2 Bft)
12.06.2018 15:15 18,1 °C 84 % 1004,8 hPa 0,0 mm 3,2 km/h (1 Bft) W 259 ° 0 min 0,000 mm 0,0 UV-I 5 W/m² 15,4 °C 18,1 °C 4,8 km/h (1 Bft)
12.06.2018 15:16 18,1 °C 85 % 1004,8 hPa 0,0 mm 5,2 km/h (1 Bft) W 259 ° 0 min 0,000 mm 0,0 UV-I 0 W/m² 15,5 °C 18,1 °C 9,7 km/h (2 Bft)
12.06.2018 15:17 17,9 °C 85 % 1004,8 hPa 0,2 mm 4,3 km/h (1 Bft) W 260 ° 0 min 0,000 mm 0,0 UV-I 0 W/m² 15,3 °C 17,9 °C 6,4 km/h (2 Bft)
12.06.2018 15:18 17,8 °C 86 % 1004,8 hPa 0,0 mm 5,5 km/h (1 Bft) NW 325 ° 0 min 0,000 mm 0,0 UV-I 0 W/m² 15,4 °C 17,8 °C 11,3 km/h (2 Bft)
12.06.2018 15:19 17,7 °C 86 % 1004,8 hPa 0,0 mm 4,9 km/h (1 Bft) W 276 ° 0 min 0,000 mm 0,0 UV-I 0 W/m² 15,3 °C 17,7 °C 8,0 km/h (2 Bft)
12.06.2018 15:20 17,6 °C 87 % 1004,9 hPa 0,0 mm 10,9 km/h (2 Bft) W 266 ° 0 min 0,000 mm 0,0 UV-I 0 W/m² 15,4 °C 17,6 °C 14,5 km/h (3 Bft)
12.06.2018 15:21 17,5 °C 88 % 1004,9 hPa 0,2 mm 9,5 km/h (2 Bft) W-SW 243 ° 0 min 0,000 mm 0,0 UV-I 0 W/m² 15,5 °C 17,5 °C 14,5 km/h (3 Bft)
12.06.2018 15:22 17,4 °C 88 % 1004,9 hPa 0,0 mm 4,0 km/h (1 Bft) W 261 ° 0 min 0,000 mm 0,0 UV-I 0 W/m² 15,4 °C 17,4 °C 9,7 km/h (2 Bft)
12.06.2018 15:23 17,3 °C 88 % 1004,9 hPa 0,0 mm 3,5 km/h (1 Bft) W 269 ° 0 min 0,000 mm 0,0 UV-I 0 W/m² 15,3 °C 17,3 °C 6,4 km/h (2 Bft)
12.06.2018 15:24 17,2 °C 89 % 1005,0 hPa 0,0 mm 7,4 km/h (2 Bft) SW 218 ° 0 min 0,000 mm 0,0 UV-I 0 W/m² 15,4 °C 17,2 °C 11,3 km/h (2 Bft)
12.06.2018 15:25 17,2 °C 89 % 1004,9 hPa 0,0 mm 2,2 km/h (1 Bft) W-SW 244 ° 0 min 0,000 mm 0,0 UV-I 5 W/m² 15,4 °C 17,2 °C 3,2 km/h (1 Bft)
12.06.2018 15:26 17,1 °C 89 % 1004,9 hPa 0,0 mm 3,3 km/h (1 Bft) W 269 ° 0 min 0,000 mm 0,0 UV-I 5 W/m² 15,3 °C 17,1 °C 9,7 km/h (2 Bft)
12.06.2018 15:27 17,0 °C 89 % 1004,8 hPa 0,0 mm 0,6 km/h (0 Bft) W 273 ° 0 min 0,000 mm 0,0 UV-I 5 W/m² 15,2 °C 17,0 °C 3,2 km/h (1 Bft)
12.06.2018 15:28 16,9 °C 89 % 1004,9 hPa 0,0 mm 1,7 km/h (1 Bft) S 181 ° 0 min 0,000 mm 0,0 UV-I 5 W/m² 15,1 °C 16,9 °C 3,2 km/h (1 Bft)
12.06.2018 15:29 16,8 °C 89 % 1004,9 hPa 0,0 mm 0,5 km/h (0 Bft) W-SW 239 ° 0 min 0,000 mm 0,0 UV-I 5 W/m² 15,0 °C 16,8 °C 3,2 km/h (1 Bft)
12.06.2018 15:30 16,8 °C 90 % 1004,8 hPa 0,0 mm 1,7 km/h (1 Bft) SW 221 ° 0 min 0,000 mm 0,0 UV-I 5 W/m² 15,1 °C 16,8 °C 4,8 km/h (1 Bft)
12.06.2018 15:31 16,8 °C 90 % 1004,9 hPa 0,2 mm 3,8 km/h (1 Bft) S-SW 211 ° 0 min 0,000 mm 0,0 UV-I 5 W/m² 15,1 °C 16,8 °C 4,8 km/h (1 Bft)
12.06.2018 15:32 16,7 °C 90 % 1004,9 hPa 0,2 mm 4,7 km/h (1 Bft) W 265 ° 0 min 0,000 mm 0,0 UV-I 5 W/m² 15,0 °C 16,7 °C 11,3 km/h (2 Bft)
12.06.2018 15:33 16,7 °C 90 % 1004,9 hPa 0,4 mm 4,2 km/h (1 Bft) S-SW 200 ° 0 min 0,000 mm 0,0 UV-I 5 W/m² 15,0 °C 16,7 °C 4,8 km/h (1 Bft)
12.06.2018 15:34 16,7 °C 90 % 1004,9 hPa 0,6 mm 3,1 km/h (1 Bft) S 177 ° 0 min 0,000 mm 0,0 UV-I 5 W/m² 15,0 °C 16,7 °C 4,8 km/h (1 Bft)
12.06.2018 15:35 16,6 °C 90 % 1004,9 hPa 0,2 mm 6,1 km/h (2 Bft) S-SW 201 ° 0 min 0,000 mm 0,0 UV-I 5 W/m² 15,0 °C 16,6 °C 9,7 km/h (2 Bft)
12.06.2018 15:36 16,6 °C 90 % 1004,8 hPa 0,2 mm 6,2 km/h (2 Bft) S-SW 194 ° 0 min 0,000 mm 0,0 UV-I 5 W/m² 15,0 °C 16,6 °C 8,0 km/h (2 Bft)
12.06.2018 15:37 16,6 °C 90 % 1004,9 hPa 0,0 mm 6,3 km/h (2 Bft) S 179 ° 0 min 0,000 mm 0,0 UV-I 5 W/m² 15,0 °C 16,6 °C 11,3 km/h (2 Bft)
12.06.2018 15:38 16,5 °C 90 % 1004,9 hPa 0,0 mm 1,6 km/h (1 Bft) S 179 ° 0 min 0,000 mm 0,0 UV-I 5 W/m² 14,9 °C 16,5 °C 3,2 km/h (1 Bft)
12.06.2018 15:39 16,4 °C 90 % 1004,9 hPa 0,0 mm 3,5 km/h (1 Bft) S 190 ° 0 min 0,000 mm 0,0 UV-I 5 W/m² 14,8 °C 16,4 °C 8,0 km/h (2 Bft)
12.06.2018 15:40 16,4 °C 91 % 1004,9 hPa 0,0 mm 3,8 km/h (1 Bft) S 191 ° 0 min 0,000 mm 0,0 UV-I 7 W/m² 14,9 °C 16,4 °C 4,8 km/h (1 Bft)
12.06.2018 15:41 16,4 °C 91 % 1004,9 hPa 0,0 mm 4,2 km/h (1 Bft) S-SW 199 ° 0 min 0,000 mm 0,0 UV-I 7 W/m² 14,9 °C 16,4 °C 8,0 km/h (2 Bft)
12.06.2018 15:42 16,4 °C 91 % 1004,9 hPa 0,2 mm 2,0 km/h (1 Bft) S 189 ° 0 min 0,000 mm 0,0 UV-I 7 W/m² 14,9 °C 16,4 °C 4,8 km/h (1 Bft)
12.06.2018 15:43 16,3 °C 91 % 1004,9 hPa 0,0 mm 1,0 km/h (0 Bft) S 189 ° 0 min 0,000 mm 0,0 UV-I 7 W/m² 14,8 °C 16,3 °C 3,2 km/h (1 Bft)
12.06.2018 15:44 16,3 °C 91 % 1004,9 hPa 0,0 mm 0,2 km/h (0 Bft) S 189 ° 0 min 0,000 mm 0,0 UV-I 7 W/m² 14,8 °C 16,3 °C 1,6 km/h (1 Bft)
12.06.2018 15:45 16,2 °C 91 % 1004,9 hPa 0,0 mm 0,1 km/h (0 Bft) S 189 ° 0 min 0,000 mm 0,0 UV-I 7 W/m² 14,7 °C 16,2 °C 1,6 km/h (1 Bft)
12.06.2018 15:46 16,2 °C 92 % 1004,9 hPa 0,0 mm 0,0 km/h (0 Bft) S 189 ° 0 min 0,000 mm 0,0 UV-I 7 W/m² 14,9 °C 16,2 °C 0,0 km/h (0 Bft)
12.06.2018 15:47 16,2 °C 92 % 1005,0 hPa 0,0 mm 0,1 km/h (0 Bft) S 189 ° 0 min 0,000 mm 0,0 UV-I 7 W/m² 14,9 °C 16,2 °C 1,6 km/h (1 Bft)
12.06.2018 15:48 16,2 °C 92 % 1005,0 hPa 0,0 mm 2,3 km/h (1 Bft) S 189 ° 0 min 0,000 mm 0,0 UV-I 7 W/m² 14,9 °C 16,2 °C 3,2 km/h (1 Bft)
12.06.2018 15:49 16,2 °C 92 % 1005,0 hPa 0,0 mm 1,5 km/h (1 Bft) S 189 ° 0 min 0,000 mm 0,0 UV-I 9 W/m² 14,9 °C 16,2 °C 3,2 km/h (1 Bft)
12.06.2018 15:50 16,1 °C 92 % 1005,1 hPa 0,0 mm 0,1 km/h (0 Bft) S 189 ° 0 min 0,000 mm 0,0 UV-I 9 W/m² 14,8 °C 16,1 °C 1,6 km/h (1 Bft)
12.06.2018 15:51 16,1 °C 92 % 1005,1 hPa 0,0 mm 1,7 km/h (1 Bft) S 189 ° 0 min 0,000 mm 0,0 UV-I 9 W/m² 14,8 °C 16,1 °C 3,2 km/h (1 Bft)
12.06.2018 15:52 16,1 °C 92 % 1005,1 hPa 0,0 mm 0,0 km/h (0 Bft) S 189 ° 0 min 0,000 mm 0,0 UV-I 9 W/m² 14,8 °C 16,1 °C 0,0 km/h (0 Bft)
12.06.2018 15:53 16,1 °C 92 % 1005,1 hPa 0,2 mm 0,7 km/h (0 Bft) S 189 ° 0 min 0,000 mm 0,0 UV-I 9 W/m² 14,8 °C 16,1 °C 1,6 km/h (1 Bft)
12.06.2018 15:54 16,1 °C 92 % 1005,2 hPa 0,0 mm 0,0 km/h (0 Bft) S 189 ° 0 min 0,000 mm 0,0 UV-I 9 W/m² 14,8 °C 16,1 °C 0,0 km/h (0 Bft)
12.06.2018 15:55 16,1 °C 92 % 1005,2 hPa 0,0 mm 0,0 km/h (0 Bft) S 189 ° 0 min 0,000 mm 0,0 UV-I 9 W/m² 14,8 °C 16,1 °C 0,0 km/h (0 Bft)
12.06.2018 15:56 16,1 °C 92 % 1005,1 hPa 0,0 mm 0,0 km/h (0 Bft) S 189 ° 0 min 0,000 mm 0,0 UV-I 9 W/m² 14,8 °C 16,1 °C 0,0 km/h (0 Bft)
12.06.2018 15:57 16,1 °C 92 % 1005,2 hPa 0,0 mm 0,0 km/h (0 Bft) S 189 ° 0 min 0,000 mm 0,0 UV-I 9 W/m² 14,8 °C 16,1 °C 0,0 km/h (0 Bft)
12.06.2018 15:58 16,1 °C 92 % 1005,2 hPa 0,0 mm 0,0 km/h (0 Bft) S 189 ° 0 min 0,000 mm 0,0 UV-I 9 W/m² 14,8 °C 16,1 °C 0,0 km/h (0 Bft)
12.06.2018 15:59 16,0 °C 93 % 1005,3 hPa 0,0 mm 0,0 km/h (0 Bft) S 189 ° 0 min 0,000 mm 0,0 UV-I 9 W/m² 14,9 °C 16,0 °C 0,0 km/h (0 Bft)
12.06.2018 16:00 16,1 °C 93 % 1005,3 hPa 0,0 mm 0,0 km/h (0 Bft) S 189 ° 0 min 0,000 mm 0,0 UV-I 9 W/m² 15,0 °C 16,1 °C 0,0 km/h (0 Bft)
12.06.2018 16:01 16,0 °C 93 % 1005,3 hPa 0,0 mm 0,0 km/h (0 Bft) S 189 ° 0 min 0,000 mm 0,0 UV-I 9 W/m² 14,9 °C 16,0 °C 0,0 km/h (0 Bft)
12.06.2018 16:02 16,1 °C 93 % 1005,3 hPa 0,0 mm 0,0 km/h (0 Bft) S 189 ° 0 min 0,000 mm 0,0 UV-I 9 W/m² 15,0 °C 16,1 °C 0,0 km/h (0 Bft)
12.06.2018 16:03 16,1 °C 93 % 1005,3 hPa 0,2 mm 0,0 km/h (0 Bft) S 189 ° 0 min 0,000 mm 0,0 UV-I 9 W/m² 15,0 °C 16,1 °C 0,0 km/h (0 Bft)
12.06.2018 16:04 16,0 °C 93 % 1005,2 hPa 0,0 mm 4,1 km/h (1 Bft) S 175 ° 0 min 0,000 mm 0,0 UV-I 9 W/m² 14,9 °C 16,0 °C 8,0 km/h (2 Bft)
12.06.2018 16:05 16,0 °C 93 % 1005,2 hPa 0,0 mm 3,1 km/h (1 Bft) S 169 ° 0 min 0,000 mm 0,0 UV-I 11 W/m² 14,9 °C 16,0 °C 6,4 km/h (2 Bft)
12.06.2018 16:06 16,0 °C 93 % 1005,2 hPa 0,2 mm 5,0 km/h (1 Bft) S 169 ° 0 min 0,000 mm 0,0 UV-I 11 W/m² 14,9 °C 16,0 °C 6,4 km/h (2 Bft)
12.06.2018 16:07 16,0 °C 93 % 1005,1 hPa 0,0 mm 1,7 km/h (1 Bft) S 169 ° 0 min 0,000 mm 0,0 UV-I 11 W/m² 14,9 °C 16,0 °C 6,4 km/h (2 Bft)
12.06.2018 16:08 16,0 °C 93 % 1005,1 hPa 0,0 mm 3,1 km/h (1 Bft) S 169 ° 0 min 0,000 mm 0,0 UV-I 11 W/m² 14,9 °C 16,0 °C 6,4 km/h (2 Bft)
12.06.2018 16:09 16,0 °C 93 % 1005,1 hPa 0,2 mm 6,1 km/h (2 Bft) S-SW 195 ° 0 min 0,000 mm 0,0 UV-I 12 W/m² 14,9 °C 16,0 °C 8,0 km/h (2 Bft)
12.06.2018 16:10 16,0 °C 93 % 1005,2 hPa 0,0 mm 4,2 km/h (1 Bft) S 190 ° 0 min 0,000 mm 0,0 UV-I 12 W/m² 14,9 °C 16,0 °C 6,4 km/h (2 Bft)
12.06.2018 16:11 16,0 °C 93 % 1005,2 hPa 0,0 mm 1,7 km/h (1 Bft) S 190 ° 0 min 0,000 mm 0,0 UV-I 12 W/m² 14,9 °C 16,0 °C 4,8 km/h (1 Bft)
12.06.2018 16:12 16,0 °C 93 % 1005,2 hPa 0,0 mm 4,2 km/h (1 Bft) S-SW 194 ° 0 min 0,000 mm 0,0 UV-I 12 W/m² 14,9 °C 16,0 °C 6,4 km/h (2 Bft)
12.06.2018 16:13 16,0 °C 93 % 1005,2 hPa 0,2 mm 3,9 km/h (1 Bft) S-SW 193 ° 0 min 0,000 mm 0,0 UV-I 12 W/m² 14,9 °C 16,0 °C 6,4 km/h (2 Bft)
12.06.2018 16:14 15,9 °C 93 % 1005,2 hPa 0,0 mm 5,8 km/h (2 Bft) S 173 ° 0 min 0,000 mm 0,0 UV-I 12 W/m² 14,8 °C 15,9 °C 9,7 km/h (2 Bft)
12.06.2018 16:15 15,9 °C 93 % 1005,2 hPa 0,0 mm 5,1 km/h (1 Bft) S-SO 167 ° 0 min 0,000 mm 0,0 UV-I 12 W/m² 14,8 °C 15,9 °C 9,7 km/h (2 Bft)
12.06.2018 16:16 15,9 °C 93 % 1005,3 hPa 0,0 mm 3,0 km/h (1 Bft) S-SO 168 ° 0 min 0,000 mm 0,0 UV-I 14 W/m² 14,8 °C 15,9 °C 8,0 km/h (2 Bft)
12.06.2018 16:17 15,9 °C 93 % 1005,2 hPa 0,2 mm 2,8 km/h (1 Bft) S-SO 168 ° 0 min 0,000 mm 0,0 UV-I 14 W/m² 14,8 °C 15,9 °C 8,0 km/h (2 Bft)
12.06.2018 16:18 15,9 °C 93 % 1005,2 hPa 0,0 mm 0,9 km/h (0 Bft) S-SO 168 ° 0 min 0,000 mm 0,0 UV-I 14 W/m² 14,8 °C 15,9 °C 3,2 km/h (1 Bft)
12.06.2018 16:19 15,9 °C 93 % 1005,3 hPa 0,0 mm 0,0 km/h (0 Bft) S-SO 168 ° 0 min 0,000 mm 0,0 UV-I 14 W/m² 14,8 °C 15,9 °C 0,0 km/h (0 Bft)
12.06.2018 16:20 15,9 °C 93 % 1005,3 hPa 0,0 mm 5,4 km/h (1 Bft) S-SO 155 ° 0 min 0,000 mm 0,0 UV-I 14 W/m² 14,8 °C 15,9 °C 9,7 km/h (2 Bft)
12.06.2018 16:21 15,9 °C 93 % 1005,2 hPa 0,0 mm 4,0 km/h (1 Bft) S-SO 165 ° 0 min 0,000 mm 0,0 UV-I 14 W/m² 14,8 °C 15,9 °C 8,0 km/h (2 Bft)
12.06.2018 16:22 15,9 °C 93 % 1005,2 hPa 0,2 mm 1,3 km/h (1 Bft) S-SO 165 ° 0 min 0,000 mm 0,0 UV-I 16 W/m² 14,8 °C 15,9 °C 3,2 km/h (1 Bft)
12.06.2018 16:23 15,9 °C 93 % 1005,2 hPa 0,0 mm 1,1 km/h (1 Bft) SW 227 ° 0 min 0,000 mm 0,0 UV-I 16 W/m² 14,8 °C 15,9 °C 4,8 km/h (1 Bft)
12.06.2018 16:24 15,9 °C 93 % 1005,2 hPa 0,0 mm 0,7 km/h (0 Bft) SW 226 ° 0 min 0,000 mm 0,0 UV-I 16 W/m² 14,8 °C 15,9 °C 3,2 km/h (1 Bft)
12.06.2018 16:25 15,9 °C 93 % 1005,2 hPa 0,0 mm 1,5 km/h (1 Bft) S-SW 204 ° 0 min 0,000 mm 0,0 UV-I 16 W/m² 14,8 °C 15,9 °C 4,8 km/h (1 Bft)
12.06.2018 16:26 15,9 °C 93 % 1005,2 hPa 0,0 mm 0,9 km/h (0 Bft) S-SW 204 ° 0 min 0,000 mm 0,0 UV-I 16 W/m² 14,8 °C 15,9 °C 3,2 km/h (1 Bft)
12.06.2018 16:27 15,9 °C 93 % 1005,2 hPa 0,2 mm 1,6 km/h (1 Bft) S-SW 204 ° 0 min 0,000 mm 0,0 UV-I 16 W/m² 14,8 °C 15,9 °C 3,2 km/h (1 Bft)
12.06.2018 16:28 15,9 °C 93 % 1005,2 hPa 0,0 mm 2,1 km/h (1 Bft) S-SW 203 ° 0 min 0,000 mm 0,0 UV-I 16 W/m² 14,8 °C 15,9 °C 4,8 km/h (1 Bft)
12.06.2018 16:29 15,8 °C 93 % 1005,2 hPa 0,0 mm 0,5 km/h (0 Bft) S 186 ° 0 min 0,000 mm 0,0 UV-I 16 W/m² 14,7 °C 15,8 °C 3,2 km/h (1 Bft)
12.06.2018 16:30 15,7 °C 93 % 1005,2 hPa 0,0 mm 1,9 km/h (1 Bft) S 169 ° 0 min 0,000 mm 0,0 UV-I 16 W/m² 14,6 °C 15,7 °C 6,4 km/h (2 Bft)
12.06.2018 16:31 15,7 °C 92 % 1005,1 hPa 0,0 mm 0,6 km/h (0 Bft) S-SW 205 ° 0 min 0,000 mm 0,0 UV-I 16 W/m² 14,4 °C 15,7 °C 1,6 km/h (1 Bft)
12.06.2018 16:32 15,4 °C 92 % 1005,2 hPa 0,2 mm 3,2 km/h (1 Bft) S-SW 198 ° 0 min 0,000 mm 0,0 UV-I 16 W/m² 14,1 °C 15,4 °C 6,4 km/h (2 Bft)
12.06.2018 16:33 15,3 °C 92 % 1005,2 hPa 0,0 mm 1,5 km/h (1 Bft) S-SW 198 ° 0 min 0,000 mm 0,0 UV-I 18 W/m² 14,0 °C 15,3 °C 4,8 km/h (1 Bft)
12.06.2018 16:34 15,1 °C 92 % 1005,2 hPa 0,0 mm 0,7 km/h (0 Bft) S-SW 204 ° 0 min 0,000 mm 0,0 UV-I 18 W/m² 13,8 °C 15,1 °C 3,2 km/h (1 Bft)
12.06.2018 16:35 15,0 °C 92 % 1005,2 hPa 0,0 mm 1,8 km/h (1 Bft) S-SO 159 ° 0 min 0,000 mm 0,0 UV-I 18 W/m² 13,7 °C 15,0 °C 6,4 km/h (2 Bft)
12.06.2018 16:36 14,9 °C 92 % 1005,2 hPa 0,2 mm 0,1 km/h (0 Bft) S-SO 159 ° 0 min 0,000 mm 0,0 UV-I 18 W/m² 13,6 °C 14,9 °C 1,6 km/h (1 Bft)
12.06.2018 16:37 14,8 °C 92 % 1005,3 hPa 0,0 mm 0,9 km/h (0 Bft) W-SW 247 ° 0 min 0,000 mm 0,0 UV-I 18 W/m² 13,5 °C 14,8 °C 6,4 km/h (2 Bft)
12.06.2018 16:38 14,7 °C 92 % 1005,3 hPa 0,0 mm 1,0 km/h (0 Bft) SW 223 ° 0 min 0,000 mm 0,0 UV-I 19 W/m² 13,4 °C 14,7 °C 4,8 km/h (1 Bft)
12.06.2018 16:39 14,7 °C 92 % 1005,4 hPa 0,0 mm 0,5 km/h (0 Bft) SW 223 ° 0 min 0,000 mm 0,0 UV-I 19 W/m² 13,4 °C 14,7 °C 1,6 km/h (1 Bft)
12.06.2018 16:40 14,6 °C 92 % 1005,3 hPa 0,2 mm 0,8 km/h (0 Bft) SW 223 ° 0 min 0,000 mm 0,0 UV-I 19 W/m² 13,3 °C 14,6 °C 3,2 km/h (1 Bft)
12.06.2018 16:41 14,4 °C 92 % 1005,3 hPa 0,0 mm 1,7 km/h (1 Bft) SW 223 ° 0 min 0,000 mm 0,0 UV-I 19 W/m² 13,1 °C 14,4 °C 3,2 km/h (1 Bft)
12.06.2018 16:42 14,4 °C 92 % 1005,5 hPa 0,0 mm 3,1 km/h (1 Bft) W-SW 238 ° 0 min 0,000 mm 0,0 UV-I 19 W/m² 13,1 °C 14,4 °C 4,8 km/h (1 Bft)
12.06.2018 16:43 14,3 °C 92 % 1005,5 hPa 0,0 mm 3,8 km/h (1 Bft) W-SW 254 ° 0 min 0,000 mm 0,0 UV-I 19 W/m² 13,0 °C 14,3 °C 8,0 km/h (2 Bft)
12.06.2018 16:44 14,3 °C 92 % 1005,5 hPa 0,0 mm 4,3 km/h (1 Bft) SW 225 ° 0 min 0,000 mm 0,0 UV-I 19 W/m² 13,0 °C 14,3 °C 6,4 km/h (2 Bft)
12.06.2018 16:45 14,2 °C 92 % 1005,5 hPa 0,0 mm 0,6 km/h (0 Bft) SW 225 ° 0 min 0,000 mm 0,0 UV-I 19 W/m² 12,9 °C 14,2 °C 1,6 km/h (1 Bft)
12.06.2018 16:46 14,2 °C 92 % 1005,5 hPa 0,2 mm 2,8 km/h (1 Bft) W-SW 250 ° 0 min 0,000 mm 0,0 UV-I 19 W/m² 12,9 °C 14,2 °C 4,8 km/h (1 Bft)
12.06.2018 16:47 14,1 °C 92 % 1005,5 hPa 0,0 mm 1,6 km/h (1 Bft) W-SW 250 ° 0 min 0,000 mm 0,0 UV-I 19 W/m² 12,8 °C 14,1 °C 3,2 km/h (1 Bft)
12.06.2018 16:48 14,1 °C 92 % 1005,6 hPa 0,0 mm 0,9 km/h (0 Bft) W-SW 250 ° 0 min 0,000 mm 0,0 UV-I 19 W/m² 12,8 °C 14,1 °C 3,2 km/h (1 Bft)
12.06.2018 16:49 14,1 °C 92 % 1005,5 hPa 0,0 mm 0,2 km/h (0 Bft) W-SW 250 ° 0 min 0,000 mm 0,0 UV-I 19 W/m² 12,8 °C 14,1 °C 1,6 km/h (1 Bft)
12.06.2018 16:50 14,1 °C 93 % 1005,6 hPa 0,0 mm 0,4 km/h (0 Bft) W-SW 250 ° 0 min 0,000 mm 0,0 UV-I 19 W/m² 13,0 °C 14,1 °C 1,6 km/h (1 Bft)
12.06.2018 16:51 14,1 °C 93 % 1005,5 hPa 0,0 mm 0,0 km/h (0 Bft) W-SW 250 ° 0 min 0,000 mm 0,0 UV-I 18 W/m² 13,0 °C 14,1 °C 0,0 km/h (0 Bft)
12.06.2018 16:52 14,0 °C 93 % 1005,5 hPa 0,0 mm 0,0 km/h (0 Bft) W-SW 250 ° 0 min 0,000 mm 0,0 UV-I 16 W/m² 12,9 °C 14,0 °C 0,0 km/h (0 Bft)
12.06.2018 16:53 14,1 °C 93 % 1005,6 hPa 0,2 mm 0,0 km/h (0 Bft) W-SW 250 ° 0 min 0,000 mm 0,0 UV-I 16 W/m² 13,0 °C 14,1 °C 0,0 km/h (0 Bft)
12.06.2018 16:54 14,0 °C 93 % 1005,6 hPa 0,0 mm 0,0 km/h (0 Bft) W-SW 250 ° 0 min 0,000 mm 0,0 UV-I 14 W/m² 12,9 °C 14,0 °C 0,0 km/h (0 Bft)
12.06.2018 16:55 14,0 °C 93 % 1005,6 hPa 0,0 mm 0,5 km/h (0 Bft) W-SW 253 ° 0 min 0,000 mm 0,0 UV-I 12 W/m² 12,9 °C 14,0 °C 1,6 km/h (1 Bft)
12.06.2018 16:56 14,0 °C 93 % 1005,7 hPa 0,0 mm 0,5 km/h (0 Bft) W-SW 252 ° 0 min 0,000 mm 0,0 UV-I 12 W/m² 12,9 °C 14,0 °C 1,6 km/h (1 Bft)
12.06.2018 16:57 14,0 °C 93 % 1005,7 hPa 0,0 mm 0,2 km/h (0 Bft) W-SW 254 ° 0 min 0,000 mm 0,0 UV-I 11 W/m² 12,9 °C 14,0 °C 1,6 km/h (1 Bft)
12.06.2018 16:58 14,0 °C 93 % 1005,7 hPa 0,2 mm 0,9 km/h (0 Bft) W-SW 255 ° 0 min 0,000 mm 0,0 UV-I 11 W/m² 12,9 °C 14,0 °C 3,2 km/h (1 Bft)
12.06.2018 16:59 13,9 °C 93 % 1005,6 hPa 0,0 mm 0,3 km/h (0 Bft) W-SW 255 ° 0 min 0,000 mm 0,0 UV-I 11 W/m² 12,8 °C 13,9 °C 1,6 km/h (1 Bft)
12.06.2018 17:00 13,9 °C 93 % 1005,6 hPa 0,2 mm 0,0 km/h (0 Bft) W-SW 255 ° 0 min 0,000 mm 0,0 UV-I 11 W/m² 12,8 °C 13,9 °C 0,0 km/h (0 Bft)
12.06.2018 17:01 13,9 °C 93 % 1005,7 hPa 0,0 mm 0,7 km/h (0 Bft) W-SW 255 ° 0 min 0,000 mm 0,0 UV-I 12 W/m² 12,8 °C 13,9 °C 3,2 km/h (1 Bft)
12.06.2018 17:02 13,9 °C 93 % 1005,6 hPa 0,2 mm 0,8 km/h (0 Bft) SW 225 ° 0 min 0,000 mm 0,0 UV-I 12 W/m² 12,8 °C 13,9 °C 1,6 km/h (1 Bft)
12.06.2018 17:03 13,8 °C 93 % 1005,6 hPa 0,0 mm 1,5 km/h (1 Bft) O 84 ° 0 min 0,000 mm 0,0 UV-I 14 W/m² 12,7 °C 13,8 °C 3,2 km/h (1 Bft)
12.06.2018 17:04 13,8 °C 93 % 1005,6 hPa 0,2 mm 0,5 km/h (0 Bft) O 81 ° 0 min 0,000 mm 0,0 UV-I 14 W/m² 12,7 °C 13,8 °C 3,2 km/h (1 Bft)
12.06.2018 17:05 13,8 °C 93 % 1005,6 hPa 0,0 mm 0,7 km/h (0 Bft) O 81 ° 0 min 0,000 mm 0,0 UV-I 16 W/m² 12,7 °C 13,8 °C 3,2 km/h (1 Bft)
12.06.2018 17:06 13,8 °C 93 % 1005,6 hPa 0,2 mm 1,1 km/h (1 Bft) O 81 ° 0 min 0,000 mm 0,0 UV-I 18 W/m² 12,7 °C 13,8 °C 3,2 km/h (1 Bft)
12.06.2018 17:07 13,8 °C 93 % 1005,6 hPa 0,0 mm 0,4 km/h (0 Bft) O 81 ° 0 min 0,000 mm 0,0 UV-I 19 W/m² 12,7 °C 13,8 °C 1,6 km/h (1 Bft)
12.06.2018 17:08 13,8 °C 93 % 1005,6 hPa 0,0 mm 0,0 km/h (0 Bft) O 81 ° 0 min 0,000 mm 0,0 UV-I 21 W/m² 12,7 °C 13,8 °C 0,0 km/h (0 Bft)
12.06.2018 17:09 13,8 °C 93 % 1005,6 hPa 0,2 mm 0,8 km/h (0 Bft) O 81 ° 0 min 0,000 mm 0,0 UV-I 21 W/m² 12,7 °C 13,8 °C 3,2 km/h (1 Bft)
12.06.2018 17:10 13,8 °C 93 % 1005,6 hPa 0,0 mm 1,6 km/h (1 Bft) O 82 ° 0 min 0,000 mm 0,0 UV-I 23 W/m² 12,7 °C 13,8 °C 3,2 km/h (1 Bft)
12.06.2018 17:11 13,8 °C 93 % 1005,5 hPa 0,0 mm 3,7 km/h (1 Bft) O-NO 71 ° 0 min 0,000 mm 0,0 UV-I 23 W/m² 12,7 °C 13,8 °C 6,4 km/h (2 Bft)
12.06.2018 17:12 13,8 °C 93 % 1005,5 hPa 0,0 mm 2,3 km/h (1 Bft) O-SO 105 ° 0 min 0,000 mm 0,0 UV-I 23 W/m² 12,7 °C 13,8 °C 4,8 km/h (1 Bft)
12.06.2018 17:13 13,8 °C 93 % 1005,5 hPa 0,2 mm 0,1 km/h (0 Bft) O-SO 105 ° 0 min 0,000 mm 0,0 UV-I 23 W/m² 12,7 °C 13,8 °C 1,6 km/h (1 Bft)
12.06.2018 17:14 13,8 °C 93 % 1005,5 hPa 0,0 mm 0,0 km/h (0 Bft) O-SO 105 ° 0 min 0,000 mm 0,0 UV-I 23 W/m² 12,7 °C 13,8 °C 0,0 km/h (0 Bft)
12.06.2018 17:15 13,8 °C 93 % 1005,5 hPa 0,0 mm 0,1 km/h (0 Bft) O-SO 105 ° 0 min 0,000 mm 0,0 UV-I 23 W/m² 12,7 °C 13,8 °C 1,6 km/h (1 Bft)
12.06.2018 17:16 13,7 °C 93 % 1005,5 hPa 0,0 mm 0,1 km/h (0 Bft) O-SO 105 ° 0 min 0,000 mm 0,0 UV-I 23 W/m² 12,6 °C 13,7 °C 1,6 km/h (1 Bft)
12.06.2018 17:17 13,7 °C 93 % 1005,6 hPa 0,0 mm 1,0 km/h (0 Bft) O-SO 105 ° 0 min 0,000 mm 0,0 UV-I 23 W/m² 12,6 °C 13,7 °C 3,2 km/h (1 Bft)
12.06.2018 17:18 13,7 °C 93 % 1005,6 hPa 0,0 mm 1,1 km/h (1 Bft) NO 46 ° 0 min 0,000 mm 0,0 UV-I 21 W/m² 12,6 °C 13,7 °C 4,8 km/h (1 Bft)
12.06.2018 17:19 13,7 °C 93 % 1005,6 hPa 0,0 mm 0,9 km/h (0 Bft) NO 46 ° 0 min 0,000 mm 0,0 UV-I 21 W/m² 12,6 °C 13,7 °C 4,8 km/h (1 Bft)
12.06.2018 17:20 13,7 °C 93 % 1005,6 hPa 0,0 mm 1,2 km/h (1 Bft) NO 46 ° 0 min 0,000 mm 0,0 UV-I 21 W/m² 12,6 °C 13,7 °C 4,8 km/h (1 Bft)
12.06.2018 17:21 13,7 °C 93 % 1005,6 hPa 0,0 mm 3,0 km/h (1 Bft) O-NO 69 ° 0 min 0,000 mm 0,0 UV-I 21 W/m² 12,6 °C 13,7 °C 4,8 km/h (1 Bft)
12.06.2018 17:22 13,6 °C 93 % 1005,6 hPa 0,0 mm 4,8 km/h (1 Bft) W-SW 244 ° 0 min 0,000 mm 0,0 UV-I 21 W/m² 12,5 °C 13,6 °C 8,0 km/h (2 Bft)
12.06.2018 17:23 13,6 °C 93 % 1005,6 hPa 0,0 mm 4,0 km/h (1 Bft) W 267 ° 0 min 0,000 mm 0,0 UV-I 19 W/m² 12,5 °C 13,6 °C 8,0 km/h (2 Bft)
12.06.2018 17:24 13,6 °C 93 % 1005,6 hPa 0,0 mm 0,4 km/h (0 Bft) W 267 ° 0 min 0,000 mm 0,0 UV-I 18 W/m² 12,5 °C 13,6 °C 3,2 km/h (1 Bft)
12.06.2018 17:25 13,6 °C 93 % 1005,6 hPa 0,2 mm 0,0 km/h (0 Bft) W-NW 288 ° 0 min 0,000 mm 0,0 UV-I 16 W/m² 12,5 °C 13,6 °C 0,0 km/h (0 Bft)
12.06.2018 17:26 13,6 °C 93 % 1005,6 hPa 0,0 mm 0,0 km/h (0 Bft) W-NW 292 ° 0 min 0,000 mm 0,0 UV-I 14 W/m² 12,5 °C 13,6 °C 0,0 km/h (0 Bft)
12.06.2018 17:27 13,6 °C 93 % 1005,6 hPa 0,0 mm 0,0 km/h (0 Bft) W-NW 292 ° 0 min 0,000 mm 0,0 UV-I 14 W/m² 12,5 °C 13,6 °C 0,0 km/h (0 Bft)
12.06.2018 17:28 13,5 °C 93 % 1005,6 hPa 0,0 mm 0,0 km/h (0 Bft) W-NW 292 ° 0 min 0,000 mm 0,0 UV-I 14 W/m² 12,4 °C 13,5 °C 0,0 km/h (0 Bft)
12.06.2018 17:29 13,5 °C 93 % 1005,6 hPa 0,0 mm 0,0 km/h (0 Bft) W-NW 292 ° 0 min 0,000 mm 0,0 UV-I 14 W/m² 12,4 °C 13,5 °C 0,0 km/h (0 Bft)
12.06.2018 17:30 13,5 °C 93 % 1005,6 hPa 0,0 mm 0,0 km/h (0 Bft) W-NW 292 ° 0 min 0,000 mm 0,0 UV-I 14 W/m² 12,4 °C 13,5 °C 0,0 km/h (0 Bft)
12.06.2018 17:31 13,4 °C 93 % 1005,6 hPa 0,0 mm 0,0 km/h (0 Bft) W-NW 292 ° 0 min 0,000 mm 0,0 UV-I 14 W/m² 12,3 °C 13,4 °C 0,0 km/h (0 Bft)
12.06.2018 17:32 13,5 °C 93 % 1005,6 hPa 0,0 mm 0,0 km/h (0 Bft) W-NW 292 ° 0 min 0,000 mm 0,0 UV-I 14 W/m² 12,4 °C 13,5 °C 0,0 km/h (0 Bft)
12.06.2018 17:33 13,5 °C 93 % 1005,5 hPa 0,0 mm 0,0 km/h (0 Bft) W-NW 292 ° 0 min 0,000 mm 0,0 UV-I 14 W/m² 12,4 °C 13,5 °C 0,0 km/h (0 Bft)
12.06.2018 17:34 13,5 °C 94 % 1005,5 hPa 0,0 mm 0,0 km/h (0 Bft) W-NW 292 ° 0 min 0,000 mm 0,0 UV-I 14 W/m² 12,6 °C 13,5 °C 0,0 km/h (0 Bft)
12.06.2018 17:35 13,4 °C 94 % 1005,5 hPa 0,0 mm 0,0 km/h (0 Bft) W-NW 292 ° 0 min 0,000 mm 0,0 UV-I 14 W/m² 12,5 °C 13,4 °C 0,0 km/h (0 Bft)
12.06.2018 17:36 13,4 °C 93 % 1005,5 hPa 0,0 mm 0,0 km/h (0 Bft) W-NW 292 ° 0 min 0,000 mm 0,0 UV-I 14 W/m² 12,3 °C 13,4 °C 0,0 km/h (0 Bft)
12.06.2018 17:37 13,4 °C 93 % 1005,5 hPa 0,2 mm 0,0 km/h (0 Bft) W-NW 298 ° 0 min 0,000 mm 0,0 UV-I 14 W/m² 12,3 °C 13,4 °C 0,0 km/h (0 Bft)
12.06.2018 17:38 13,4 °C 94 % 1005,4 hPa 0,0 mm 0,3 km/h (0 Bft) N-NW 337 ° 0 min 0,000 mm 0,0 UV-I 14 W/m² 12,5 °C 13,4 °C 3,2 km/h (1 Bft)
12.06.2018 17:39 13,4 °C 94 % 1005,4 hPa 0,0 mm 1,0 km/h (0 Bft) S-SW 202 ° 0 min 0,000 mm 0,0 UV-I 14 W/m² 12,5 °C 13,4 °C 11,3 km/h (2 Bft)
12.06.2018 17:40 13,4 °C 93 % 1005,4 hPa 0,0 mm 3,5 km/h (1 Bft) S 170 ° 0 min 0,000 mm 0,0 UV-I 14 W/m² 12,3 °C 13,4 °C 11,3 km/h (2 Bft)
12.06.2018 17:41 13,4 °C 93 % 1005,4 hPa 0,2 mm 0,7 km/h (0 Bft) S-SO 168 ° 0 min 0,000 mm 0,0 UV-I 14 W/m² 12,3 °C 13,4 °C 3,2 km/h (1 Bft)
12.06.2018 17:42 13,4 °C 93 % 1005,4 hPa 0,0 mm 0,2 km/h (0 Bft) S 169 ° 0 min 0,000 mm 0,0 UV-I 14 W/m² 12,3 °C 13,4 °C 3,2 km/h (1 Bft)
12.06.2018 17:43 13,4 °C 93 % 1005,5 hPa 0,0 mm 0,1 km/h (0 Bft) S-SO 165 ° 0 min 0,000 mm 0,0 UV-I 12 W/m² 12,3 °C 13,4 °C 1,6 km/h (1 Bft)
12.06.2018 17:44 13,4 °C 94 % 1005,5 hPa 0,0 mm 0,7 km/h (0 Bft) W 268 ° 0 min 0,000 mm 0,0 UV-I 12 W/m² 12,5 °C 13,4 °C 3,2 km/h (1 Bft)
12.06.2018 17:45 13,5 °C 94 % 1005,4 hPa 0,2 mm 0,9 km/h (0 Bft) W 268 ° 0 min 0,000 mm 0,0 UV-I 12 W/m² 12,6 °C 13,5 °C 3,2 km/h (1 Bft)
12.06.2018 17:46 13,5 °C 93 % 1005,5 hPa 0,0 mm 0,6 km/h (0 Bft) W 268 ° 0 min 0,000 mm 0,0 UV-I 11 W/m² 12,4 °C 13,5 °C 1,6 km/h (1 Bft)
12.06.2018 17:47 13,5 °C 93 % 1005,5 hPa 0,0 mm 0,6 km/h (0 Bft) W 268 ° 0 min 0,000 mm 0,0 UV-I 11 W/m² 12,4 °C 13,5 °C 3,2 km/h (1 Bft)
12.06.2018 17:48 13,6 °C 94 % 1005,4 hPa 0,0 mm 0,0 km/h (0 Bft) W 268 ° 0 min 0,000 mm 0,0 UV-I 11 W/m² 12,7 °C 13,6 °C 0,0 km/h (0 Bft)
12.06.2018 17:49 13,6 °C 93 % 1005,4 hPa 0,0 mm 1,8 km/h (1 Bft) W 268 ° 0 min 0,000 mm 0,0 UV-I 11 W/m² 12,5 °C 13,6 °C 4,8 km/h (1 Bft)
12.06.2018 17:50 13,6 °C 94 % 1005,4 hPa 0,2 mm 2,7 km/h (1 Bft) W 268 ° 0 min 0,000 mm 0,0 UV-I 11 W/m² 12,7 °C 13,6 °C 4,8 km/h (1 Bft)
12.06.2018 17:51 13,6 °C 93 % 1005,3 hPa 0,0 mm 5,0 km/h (1 Bft) W-SW 257 ° 0 min 0,000 mm 0,0 UV-I 11 W/m² 12,5 °C 13,6 °C 11,3 km/h (2 Bft)
12.06.2018 17:52 13,6 °C 93 % 1005,4 hPa 0,0 mm 5,0 km/h (1 Bft) W 267 ° 0 min 0,000 mm 0,0 UV-I 11 W/m² 12,5 °C 13,6 °C 6,4 km/h (2 Bft)
12.06.2018 17:53 13,5 °C 93 % 1005,4 hPa 0,0 mm 5,8 km/h (2 Bft) W-NW 290 ° 0 min 0,000 mm 0,0 UV-I 11 W/m² 12,4 °C 13,5 °C 9,7 km/h (2 Bft)
12.06.2018 17:54 13,5 °C 93 % 1005,3 hPa 0,0 mm 6,7 km/h (2 Bft) W-NW 283 ° 0 min 0,000 mm 0,0 UV-I 11 W/m² 12,4 °C 13,5 °C 9,7 km/h (2 Bft)
12.06.2018 17:55 13,5 °C 93 % 1005,2 hPa 0,0 mm 4,8 km/h (1 Bft) W-SW 253 ° 0 min 0,000 mm 0,0 UV-I 11 W/m² 12,4 °C 13,5 °C 6,4 km/h (2 Bft)
12.06.2018 17:56 13,5 °C 93 % 1005,2 hPa 0,2 mm 4,2 km/h (1 Bft) W-NW 284 ° 0 min 0,000 mm 0,0 UV-I 9 W/m² 12,4 °C 13,5 °C 9,7 km/h (2 Bft)
12.06.2018 17:57 13,4 °C 93 % 1005,2 hPa 0,2 mm 0,8 km/h (0 Bft) W-NW 284 ° 0 min 0,000 mm 0,0 UV-I 9 W/m² 12,3 °C 13,4 °C 3,2 km/h (1 Bft)
12.06.2018 17:58 13,4 °C 93 % 1005,2 hPa 0,2 mm 1,7 km/h (1 Bft) W 268 ° 0 min 0,000 mm 0,0 UV-I 9 W/m² 12,3 °C 13,4 °C 4,8 km/h (1 Bft)
12.06.2018 17:59 13,4 °C 93 % 1005,1 hPa 0,2 mm 0,1 km/h (0 Bft) NW 325 ° 0 min 0,000 mm 0,0 UV-I 9 W/m² 12,3 °C 13,4 °C 1,6 km/h (1 Bft)
12.06.2018 18:00 13,4 °C 93 % 1005,1 hPa 0,0 mm 1,4 km/h (1 Bft) N 355 ° 0 min 0,000 mm 0,0 UV-I 9 W/m² 12,3 °C 13,4 °C 4,8 km/h (1 Bft)
12.06.2018 18:01 13,4 °C 93 % 1005,1 hPa 0,2 mm 0,3 km/h (0 Bft) N 355 ° 0 min 0,000 mm 0,0 UV-I 9 W/m² 12,3 °C 13,4 °C 1,6 km/h (1 Bft)
12.06.2018 18:02 13,4 °C 94 % 1005,2 hPa 0,0 mm 0,7 km/h (0 Bft) N 355 ° 0 min 0,000 mm 0,0 UV-I 9 W/m² 12,5 °C 13,4 °C 1,6 km/h (1 Bft)
12.06.2018 18:03 13,4 °C 94 % 1005,1 hPa 0,2 mm 2,4 km/h (1 Bft) N 355 ° 0 min 0,000 mm 0,0 UV-I 9 W/m² 12,5 °C 13,4 °C 4,8 km/h (1 Bft)
12.06.2018 18:04 13,4 °C 94 % 1005,1 hPa 0,0 mm 1,0 km/h (0 Bft) N 355 ° 0 min 0,000 mm 0,0 UV-I 9 W/m² 12,5 °C 13,4 °C 3,2 km/h (1 Bft)
12.06.2018 18:05 13,4 °C 94 % 1005,0 hPa 0,0 mm 1,4 km/h (1 Bft) N 355 ° 0 min 0,000 mm 0,0 UV-I 9 W/m² 12,5 °C 13,4 °C 3,2 km/h (1 Bft)
12.06.2018 18:06 13,4 °C 94 % 1005,0 hPa 0,2 mm 0,0 km/h (0 Bft) N 355 ° 0 min 0,000 mm 0,0 UV-I 11 W/m² 12,5 °C 13,4 °C 0,0 km/h (0 Bft)
12.06.2018 18:07 13,4 °C 94 % 1005,0 hPa 0,0 mm 0,0 km/h (0 Bft) N 355 ° 0 min 0,000 mm 0,0 UV-I 11 W/m² 12,5 °C 13,4 °C 0,0 km/h (0 Bft)
12.06.2018 18:08 13,4 °C 94 % 1005,0 hPa 0,0 mm 0,6 km/h (0 Bft) N 355 ° 0 min 0,000 mm 0,0 UV-I 11 W/m² 12,5 °C 13,4 °C 3,2 km/h (1 Bft)
12.06.2018 18:09 13,4 °C 94 % 1004,9 hPa 0,0 mm 1,7 km/h (1 Bft) N 355 ° 0 min 0,000 mm 0,0 UV-I 11 W/m² 12,5 °C 13,4 °C 4,8 km/h (1 Bft)
12.06.2018 18:10 13,4 °C 94 % 1004,9 hPa 0,0 mm 0,3 km/h (0 Bft) N 355 ° 0 min 0,000 mm 0,0 UV-I 11 W/m² 12,5 °C 13,4 °C 1,6 km/h (1 Bft)
12.06.2018 18:11 13,4 °C 94 % 1004,9 hPa 0,0 mm 0,0 km/h (0 Bft) N 355 ° 0 min 0,000 mm 0,0 UV-I 11 W/m² 12,5 °C 13,4 °C 0,0 km/h (0 Bft)
12.06.2018 18:12 13,4 °C 94 % 1004,9 hPa 0,0 mm 0,0 km/h (0 Bft) N 355 ° 0 min 0,000 mm 0,0 UV-I 11 W/m² 12,5 °C 13,4 °C 0,0 km/h (0 Bft)
12.06.2018 18:13 13,4 °C 94 % 1004,9 hPa 0,0 mm 0,0 km/h (0 Bft) N 355 ° 0 min 0,000 mm 0,0 UV-I 11 W/m² 12,5 °C 13,4 °C 0,0 km/h (0 Bft)
12.06.2018 18:14 13,4 °C 94 % 1004,8 hPa 0,0 mm 1,1 km/h (1 Bft) W 281 ° 0 min 0,000 mm 0,0 UV-I 11 W/m² 12,5 °C 13,4 °C 4,8 km/h (1 Bft)
12.06.2018 18:15 13,4 °C 94 % 1004,8 hPa 0,2 mm 0,5 km/h (0 Bft) W 279 ° 0 min 0,000 mm 0,0 UV-I 11 W/m² 12,5 °C 13,4 °C 4,8 km/h (1 Bft)
12.06.2018 18:16 13,3 °C 94 % 1004,8 hPa 0,0 mm 0,0 km/h (0 Bft) W 279 ° 0 min 0,000 mm 0,0 UV-I 11 W/m² 12,4 °C 13,3 °C 0,0 km/h (0 Bft)
12.06.2018 18:17 13,3 °C 94 % 1004,8 hPa 0,0 mm 0,0 km/h (0 Bft) W 279 ° 0 min 0,000 mm 0,0 UV-I 11 W/m² 12,4 °C 13,3 °C 0,0 km/h (0 Bft)
12.06.2018 18:18 13,3 °C 94 % 1004,7 hPa 0,0 mm 0,3 km/h (0 Bft) W 280 ° 0 min 0,000 mm 0,0 UV-I 11 W/m² 12,4 °C 13,3 °C 1,6 km/h (1 Bft)
12.06.2018 18:19 13,3 °C 94 % 1004,7 hPa 0,2 mm 0,0 km/h (0 Bft) W 280 ° 0 min 0,000 mm 0,0 UV-I 11 W/m² 12,4 °C 13,3 °C 0,0 km/h (0 Bft)
12.06.2018 18:20 13,3 °C 94 % 1004,7 hPa 0,0 mm 0,8 km/h (0 Bft) N-NO 17 ° 0 min 0,000 mm 0,0 UV-I 12 W/m² 12,4 °C 13,3 °C 4,8 km/h (1 Bft)
12.06.2018 18:21 13,3 °C 94 % 1004,7 hPa 0,0 mm 2,1 km/h (1 Bft) NO 50 ° 0 min 0,000 mm 0,0 UV-I 12 W/m² 12,4 °C 13,3 °C 6,4 km/h (2 Bft)
12.06.2018 18:22 13,3 °C 94 % 1004,7 hPa 0,2 mm 0,1 km/h (0 Bft) NO 50 ° 0 min 0,000 mm 0,0 UV-I 12 W/m² 12,4 °C 13,3 °C 1,6 km/h (1 Bft)
12.06.2018 18:23 13,3 °C 94 % 1004,6 hPa 0,0 mm 0,0 km/h (0 Bft) NO 50 ° 0 min 0,000 mm 0,0 UV-I 12 W/m² 12,4 °C 13,3 °C 0,0 km/h (0 Bft)
12.06.2018 18:24 13,3 °C 94 % 1004,6 hPa 0,0 mm 0,0 km/h (0 Bft) NO 50 ° 0 min 0,000 mm 0,0 UV-I 12 W/m² 12,4 °C 13,3 °C 0,0 km/h (0 Bft)
12.06.2018 18:25 13,3 °C 94 % 1004,6 hPa 0,0 mm 0,0 km/h (0 Bft) NO 50 ° 0 min 0,000 mm 0,0 UV-I 12 W/m² 12,4 °C 13,3 °C 0,0 km/h (0 Bft)
12.06.2018 18:26 13,3 °C 94 % 1004,6 hPa 0,0 mm 0,2 km/h (0 Bft) NO 50 ° 0 min 0,000 mm 0,0 UV-I 14 W/m² 12,4 °C 13,3 °C 1,6 km/h (1 Bft)
12.06.2018 18:27 13,3 °C 94 % 1004,6 hPa 0,0 mm 0,0 km/h (0 Bft) NO 50 ° 0 min 0,000 mm 0,0 UV-I 14 W/m² 12,4 °C 13,3 °C 0,0 km/h (0 Bft)
12.06.2018 18:28 13,3 °C 94 % 1004,6 hPa 0,2 mm 0,1 km/h (0 Bft) NO 50 ° 0 min 0,000 mm 0,0 UV-I 14 W/m² 12,4 °C 13,3 °C 1,6 km/h (1 Bft)
12.06.2018 18:29 13,3 °C 94 % 1004,6 hPa 0,0 mm 1,0 km/h (0 Bft) NO 50 ° 0 min 0,000 mm 0,0 UV-I 14 W/m² 12,4 °C 13,3 °C 3,2 km/h (1 Bft)
12.06.2018 18:30 13,3 °C 94 % 1004,6 hPa 0,0 mm 0,4 km/h (0 Bft) NO 50 ° 0 min 0,000 mm 0,0 UV-I 16 W/m² 12,4 °C 13,3 °C 1,6 km/h (1 Bft)
12.06.2018 18:31 13,3 °C 94 % 1004,5 hPa 0,0 mm 0,7 km/h (0 Bft) NO 50 ° 0 min 0,000 mm 0,0 UV-I 16 W/m² 12,4 °C 13,3 °C 3,2 km/h (1 Bft)
12.06.2018 18:32 13,3 °C 94 % 1004,6 hPa 0,0 mm 0,0 km/h (0 Bft) NO 50 ° 0 min 0,000 mm 0,0 UV-I 16 W/m² 12,4 °C 13,3 °C 0,0 km/h (0 Bft)
12.06.2018 18:33 13,3 °C 94 % 1004,6 hPa 0,2 mm 0,5 km/h (0 Bft) NO 50 ° 0 min 0,000 mm 0,0 UV-I 16 W/m² 12,4 °C 13,3 °C 1,6 km/h (1 Bft)
12.06.2018 18:34 13,3 °C 94 % 1004,6 hPa 0,0 mm 0,0 km/h (0 Bft) NO 50 ° 0 min 0,000 mm 0,0 UV-I 16 W/m² 12,4 °C 13,3 °C 0,0 km/h (0 Bft)
12.06.2018 18:35 13,3 °C 94 % 1004,6 hPa 0,0 mm 0,0 km/h (0 Bft) NO 50 ° 0 min 0,000 mm 0,0 UV-I 18 W/m² 12,4 °C 13,3 °C 0,0 km/h (0 Bft)
12.06.2018 18:36 13,3 °C 94 % 1004,6 hPa 0,0 mm 0,1 km/h (0 Bft) NO 50 ° 0 min 0,000 mm 0,0 UV-I 18 W/m² 12,4 °C 13,3 °C 1,6 km/h (1 Bft)
12.06.2018 18:37 13,3 °C 94 % 1004,6 hPa 0,0 mm 0,7 km/h (0 Bft) NO 50 ° 0 min 0,000 mm 0,0 UV-I 18 W/m² 12,4 °C 13,3 °C 1,6 km/h (1 Bft)
12.06.2018 18:38 13,3 °C 94 % 1004,7 hPa 0,0 mm 0,1 km/h (0 Bft) NO 50 ° 0 min 0,000 mm 0,0 UV-I 18 W/m² 12,4 °C 13,3 °C 1,6 km/h (1 Bft)
12.06.2018 18:39 13,3 °C 94 % 1004,7 hPa 0,0 mm 0,0 km/h (0 Bft) NO 50 ° 0 min 0,000 mm 0,0 UV-I 18 W/m² 12,4 °C 13,3 °C 0,0 km/h (0 Bft)
12.06.2018 18:40 13,3 °C 94 % 1004,7 hPa 0,0 mm 3,0 km/h (1 Bft) N-NW 331 ° 0 min 0,000 mm 0,0 UV-I 19 W/m² 12,4 °C 13,3 °C 4,8 km/h (1 Bft)
12.06.2018 18:41 13,3 °C 94 % 1004,8 hPa 0,2 mm 2,7 km/h (1 Bft) N-NW 331 ° 0 min 0,000 mm 0,0 UV-I 19 W/m² 12,4 °C 13,3 °C 3,2 km/h (1 Bft)
12.06.2018 18:42 13,3 °C 94 % 1004,9 hPa 0,0 mm 0,2 km/h (0 Bft) N-NW 331 ° 0 min 0,000 mm 0,0 UV-I 19 W/m² 12,4 °C 13,3 °C 1,6 km/h (1 Bft)
12.06.2018 18:43 13,3 °C 94 % 1004,9 hPa 0,0 mm 0,0 km/h (0 Bft) N-NW 331 ° 0 min 0,000 mm 0,0 UV-I 21 W/m² 12,4 °C 13,3 °C 0,0 km/h (0 Bft)
12.06.2018 18:44 13,3 °C 94 % 1005,0 hPa 0,0 mm 0,0 km/h (0 Bft) N-NW 331 ° 0 min 0,000 mm 0,0 UV-I 21 W/m² 12,4 °C 13,3 °C 0,0 km/h (0 Bft)
12.06.2018 18:45 13,4 °C 94 % 1005,0 hPa 0,0 mm 0,0 km/h (0 Bft) N-NW 331 ° 0 min 0,000 mm 0,0 UV-I 21 W/m² 12,5 °C 13,4 °C 0,0 km/h (0 Bft)
12.06.2018 18:46 13,4 °C 94 % 1005,0 hPa 0,0 mm 0,5 km/h (0 Bft) NW 326 ° 0 min 0,000 mm 0,0 UV-I 21 W/m² 12,5 °C 13,4 °C 3,2 km/h (1 Bft)
12.06.2018 18:47 13,4 °C 94 % 1005,1 hPa 0,0 mm 1,9 km/h (1 Bft) NW 326 ° 0 min 0,000 mm 0,0 UV-I 23 W/m² 12,5 °C 13,4 °C 3,2 km/h (1 Bft)
12.06.2018 18:48 13,4 °C 94 % 1005,1 hPa 0,0 mm 0,7 km/h (0 Bft) NW 326 ° 0 min 0,000 mm 0,0 UV-I 25 W/m² 12,5 °C 13,4 °C 1,6 km/h (1 Bft)
12.06.2018 18:49 13,4 °C 94 % 1005,0 hPa 0,0 mm 0,0 km/h (0 Bft) NW 326 ° 0 min 0,000 mm 0,0 UV-I 25 W/m² 12,5 °C 13,4 °C 0,0 km/h (0 Bft)
12.06.2018 18:50 13,3 °C 94 % 1005,0 hPa 0,0 mm 0,9 km/h (0 Bft) NW 324 ° 0 min 0,000 mm 0,0 UV-I 25 W/m² 12,4 °C 13,3 °C 3,2 km/h (1 Bft)
12.06.2018 18:51 13,4 °C 94 % 1005,0 hPa 0,0 mm 0,0 km/h (0 Bft) NW 323 ° 0 min 0,000 mm 0,0 UV-I 26 W/m² 12,5 °C 13,4 °C 0,0 km/h (0 Bft)
12.06.2018 18:52 13,4 °C 94 % 1005,1 hPa 0,0 mm 0,0 km/h (0 Bft) NW 324 ° 0 min 0,000 mm 0,0 UV-I 26 W/m² 12,5 °C 13,4 °C 0,0 km/h (0 Bft)
12.06.2018 18:53 13,4 °C 94 % 1005,1 hPa 0,0 mm 0,0 km/h (0 Bft) NW 324 ° 0 min 0,000 mm 0,0 UV-I 28 W/m² 12,5 °C 13,4 °C 0,0 km/h (0 Bft)
12.06.2018 18:54 13,4 °C 94 % 1005,1 hPa 0,0 mm 0,0 km/h (0 Bft) NW 324 ° 0 min 0,000 mm 0,0 UV-I 28 W/m² 12,5 °C 13,4 °C 0,0 km/h (0 Bft)
12.06.2018 18:55 13,4 °C 94 % 1005,1 hPa 0,0 mm 0,0 km/h (0 Bft) NW 323 ° 0 min 0,000 mm 0,0 UV-I 28 W/m² 12,5 °C 13,4 °C 0,0 km/h (0 Bft)
12.06.2018 18:56 13,4 °C 94 % 1005,2 hPa 0,0 mm 1,3 km/h (1 Bft) NW 324 ° 0 min 0,000 mm 0,0 UV-I 30 W/m² 12,5 °C 13,4 °C 3,2 km/h (1 Bft)
12.06.2018 18:57 13,4 °C 94 % 1005,1 hPa 0,0 mm 0,2 km/h (0 Bft) NW 323 ° 0 min 0,000 mm 0,0 UV-I 30 W/m² 12,5 °C 13,4 °C 1,6 km/h (1 Bft)
12.06.2018 18:58 13,4 °C 94 % 1005,2 hPa 0,0 mm 0,0 km/h (0 Bft) NW 324 ° 0 min 0,000 mm 0,0 UV-I 30 W/m² 12,5 °C 13,4 °C 0,0 km/h (0 Bft)
12.06.2018 18:59 13,4 °C 94 % 1005,2 hPa 0,0 mm 0,0 km/h (0 Bft) NW 323 ° 0 min 0,000 mm 0,0 UV-I 32 W/m² 12,5 °C 13,4 °C 0,0 km/h (0 Bft)
12.06.2018 19:00 13,4 °C 94 % 1005,2 hPa 0,0 mm 0,0 km/h (0 Bft) NW 323 ° 0 min 0,000 mm 0,0 UV-I 32 W/m² 12,5 °C 13,4 °C 0,0 km/h (0 Bft)
12.06.2018 19:01 13,4 °C 94 % 1005,2 hPa 0,0 mm 0,1 km/h (0 Bft) NW 324 ° 0 min 0,000 mm 0,0 UV-I 32 W/m² 12,5 °C 13,4 °C 1,6 km/h (1 Bft)
12.06.2018 19:02 13,4 °C 94 % 1005,1 hPa 0,0 mm 0,0 km/h (0 Bft) NW 324 ° 0 min 0,000 mm 0,0 UV-I 32 W/m² 12,5 °C 13,4 °C 0,0 km/h (0 Bft)
12.06.2018 19:03 13,4 °C 94 % 1005,1 hPa 0,0 mm 0,0 km/h (0 Bft) NW 323 ° 0 min 0,000 mm 0,0 UV-I 33 W/m² 12,5 °C 13,4 °C 0,0 km/h (0 Bft)
12.06.2018 19:04 13,5 °C 94 % 1005,1 hPa 0,0 mm 0,0 km/h (0 Bft) NW 323 ° 0 min 0,000 mm 0,0 UV-I 33 W/m² 12,6 °C 13,5 °C 0,0 km/h (0 Bft)
12.06.2018 19:05 13,5 °C 94 % 1005,1 hPa 0,0 mm 0,0 km/h (0 Bft) NW 324 ° 0 min 0,000 mm 0,0 UV-I 33 W/m² 12,6 °C 13,5 °C 0,0 km/h (0 Bft)
12.06.2018 19:06 13,4 °C 94 % 1005,1 hPa 0,0 mm 0,0 km/h (0 Bft) NW 324 ° 0 min 0,000 mm 0,0 UV-I 33 W/m² 12,5 °C 13,4 °C 0,0 km/h (0 Bft)
12.06.2018 19:07 13,4 °C 94 % 1005,2 hPa 0,0 mm 0,1 km/h (0 Bft) NW 324 ° 0 min 0,000 mm 0,0 UV-I 33 W/m² 12,5 °C 13,4 °C 1,6 km/h (1 Bft)
12.06.2018 19:08 13,4 °C 94 % 1005,2 hPa 0,0 mm 0,8 km/h (0 Bft) NW 323 ° 0 min 0,000 mm 0,0 UV-I 32 W/m² 12,5 °C 13,4 °C 1,6 km/h (1 Bft)
12.06.2018 19:09 13,4 °C 94 % 1005,2 hPa 0,0 mm 0,0 km/h (0 Bft) NW 324 ° 0 min 0,000 mm 0,0 UV-I 30 W/m² 12,5 °C 13,4 °C 0,0 km/h (0 Bft)
12.06.2018 19:10 13,4 °C 94 % 1005,1 hPa 0,0 mm 0,0 km/h (0 Bft) NW 323 ° 0 min 0,000 mm 0,0 UV-I 28 W/m² 12,5 °C 13,4 °C 0,0 km/h (0 Bft)
12.06.2018 19:11 13,4 °C 94 % 1005,1 hPa 0,0 mm 0,0 km/h (0 Bft) NW 324 ° 0 min 0,000 mm 0,0 UV-I 23 W/m² 12,5 °C 13,4 °C 0,0 km/h (0 Bft)
12.06.2018 19:12 13,4 °C 94 % 1005,2 hPa 0,0 mm 0,7 km/h (0 Bft) NW 323 ° 0 min 0,000 mm 0,0 UV-I 21 W/m² 12,5 °C 13,4 °C 1,6 km/h (1 Bft)
12.06.2018 19:13 13,4 °C 94 % 1005,2 hPa 0,0 mm 0,0 km/h (0 Bft) NW 324 ° 0 min 0,000 mm 0,0 UV-I 21 W/m² 12,5 °C 13,4 °C 0,0 km/h (0 Bft)
12.06.2018 19:14 13,4 °C 94 % 1005,2 hPa 0,0 mm 0,0 km/h (0 Bft) NW 323 ° 0 min 0,000 mm 0,0 UV-I 21 W/m² 12,5 °C 13,4 °C 0,0 km/h (0 Bft)
12.06.2018 19:15 13,4 °C 94 % 1005,2 hPa 0,2 mm 0,0 km/h (0 Bft) NW 323 ° 0 min 0,000 mm 0,0 UV-I 21 W/m² 12,5 °C 13,4 °C 0,0 km/h (0 Bft)
12.06.2018 19:16 13,4 °C 94 % 1005,2 hPa 0,0 mm 0,0 km/h (0 Bft) NW 323 ° 0 min 0,000 mm 0,0 UV-I 25 W/m² 12,5 °C 13,4 °C 0,0 km/h (0 Bft)
12.06.2018 19:17 13,4 °C 94 % 1005,3 hPa 0,0 mm 0,0 km/h (0 Bft) NW 324 ° 0 min 0,000 mm 0,0 UV-I 26 W/m² 12,5 °C 13,4 °C 0,0 km/h (0 Bft)
12.06.2018 19:18 13,5 °C 94 % 1005,4 hPa 0,0 mm 0,0 km/h (0 Bft) NW 323 ° 0 min 0,000 mm 0,0 UV-I 26 W/m² 12,6 °C 13,5 °C 0,0 km/h (0 Bft)
12.06.2018 19:19 13,5 °C 94 % 1005,4 hPa 0,0 mm 0,0 km/h (0 Bft) NW 323 ° 0 min 0,000 mm 0,0 UV-I 25 W/m² 12,6 °C 13,5 °C 0,0 km/h (0 Bft)
12.06.2018 19:20 13,6 °C 94 % 1005,4 hPa 0,0 mm 0,0 km/h (0 Bft) NW 324 ° 0 min 0,000 mm 0,0 UV-I 25 W/m² 12,7 °C 13,6 °C 0,0 km/h (0 Bft)
12.06.2018 19:21 13,6 °C 94 % 1005,5 hPa 0,0 mm 0,0 km/h (0 Bft) NW 323 ° 0 min 0,000 mm 0,0 UV-I 28 W/m² 12,7 °C 13,6 °C 0,0 km/h (0 Bft)
12.06.2018 19:22 13,7 °C 94 % 1005,5 hPa 0,0 mm 0,0 km/h (0 Bft) NW 323 ° 0 min 0,000 mm 0,0 UV-I 33 W/m² 12,8 °C 13,7 °C 0,0 km/h (0 Bft)
12.06.2018 19:23 13,7 °C 94 % 1005,5 hPa 0,0 mm 0,0 km/h (0 Bft) NW 323 ° 0 min 0,000 mm 0,0 UV-I 33 W/m² 12,8 °C 13,7 °C 0,0 km/h (0 Bft)
12.06.2018 19:24 13,7 °C 94 % 1005,5 hPa 0,0 mm 0,0 km/h (0 Bft) NW 324 ° 0 min 0,000 mm 0,0 UV-I 35 W/m² 12,8 °C 13,7 °C 0,0 km/h (0 Bft)
12.06.2018 19:25 13,7 °C 94 % 1005,5 hPa 0,0 mm 0,0 km/h (0 Bft) NW 323 ° 0 min 0,000 mm 0,0 UV-I 35 W/m² 12,8 °C 13,7 °C 0,0 km/h (0 Bft)
12.06.2018 19:26 13,7 °C 94 % 1005,5 hPa 0,0 mm 0,0 km/h (0 Bft) NW 323 ° 0 min 0,000 mm 0,0 UV-I 35 W/m² 12,8 °C 13,7 °C 0,0 km/h (0 Bft)
12.06.2018 19:27 13,8 °C 94 % 1005,5 hPa 0,0 mm 0,0 km/h (0 Bft) NW 323 ° 0 min 0,000 mm 0,0 UV-I 35 W/m² 12,9 °C 13,8 °C 0,0 km/h (0 Bft)
12.06.2018 19:28 13,7 °C 94 % 1005,5 hPa 0,0 mm 0,0 km/h (0 Bft) NW 323 ° 0 min 0,000 mm 0,0 UV-I 35 W/m² 12,8 °C 13,7 °C 0,0 km/h (0 Bft)
12.06.2018 19:29 13,7 °C 94 % 1005,5 hPa 0,0 mm 0,0 km/h (0 Bft) NW 323 ° 0 min 0,000 mm 0,0 UV-I 35 W/m² 12,8 °C 13,7 °C 0,0 km/h (0 Bft)
12.06.2018 19:30 13,8 °C 94 % 1005,6 hPa 0,0 mm 0,0 km/h (0 Bft) NW 323 ° 0 min 0,000 mm 0,0 UV-I 35 W/m² 12,9 °C 13,8 °C 0,0 km/h (0 Bft)
12.06.2018 19:31 13,8 °C 94 % 1005,6 hPa 0,0 mm 0,0 km/h (0 Bft) NW 323 ° 0 min 0,000 mm 0,0 UV-I 35 W/m² 12,9 °C 13,8 °C 0,0 km/h (0 Bft)
12.06.2018 19:32 13,8 °C 95 % 1005,5 hPa 0,0 mm 0,0 km/h (0 Bft) NW 324 ° 0 min 0,000 mm 0,0 UV-I 35 W/m² 13,0 °C 13,8 °C 0,0 km/h (0 Bft)
12.06.2018 19:33 13,8 °C 94 % 1005,5 hPa 0,0 mm 0,0 km/h (0 Bft) NW 323 ° 0 min 0,000 mm 0,0 UV-I 33 W/m² 12,9 °C 13,8 °C 0,0 km/h (0 Bft)
12.06.2018 19:34 13,8 °C 94 % 1005,5 hPa 0,0 mm 0,0 km/h (0 Bft) NW 323 ° 0 min 0,000 mm 0,0 UV-I 33 W/m² 12,9 °C 13,8 °C 0,0 km/h (0 Bft)
12.06.2018 19:35 13,8 °C 94 % 1005,6 hPa 0,0 mm 0,0 km/h (0 Bft) NW 323 ° 0 min 0,000 mm 0,0 UV-I 33 W/m² 12,9 °C 13,8 °C 0,0 km/h (0 Bft)
12.06.2018 19:36 13,8 °C 94 % 1005,6 hPa 0,0 mm 0,0 km/h (0 Bft) NW 324 ° 0 min 0,000 mm 0,0 UV-I 32 W/m² 12,9 °C 13,8 °C 0,0 km/h (0 Bft)
12.06.2018 19:37 13,9 °C 94 % 1005,7 hPa 0,0 mm 0,0 km/h (0 Bft) NW 323 ° 0 min 0,000 mm 0,0 UV-I 30 W/m² 12,9 °C 13,9 °C 0,0 km/h (0 Bft)
12.06.2018 19:38 13,9 °C 94 % 1005,7 hPa 0,0 mm 0,0 km/h (0 Bft) NW 323 ° 0 min 0,000 mm 0,0 UV-I 26 W/m² 12,9 °C 13,9 °C 0,0 km/h (0 Bft)
12.06.2018 19:39 13,9 °C 94 % 1005,7 hPa 0,0 mm 0,0 km/h (0 Bft) NW 323 ° 0 min 0,000 mm 0,0 UV-I 25 W/m² 12,9 °C 13,9 °C 0,0 km/h (0 Bft)
12.06.2018 19:40 13,9 °C 95 % 1005,7 hPa 0,0 mm 0,0 km/h (0 Bft) NW 323 ° 0 min 0,000 mm 0,0 UV-I 19 W/m² 13,1 °C 13,9 °C 0,0 km/h (0 Bft)
12.06.2018 19:41 13,9 °C 95 % 1005,8 hPa 0,0 mm 0,0 km/h (0 Bft) NW 323 ° 0 min 0,000 mm 0,0 UV-I 18 W/m² 13,1 °C 13,9 °C 0,0 km/h (0 Bft)
12.06.2018 19:42 14,0 °C 95 % 1005,8 hPa 0,0 mm 2,5 km/h (1 Bft) NW 323 ° 0 min 0,000 mm 0,0 UV-I 14 W/m² 13,2 °C 14,0 °C 4,8 km/h (1 Bft)
12.06.2018 19:43 14,0 °C 94 % 1005,9 hPa 0,0 mm 3,4 km/h (1 Bft) NW 316 ° 0 min 0,000 mm 0,0 UV-I 9 W/m² 13,0 °C 14,0 °C 4,8 km/h (1 Bft)
12.06.2018 19:44 14,1 °C 94 % 1005,9 hPa 0,0 mm 4,7 km/h (1 Bft) W-NW 289 ° 0 min 0,000 mm 0,0 UV-I 9 W/m² 13,1 °C 14,1 °C 6,4 km/h (2 Bft)
12.06.2018 19:45 14,1 °C 95 % 1005,9 hPa 0,0 mm 4,8 km/h (1 Bft) W 281 ° 0 min 0,000 mm 0,0 UV-I 12 W/m² 13,3 °C 14,1 °C 6,4 km/h (2 Bft)
12.06.2018 19:46 14,1 °C 94 % 1005,9 hPa 0,0 mm 3,6 km/h (1 Bft) W 281 ° 0 min 0,000 mm 0,0 UV-I 16 W/m² 13,1 °C 14,1 °C 4,8 km/h (1 Bft)
12.06.2018 19:47 14,0 °C 94 % 1005,9 hPa 0,0 mm 1,5 km/h (1 Bft) W 281 ° 0 min 0,000 mm 0,0 UV-I 18 W/m² 13,0 °C 14,0 °C 4,8 km/h (1 Bft)
12.06.2018 19:48 14,1 °C 94 % 1005,9 hPa 0,0 mm 2,0 km/h (1 Bft) W 281 ° 0 min 0,000 mm 0,0 UV-I 21 W/m² 13,1 °C 14,1 °C 3,2 km/h (1 Bft)
12.06.2018 19:49 14,1 °C 94 % 1005,9 hPa 0,0 mm 0,5 km/h (0 Bft) W 281 ° 0 min 0,000 mm 0,0 UV-I 21 W/m² 13,1 °C 14,1 °C 3,2 km/h (1 Bft)
12.06.2018 19:50 14,0 °C 94 % 1005,9 hPa 0,0 mm 1,2 km/h (1 Bft) W 281 ° 0 min 0,000 mm 0,0 UV-I 21 W/m² 13,0 °C 14,0 °C 3,2 km/h (1 Bft)
12.06.2018 19:51 14,0 °C 94 % 1005,9 hPa 0,0 mm 0,6 km/h (0 Bft) W 278 ° 0 min 0,000 mm 0,0 UV-I 21 W/m² 13,0 °C 14,0 °C 3,2 km/h (1 Bft)
12.06.2018 19:52 14,0 °C 94 % 1005,8 hPa 0,0 mm 1,3 km/h (1 Bft) W 266 ° 0 min 0,000 mm 0,0 UV-I 23 W/m² 13,0 °C 14,0 °C 4,8 km/h (1 Bft)
12.06.2018 19:53 13,9 °C 94 % 1005,8 hPa 0,0 mm 3,1 km/h (1 Bft) SW 234 ° 0 min 0,000 mm 0,0 UV-I 25 W/m² 12,9 °C 13,9 °C 3,2 km/h (1 Bft)
12.06.2018 19:54 13,9 °C 94 % 1005,7 hPa 0,0 mm 2,5 km/h (1 Bft) SW 234 ° 0 min 0,000 mm 0,0 UV-I 26 W/m² 12,9 °C 13,9 °C 4,8 km/h (1 Bft)
12.06.2018 19:55 13,9 °C 94 % 1005,8 hPa 0,0 mm 2,3 km/h (1 Bft) SW 230 ° 0 min 0,000 mm 0,0 UV-I 28 W/m² 12,9 °C 13,9 °C 4,8 km/h (1 Bft)
12.06.2018 19:56 14,0 °C 94 % 1005,7 hPa 0,0 mm 2,6 km/h (1 Bft) S-SW 213 ° 0 min 0,000 mm 0,0 UV-I 28 W/m² 13,0 °C 14,0 °C 3,2 km/h (1 Bft)
12.06.2018 19:57 13,9 °C 94 % 1005,7 hPa 0,0 mm 3,3 km/h (1 Bft) S-SW 200 ° 0 min 0,000 mm 0,0 UV-I 28 W/m² 12,9 °C 13,9 °C 6,4 km/h (2 Bft)
12.06.2018 19:58 14,0 °C 94 % 1005,7 hPa 0,0 mm 1,9 km/h (1 Bft) S-SW 200 ° 0 min 0,000 mm 0,0 UV-I 26 W/m² 13,0 °C 14,0 °C 4,8 km/h (1 Bft)
12.06.2018 19:59 14,0 °C 94 % 1005,6 hPa 0,0 mm 2,5 km/h (1 Bft) S-SW 197 ° 0 min 0,000 mm 0,0 UV-I 26 W/m² 13,0 °C 14,0 °C 6,4 km/h (2 Bft)
12.06.2018 20:00 14,0 °C 94 % 1005,7 hPa 0,0 mm 0,3 km/h (0 Bft) S-SW 197 ° 0 min 0,000 mm 0,0 UV-I 25 W/m² 13,0 °C 14,0 °C 3,2 km/h (1 Bft)
12.06.2018 20:01 14,0 °C 94 % 1005,7 hPa 0,0 mm 3,5 km/h (1 Bft) S-SW 198 ° 0 min 0,025 mm 0,0 UV-I 25 W/m² 13,0 °C 14,0 °C 8,0 km/h (2 Bft)
12.06.2018 20:02 14,0 °C 94 % 1005,6 hPa 0,0 mm 0,5 km/h (0 Bft) S-SW 198 ° 0 min 0,000 mm 0,0 UV-I 23 W/m² 13,0 °C 14,0 °C 3,2 km/h (1 Bft)
12.06.2018 20:03 14,0 °C 94 % 1005,6 hPa 0,0 mm 2,9 km/h (1 Bft) S-SO 164 ° 0 min 0,000 mm 0,0 UV-I 19 W/m² 13,0 °C 14,0 °C 4,8 km/h (1 Bft)
12.06.2018 20:04 14,0 °C 94 % 1005,6 hPa 0,0 mm 3,0 km/h (1 Bft) SW 222 ° 0 min 0,000 mm 0,0 UV-I 16 W/m² 13,0 °C 14,0 °C 4,8 km/h (1 Bft)
12.06.2018 20:05 13,9 °C 94 % 1005,6 hPa 0,0 mm 0,5 km/h (0 Bft) SW 222 ° 0 min 0,000 mm 0,0 UV-I 14 W/m² 12,9 °C 13,9 °C 3,2 km/h (1 Bft)
12.06.2018 20:06 14,0 °C 94 % 1005,6 hPa 0,0 mm 0,0 km/h (0 Bft) S 175 ° 0 min 0,000 mm 0,0 UV-I 12 W/m² 13,0 °C 14,0 °C 0,0 km/h (0 Bft)
12.06.2018 20:07 14,0 °C 94 % 1005,6 hPa 0,0 mm 2,3 km/h (1 Bft) SW 236 ° 0 min 0,000 mm 0,0 UV-I 12 W/m² 13,0 °C 14,0 °C 4,8 km/h (1 Bft)
12.06.2018 20:08 14,0 °C 94 % 1005,6 hPa 0,0 mm 1,4 km/h (1 Bft) W 259 ° 0 min 0,000 mm 0,0 UV-I 11 W/m² 13,0 °C 14,0 °C 3,2 km/h (1 Bft)
12.06.2018 20:09 14,0 °C 94 % 1005,6 hPa 0,0 mm 3,6 km/h (1 Bft) W 263 ° 0 min 0,000 mm 0,0 UV-I 9 W/m² 13,0 °C 14,0 °C 6,4 km/h (2 Bft)
12.06.2018 20:10 14,0 °C 94 % 1005,7 hPa 0,0 mm 1,4 km/h (1 Bft) W 263 ° 0 min 0,000 mm 0,0 UV-I 9 W/m² 13,0 °C 14,0 °C 4,8 km/h (1 Bft)
12.06.2018 20:11 14,0 °C 94 % 1005,7 hPa 0,0 mm 3,4 km/h (1 Bft) W 277 ° 0 min 0,000 mm 0,0 UV-I 7 W/m² 13,0 °C 14,0 °C 4,8 km/h (1 Bft)
12.06.2018 20:12 14,0 °C 94 % 1005,7 hPa 0,0 mm 1,6 km/h (1 Bft) W 276 ° 0 min 0,000 mm 0,0 UV-I 7 W/m² 13,0 °C 14,0 °C 3,2 km/h (1 Bft)
12.06.2018 20:13 14,0 °C 94 % 1005,7 hPa 0,0 mm 2,2 km/h (1 Bft) W-NW 283 ° 0 min 0,000 mm 0,0 UV-I 7 W/m² 13,0 °C 14,0 °C 4,8 km/h (1 Bft)
12.06.2018 20:14 14,0 °C 94 % 1005,7 hPa 0,0 mm 1,7 km/h (1 Bft) W-NW 283 ° 0 min 0,000 mm 0,0 UV-I 7 W/m² 13,0 °C 14,0 °C 3,2 km/h (1 Bft)
12.06.2018 20:15 14,0 °C 94 % 1005,8 hPa 0,0 mm 2,1 km/h (1 Bft) W-NW 283 ° 0 min 0,000 mm 0,0 UV-I 7 W/m² 13,0 °C 14,0 °C 3,2 km/h (1 Bft)
12.06.2018 20:16 14,0 °C 94 % 1005,8 hPa 0,0 mm 2,2 km/h (1 Bft) W-NW 283 ° 0 min 0,000 mm 0,0 UV-I 7 W/m² 13,0 °C 14,0 °C 3,2 km/h (1 Bft)
12.06.2018 20:17 14,0 °C 94 % 1005,8 hPa 0,0 mm 0,8 km/h (0 Bft) W-NW 283 ° 0 min 0,000 mm 0,0 UV-I 7 W/m² 13,0 °C 14,0 °C 3,2 km/h (1 Bft)
12.06.2018 20:18 14,0 °C 94 % 1005,8 hPa 0,0 mm 2,0 km/h (1 Bft) W-NW 283 ° 0 min 0,000 mm 0,0 UV-I 7 W/m² 13,0 °C 14,0 °C 3,2 km/h (1 Bft)
12.06.2018 20:19 14,0 °C 94 % 1005,8 hPa 0,0 mm 3,6 km/h (1 Bft) W-NW 283 ° 0 min 0,000 mm 0,0 UV-I 9 W/m² 13,0 °C 14,0 °C 4,8 km/h (1 Bft)
12.06.2018 20:20 14,0 °C 94 % 1005,8 hPa 0,0 mm 2,1 km/h (1 Bft) W-NW 283 ° 0 min 0,000 mm 0,0 UV-I 9 W/m² 13,0 °C 14,0 °C 3,2 km/h (1 Bft)
12.06.2018 20:21 13,9 °C 94 % 1005,8 hPa 0,0 mm 0,1 km/h (0 Bft) W-NW 283 ° 0 min 0,000 mm 0,0 UV-I 9 W/m² 12,9 °C 13,9 °C 1,6 km/h (1 Bft)
12.06.2018 20:22 13,9 °C 94 % 1005,7 hPa 0,2 mm 0,5 km/h (0 Bft) W-NW 283 ° 0 min 0,000 mm 0,0 UV-I 11 W/m² 12,9 °C 13,9 °C 1,6 km/h (1 Bft)
12.06.2018 20:23 13,9 °C 94 % 1005,8 hPa 0,0 mm 0,1 km/h (0 Bft) W-NW 283 ° 0 min 0,000 mm 0,0 UV-I 9 W/m² 12,9 °C 13,9 °C 1,6 km/h (1 Bft)
12.06.2018 20:24 13,9 °C 94 % 1005,7 hPa 0,0 mm 0,0 km/h (0 Bft) W-NW 283 ° 0 min 0,000 mm 0,0 UV-I 9 W/m² 12,9 °C 13,9 °C 0,0 km/h (0 Bft)
12.06.2018 20:25 13,9 °C 94 % 1005,7 hPa 0,0 mm 0,0 km/h (0 Bft) W-NW 283 ° 0 min 0,000 mm 0,0 UV-I 9 W/m² 12,9 °C 13,9 °C 0,0 km/h (0 Bft)
12.06.2018 20:26 13,9 °C 94 % 1005,8 hPa 0,0 mm 0,0 km/h (0 Bft) W-NW 283 ° 0 min 0,000 mm 0,0 UV-I 11 W/m² 12,9 °C 13,9 °C 0,0 km/h (0 Bft)
12.06.2018 20:27 13,9 °C 94 % 1005,7 hPa 0,0 mm 0,0 km/h (0 Bft) W-NW 283 ° 0 min 0,000 mm 0,0 UV-I 11 W/m² 12,9 °C 13,9 °C 0,0 km/h (0 Bft)
12.06.2018 20:28 13,9 °C 94 % 1005,8 hPa 0,0 mm 0,0 km/h (0 Bft) W-NW 283 ° 0 min 0,000 mm 0,0 UV-I 11 W/m² 12,9 °C 13,9 °C 0,0 km/h (0 Bft)
12.06.2018 20:29 13,9 °C 94 % 1005,7 hPa 0,2 mm 0,0 km/h (0 Bft) W-NW 283 ° 0 min 0,000 mm 0,0 UV-I 9 W/m² 12,9 °C 13,9 °C 0,0 km/h (0 Bft)
12.06.2018 20:30 13,9 °C 94 % 1005,7 hPa 0,0 mm 0,0 km/h (0 Bft) W-NW 283 ° 0 min 0,000 mm 0,0 UV-I 9 W/m² 12,9 °C 13,9 °C 0,0 km/h (0 Bft)
12.06.2018 20:31 13,8 °C 94 % 1005,8 hPa 0,0 mm 0,0 km/h (0 Bft) W-NW 283 ° 0 min 0,000 mm 0,0 UV-I 9 W/m² 12,9 °C 13,8 °C 0,0 km/h (0 Bft)
12.06.2018 20:32 13,8 °C 94 % 1005,7 hPa 0,2 mm 0,0 km/h (0 Bft) W-NW 283 ° 0 min 0,000 mm 0,0 UV-I 7 W/m² 12,9 °C 13,8 °C 0,0 km/h (0 Bft)
12.06.2018 20:33 13,8 °C 94 % 1005,7 hPa 0,0 mm 0,0 km/h (0 Bft) W-NW 283 ° 0 min 0,000 mm 0,0 UV-I 7 W/m² 12,9 °C 13,8 °C 0,0 km/h (0 Bft)
12.06.2018 20:34 13,8 °C 94 % 1005,7 hPa 0,0 mm 0,0 km/h (0 Bft) W-NW 283 ° 0 min 0,000 mm 0,0 UV-I 7 W/m² 12,9 °C 13,8 °C 0,0 km/h (0 Bft)
12.06.2018 20:35 13,8 °C 94 % 1005,8 hPa 0,0 mm 0,0 km/h (0 Bft) W-NW 283 ° 0 min 0,000 mm 0,0 UV-I 5 W/m² 12,9 °C 13,8 °C 0,0 km/h (0 Bft)
12.06.2018 20:36 13,8 °C 94 % 1005,7 hPa 0,0 mm 0,0 km/h (0 Bft) W-NW 283 ° 0 min 0,000 mm 0,0 UV-I 5 W/m² 12,9 °C 13,8 °C 0,0 km/h (0 Bft)
12.06.2018 20:37 13,8 °C 94 % 1005,8 hPa 0,0 mm 0,0 km/h (0 Bft) W-NW 283 ° 0 min 0,000 mm 0,0 UV-I 5 W/m² 12,9 °C 13,8 °C 0,0 km/h (0 Bft)
12.06.2018 20:38 13,8 °C 94 % 1005,7 hPa 0,0 mm 0,0 km/h (0 Bft) W-NW 283 ° 0 min 0,000 mm 0,0 UV-I 5 W/m² 12,9 °C 13,8 °C 0,0 km/h (0 Bft)
12.06.2018 20:39 13,8 °C 94 % 1005,7 hPa 0,0 mm 0,0 km/h (0 Bft) W-NW 283 ° 0 min 0,000 mm 0,0 UV-I 5 W/m² 12,9 °C 13,8 °C 0,0 km/h (0 Bft)
12.06.2018 20:40 13,8 °C 94 % 1005,7 hPa 0,0 mm 4,1 km/h (1 Bft) S-SW 194 ° 0 min 0,000 mm 0,0 UV-I 5 W/m² 12,9 °C 13,8 °C 9,7 km/h (2 Bft)
12.06.2018 20:41 13,8 °C 94 % 1005,6 hPa 0,0 mm 2,1 km/h (1 Bft) SW 234 ° 0 min 0,000 mm 0,0 UV-I 5 W/m² 12,9 °C 13,8 °C 4,8 km/h (1 Bft)
12.06.2018 20:42 13,7 °C 94 % 1005,7 hPa 0,0 mm 3,2 km/h (1 Bft) S-SW 198 ° 0 min 0,000 mm 0,0 UV-I 5 W/m² 12,8 °C 13,7 °C 8,0 km/h (2 Bft)
12.06.2018 20:43 13,7 °C 94 % 1005,7 hPa 0,0 mm 1,8 km/h (1 Bft) S-SW 205 ° 0 min 0,000 mm 0,0 UV-I 5 W/m² 12,8 °C 13,7 °C 4,8 km/h (1 Bft)
12.06.2018 20:44 13,7 °C 94 % 1005,6 hPa 0,0 mm 0,1 km/h (0 Bft) S-SW 205 ° 0 min 0,000 mm 0,0 UV-I 5 W/m² 12,8 °C 13,7 °C 1,6 km/h (1 Bft)
12.06.2018 20:45 13,7 °C 94 % 1005,6 hPa 0,0 mm 0,7 km/h (0 Bft) S-SW 205 ° 0 min 0,000 mm 0,0 UV-I 0 W/m² 12,8 °C 13,7 °C 1,6 km/h (1 Bft)
12.06.2018 20:46 13,8 °C 94 % 1005,7 hPa 0,0 mm 0,5 km/h (0 Bft) S-SW 205 ° 0 min 0,000 mm 0,0 UV-I 0 W/m² 12,9 °C 13,8 °C 1,6 km/h (1 Bft)
12.06.2018 20:47 13,8 °C 94 % 1005,6 hPa 0,0 mm 0,0 km/h (0 Bft) S-SW 205 ° 0 min 0,000 mm 0,0 UV-I 0 W/m² 12,9 °C 13,8 °C 0,0 km/h (0 Bft)
12.06.2018 20:48 13,8 °C 94 % 1005,6 hPa 0,0 mm 2,4 km/h (1 Bft) W-SW 244 ° 0 min 0,000 mm 0,0 UV-I 0 W/m² 12,9 °C 13,8 °C 4,8 km/h (1 Bft)
12.06.2018 20:49 13,8 °C 94 % 1005,6 hPa 0,0 mm 0,5 km/h (0 Bft) W-SW 244 ° 0 min 0,000 mm 0,0 UV-I 0 W/m² 12,9 °C 13,8 °C 1,6 km/h (1 Bft)
12.06.2018 20:50 13,8 °C 94 % 1005,6 hPa 0,0 mm 1,9 km/h (1 Bft) SW 229 ° 0 min 0,000 mm 0,0 UV-I 0 W/m² 12,9 °C 13,8 °C 6,4 km/h (2 Bft)
12.06.2018 20:51 13,8 °C 94 % 1005,6 hPa 0,0 mm 2,5 km/h (1 Bft) W-SW 239 ° 0 min 0,000 mm 0,0 UV-I 0 W/m² 12,9 °C 13,8 °C 6,4 km/h (2 Bft)
12.06.2018 20:52 13,8 °C 94 % 1005,6 hPa 0,0 mm 2,6 km/h (1 Bft) SW 233 ° 0 min 0,000 mm 0,0 UV-I 0 W/m² 12,9 °C 13,8 °C 4,8 km/h (1 Bft)
12.06.2018 20:53 13,8 °C 94 % 1005,6 hPa 0,0 mm 0,0 km/h (0 Bft) SW 233 ° 0 min 0,000 mm 0,0 UV-I 0 W/m² 12,9 °C 13,8 °C 0,0 km/h (0 Bft)
12.06.2018 20:54 13,8 °C 94 % 1005,6 hPa 0,0 mm 0,2 km/h (0 Bft) SW 233 ° 0 min 0,000 mm 0,0 UV-I 0 W/m² 12,9 °C 13,8 °C 1,6 km/h (1 Bft)
12.06.2018 20:55 13,7 °C 94 % 1005,6 hPa 0,2 mm 1,9 km/h (1 Bft) SW 234 ° 0 min 0,000 mm 0,0 UV-I 0 W/m² 12,8 °C 13,7 °C 4,8 km/h (1 Bft)
12.06.2018 20:56 13,8 °C 94 % 1005,6 hPa 0,0 mm 2,5 km/h (1 Bft) S-SW 207 ° 0 min 0,000 mm 0,0 UV-I 0 W/m² 12,9 °C 13,8 °C 4,8 km/h (1 Bft)
12.06.2018 20:57 13,8 °C 94 % 1005,6 hPa 0,0 mm 0,1 km/h (0 Bft) S-SW 207 ° 0 min 0,000 mm 0,0 UV-I 0 W/m² 12,9 °C 13,8 °C 1,6 km/h (1 Bft)
12.06.2018 20:58 13,8 °C 94 % 1005,7 hPa 0,0 mm 0,5 km/h (0 Bft) S-SW 207 ° 0 min 0,000 mm 0,0 UV-I 0 W/m² 12,9 °C 13,8 °C 1,6 km/h (1 Bft)
12.06.2018 20:59 13,7 °C 94 % 1005,6 hPa 0,0 mm 1,3 km/h (1 Bft) S-SW 207 ° 0 min 0,000 mm 0,0 UV-I 0 W/m² 12,8 °C 13,7 °C 3,2 km/h (1 Bft)
12.06.2018 21:00 13,7 °C 94 % 1005,6 hPa 0,0 mm 1,6 km/h (1 Bft) S-SW 207 ° 0 min 0,000 mm 0,0 UV-I 0 W/m² 12,8 °C 13,7 °C 3,2 km/h (1 Bft)
12.06.2018 21:01 13,7 °C 94 % 1005,6 hPa 0,0 mm 3,4 km/h (1 Bft) S-SW 207 ° 0 min 0,000 mm 0,0 UV-I 0 W/m² 12,8 °C 13,7 °C 4,8 km/h (1 Bft)
12.06.2018 21:02 13,8 °C 94 % 1005,6 hPa 0,0 mm 1,5 km/h (1 Bft) S-SW 207 ° 0 min 0,000 mm 0,0 UV-I 0 W/m² 12,9 °C 13,8 °C 4,8 km/h (1 Bft)
12.06.2018 21:03 13,8 °C 94 % 1005,6 hPa 0,0 mm 0,3 km/h (0 Bft) S-SW 207 ° 0 min 0,000 mm 0,0 UV-I 0 W/m² 12,9 °C 13,8 °C 1,6 km/h (1 Bft)
12.06.2018 21:04 13,7 °C 94 % 1005,6 hPa 0,0 mm 1,0 km/h (0 Bft) S-SW 207 ° 0 min 0,000 mm 0,0 UV-I 0 W/m² 12,8 °C 13,7 °C 3,2 km/h (1 Bft)
12.06.2018 21:05 13,7 °C 94 % 1005,6 hPa 0,0 mm 0,0 km/h (0 Bft) S-SW 207 ° 0 min 0,000 mm 0,0 UV-I 0 W/m² 12,8 °C 13,7 °C 0,0 km/h (0 Bft)
12.06.2018 21:06 13,7 °C 94 % 1005,6 hPa 0,0 mm 0,0 km/h (0 Bft) S-SW 207 ° 0 min 0,000 mm 0,0 UV-I 0 W/m² 12,8 °C 13,7 °C 0,0 km/h (0 Bft)
12.06.2018 21:07 13,7 °C 94 % 1005,6 hPa 0,0 mm 0,0 km/h (0 Bft) S-SW 207 ° 0 min 0,000 mm 0,0 UV-I 0 W/m² 12,8 °C 13,7 °C 0,0 km/h (0 Bft)
12.06.2018 21:08 13,7 °C 94 % 1005,6 hPa 0,0 mm 0,0 km/h (0 Bft) S-SW 207 ° 0 min 0,000 mm 0,0 UV-I 0 W/m² 12,8 °C 13,7 °C 0,0 km/h (0 Bft)
12.06.2018 21:09 13,7 °C 94 % 1005,6 hPa 0,0 mm 0,0 km/h (0 Bft) S-SW 207 ° 0 min 0,000 mm 0,0 UV-I 0 W/m² 12,8 °C 13,7 °C 0,0 km/h (0 Bft)
12.06.2018 21:10 13,7 °C 94 % 1005,6 hPa 0,0 mm 0,1 km/h (0 Bft) S-SW 207 ° 0 min 0,000 mm 0,0 UV-I 0 W/m² 12,8 °C 13,7 °C 1,6 km/h (1 Bft)
12.06.2018 21:11 13,7 °C 94 % 1005,6 hPa 0,0 mm 0,0 km/h (0 Bft) S-SW 207 ° 0 min 0,000 mm 0,0 UV-I 0 W/m² 12,8 °C 13,7 °C 0,0 km/h (0 Bft)
12.06.2018 21:12 13,7 °C 94 % 1005,6 hPa 0,0 mm 0,0 km/h (0 Bft) S-SW 207 ° 0 min 0,000 mm 0,0 UV-I 0 W/m² 12,8 °C 13,7 °C 0,0 km/h (0 Bft)
12.06.2018 21:13 13,7 °C 94 % 1005,7 hPa 0,0 mm 0,0 km/h (0 Bft) S-SW 207 ° 0 min 0,000 mm 0,0 UV-I 0 W/m² 12,8 °C 13,7 °C 0,0 km/h (0 Bft)
12.06.2018 21:14 13,7 °C 93 % 1005,6 hPa 0,0 mm 0,0 km/h (0 Bft) S-SW 207 ° 0 min 0,000 mm 0,0 UV-I 0 W/m² 12,6 °C 13,7 °C 0,0 km/h (0 Bft)
12.06.2018 21:15 13,7 °C 94 % 1005,6 hPa 0,0 mm 0,0 km/h (0 Bft) S-SW 207 ° 0 min 0,000 mm 0,0 UV-I 0 W/m² 12,8 °C 13,7 °C 0,0 km/h (0 Bft)
12.06.2018 21:16 13,7 °C 94 % 1005,6 hPa 0,0 mm 1,1 km/h (1 Bft) S-SW 207 ° 0 min 0,000 mm 0,0 UV-I 0 W/m² 12,8 °C 13,7 °C 3,2 km/h (1 Bft)
12.06.2018 21:17 13,7 °C 94 % 1005,6 hPa 0,0 mm 0,3 km/h (0 Bft) S-SW 207 ° 0 min 0,000 mm 0,0 UV-I 0 W/m² 12,8 °C 13,7 °C 1,6 km/h (1 Bft)
12.06.2018 21:18 13,6 °C 94 % 1005,6 hPa 0,0 mm 0,0 km/h (0 Bft) S-SW 207 ° 0 min 0,000 mm 0,0 UV-I 0 W/m² 12,7 °C 13,6 °C 0,0 km/h (0 Bft)
12.06.2018 21:19 13,6 °C 94 % 1005,6 hPa 0,0 mm 0,0 km/h (0 Bft) S-SW 207 ° 0 min 0,000 mm 0,0 UV-I 0 W/m² 12,7 °C 13,6 °C 0,0 km/h (0 Bft)
12.06.2018 21:20 13,6 °C 94 % 1005,6 hPa 0,0 mm 0,0 km/h (0 Bft) S-SW 207 ° 0 min 0,000 mm 0,0 UV-I 0 W/m² 12,7 °C 13,6 °C 0,0 km/h (0 Bft)
12.06.2018 21:21 13,7 °C 94 % 1005,6 hPa 0,0 mm 0,0 km/h (0 Bft) S-SW 207 ° 0 min 0,000 mm 0,0 UV-I 0 W/m² 12,8 °C 13,7 °C 0,0 km/h (0 Bft)
12.06.2018 21:22 13,6 °C 94 % 1005,6 hPa 0,0 mm 0,0 km/h (0 Bft) S-SW 207 ° 0 min 0,000 mm 0,0 UV-I 0 W/m² 12,7 °C 13,6 °C 0,0 km/h (0 Bft)
12.06.2018 21:23 13,6 °C 94 % 1005,6 hPa 0,0 mm 0,0 km/h (0 Bft) S-SW 207 ° 0 min 0,000 mm 0,0 UV-I 0 W/m² 12,7 °C 13,6 °C 0,0 km/h (0 Bft)
12.06.2018 21:24 13,6 °C 94 % 1005,6 hPa 0,0 mm 0,0 km/h (0 Bft) S-SW 207 ° 0 min 0,000 mm 0,0 UV-I 0 W/m² 12,7 °C 13,6 °C 0,0 km/h (0 Bft)
12.06.2018 21:25 13,6 °C 94 % 1005,6 hPa 0,0 mm 0,0 km/h (0 Bft) S-SW 207 ° 0 min 0,000 mm 0,0 UV-I 0 W/m² 12,7 °C 13,6 °C 0,0 km/h (0 Bft)
12.06.2018 21:26 13,6 °C 94 % 1005,6 hPa 0,0 mm 0,0 km/h (0 Bft) S-SW 207 ° 0 min 0,000 mm 0,0 UV-I 0 W/m² 12,7 °C 13,6 °C 0,0 km/h (0 Bft)
12.06.2018 21:27 13,6 °C 94 % 1005,5 hPa 0,0 mm 0,0 km/h (0 Bft) S-SW 207 ° 0 min 0,000 mm 0,0 UV-I 0 W/m² 12,7 °C 13,6 °C 0,0 km/h (0 Bft)
12.06.2018 21:28 13,6 °C 94 % 1005,6 hPa 0,0 mm 0,0 km/h (0 Bft) S-SW 207 ° 0 min 0,000 mm 0,0 UV-I 0 W/m² 12,7 °C 13,6 °C 0,0 km/h (0 Bft)
12.06.2018 21:29 13,6 °C 94 % 1005,6 hPa 0,0 mm 0,0 km/h (0 Bft) S-SW 207 ° 0 min 0,000 mm 0,0 UV-I 0 W/m² 12,7 °C 13,6 °C 0,0 km/h (0 Bft)
12.06.2018 21:30 13,6 °C 94 % 1005,6 hPa 0,0 mm 0,0 km/h (0 Bft) S-SW 207 ° 0 min 0,000 mm 0,0 UV-I 0 W/m² 12,7 °C 13,6 °C 0,0 km/h (0 Bft)
12.06.2018 21:31 13,6 °C 94 % 1005,6 hPa 0,0 mm 0,0 km/h (0 Bft) S-SW 207 ° 0 min 0,000 mm 0,0 UV-I 0 W/m² 12,7 °C 13,6 °C 0,0 km/h (0 Bft)
12.06.2018 21:32 13,5 °C 94 % 1005,6 hPa 0,0 mm 0,0 km/h (0 Bft) S-SW 207 ° 0 min 0,000 mm 0,0 UV-I 0 W/m² 12,6 °C 13,5 °C 0,0 km/h (0 Bft)
12.06.2018 21:33 13,5 °C 94 % 1005,6 hPa 0,0 mm 0,0 km/h (0 Bft) S-SW 207 ° 0 min 0,000 mm 0,0 UV-I 0 W/m² 12,6 °C 13,5 °C 0,0 km/h (0 Bft)
12.06.2018 21:34 13,5 °C 94 % 1005,6 hPa 0,0 mm 0,0 km/h (0 Bft) S-SW 207 ° 0 min 0,000 mm 0,0 UV-I 0 W/m² 12,6 °C 13,5 °C 0,0 km/h (0 Bft)
12.06.2018 21:35 13,5 °C 94 % 1005,6 hPa 0,0 mm 0,0 km/h (0 Bft) S-SW 207 ° 0 min 0,000 mm 0,0 UV-I 0 W/m² 12,6 °C 13,5 °C 0,0 km/h (0 Bft)
12.06.2018 21:36 13,5 °C 94 % 1005,6 hPa 0,0 mm 0,0 km/h (0 Bft) S-SW 207 ° 0 min 0,000 mm 0,0 UV-I 0 W/m² 12,6 °C 13,5 °C 0,0 km/h (0 Bft)
12.06.2018 21:37 13,4 °C 94 % 1005,6 hPa 0,0 mm 0,0 km/h (0 Bft) S-SW 207 ° 0 min 0,000 mm 0,0 UV-I 0 W/m² 12,5 °C 13,4 °C 0,0 km/h (0 Bft)
12.06.2018 21:38 13,4 °C 94 % 1005,6 hPa 0,0 mm 0,0 km/h (0 Bft) S-SW 207 ° 0 min 0,000 mm 0,0 UV-I 0 W/m² 12,5 °C 13,4 °C 0,0 km/h (0 Bft)
12.06.2018 21:39 13,4 °C 94 % 1005,6 hPa 0,0 mm 0,0 km/h (0 Bft) S-SW 207 ° 0 min 0,000 mm 0,0 UV-I 0 W/m² 12,5 °C 13,4 °C 0,0 km/h (0 Bft)
12.06.2018 21:40 13,4 °C 94 % 1005,6 hPa 0,0 mm 0,0 km/h (0 Bft) S-SW 207 ° 0 min 0,000 mm 0,0 UV-I 0 W/m² 12,5 °C 13,4 °C 0,0 km/h (0 Bft)
12.06.2018 21:41 13,4 °C 94 % 1005,5 hPa 0,0 mm 0,0 km/h (0 Bft) S-SW 207 ° 0 min 0,000 mm 0,0 UV-I 0 W/m² 12,5 °C 13,4 °C 0,0 km/h (0 Bft)
12.06.2018 21:42 13,4 °C 94 % 1005,5 hPa 0,0 mm 0,0 km/h (0 Bft) S-SW 207 ° 0 min 0,000 mm 0,0 UV-I 0 W/m² 12,5 °C 13,4 °C 0,0 km/h (0 Bft)
12.06.2018 21:43 13,4 °C 94 % 1005,5 hPa 0,0 mm 0,0 km/h (0 Bft) S-SW 207 ° 0 min 0,000 mm 0,0 UV-I 0 W/m² 12,5 °C 13,4 °C 0,0 km/h (0 Bft)
12.06.2018 21:44 13,4 °C 94 % 1005,6 hPa 0,0 mm 0,0 km/h (0 Bft) S-SW 207 ° 0 min 0,000 mm 0,0 UV-I 0 W/m² 12,5 °C 13,4 °C 0,0 km/h (0 Bft)
12.06.2018 21:45 13,4 °C 94 % 1005,5 hPa 0,0 mm 0,0 km/h (0 Bft) S-SW 207 ° 0 min 0,000 mm 0,0 UV-I 0 W/m² 12,5 °C 13,4 °C 0,0 km/h (0 Bft)
12.06.2018 21:46 13,4 °C 94 % 1005,5 hPa 0,0 mm 0,0 km/h (0 Bft) S-SW 207 ° 0 min 0,000 mm 0,0 UV-I 0 W/m² 12,5 °C 13,4 °C 0,0 km/h (0 Bft)
12.06.2018 21:47 13,4 °C 94 % 1005,5 hPa 0,0 mm 0,0 km/h (0 Bft) S-SW 207 ° 0 min 0,000 mm 0,0 UV-I 0 W/m² 12,5 °C 13,4 °C 0,0 km/h (0 Bft)
12.06.2018 21:48 13,3 °C 94 % 1005,5 hPa 0,0 mm 0,0 km/h (0 Bft) S-SW 207 ° 0 min 0,000 mm 0,0 UV-I 0 W/m² 12,4 °C 13,3 °C 0,0 km/h (0 Bft)
12.06.2018 21:49 13,4 °C 94 % 1005,5 hPa 0,0 mm 0,0 km/h (0 Bft) S-SW 207 ° 0 min 0,000 mm 0,0 UV-I 0 W/m² 12,5 °C 13,4 °C 0,0 km/h (0 Bft)
12.06.2018 21:50 13,3 °C 94 % 1005,5 hPa 0,0 mm 0,0 km/h (0 Bft) S-SW 207 ° 0 min 0,000 mm 0,0 UV-I 0 W/m² 12,4 °C 13,3 °C 0,0 km/h (0 Bft)
12.06.2018 21:51 13,3 °C 94 % 1005,5 hPa 0,0 mm 0,0 km/h (0 Bft) S-SW 207 ° 0 min 0,000 mm 0,0 UV-I 0 W/m² 12,4 °C 13,3 °C 0,0 km/h (0 Bft)
12.06.2018 21:52 13,3 °C 94 % 1005,6 hPa 0,0 mm 0,0 km/h (0 Bft) S-SW 207 ° 0 min 0,000 mm 0,0 UV-I 0 W/m² 12,4 °C 13,3 °C 0,0 km/h (0 Bft)
12.06.2018 21:53 13,3 °C 94 % 1005,6 hPa 0,0 mm 0,0 km/h (0 Bft) S-SW 207 ° 0 min 0,000 mm 0,0 UV-I 0 W/m² 12,4 °C 13,3 °C 0,0 km/h (0 Bft)
12.06.2018 21:54 13,3 °C 94 % 1005,6 hPa 0,0 mm 0,0 km/h (0 Bft) S-SW 207 ° 0 min 0,000 mm 0,0 UV-I 0 W/m² 12,4 °C 13,3 °C 0,0 km/h (0 Bft)
12.06.2018 21:55 13,3 °C 94 % 1005,6 hPa 0,0 mm 0,3 km/h (0 Bft) S-SW 207 ° 0 min 0,000 mm 0,0 UV-I 0 W/m² 12,4 °C 13,3 °C 1,6 km/h (1 Bft)
12.06.2018 21:56 13,3 °C 94 % 1005,7 hPa 0,0 mm 0,0 km/h (0 Bft) S-SW 207 ° 0 min 0,000 mm 0,0 UV-I 0 W/m² 12,4 °C 13,3 °C 0,0 km/h (0 Bft)
12.06.2018 21:57 13,3 °C 94 % 1005,7 hPa 0,0 mm 0,5 km/h (0 Bft) S-SW 207 ° 0 min 0,000 mm 0,0 UV-I 0 W/m² 12,4 °C 13,3 °C 1,6 km/h (1 Bft)
12.06.2018 21:58 13,3 °C 94 % 1005,7 hPa 0,0 mm 0,0 km/h (0 Bft) S-SW 207 ° 0 min 0,000 mm 0,0 UV-I 0 W/m² 12,4 °C 13,3 °C 0,0 km/h (0 Bft)
12.06.2018 21:59 13,3 °C 95 % 1005,7 hPa 0,0 mm 0,0 km/h (0 Bft) S-SW 207 ° 0 min 0,000 mm 0,0 UV-I 0 W/m² 12,5 °C 13,3 °C 0,0 km/h (0 Bft)
12.06.2018 22:00 13,3 °C 94 % 1005,6 hPa 0,0 mm 0,0 km/h (0 Bft) S-SW 207 ° 0 min 0,000 mm 0,0 UV-I 0 W/m² 12,4 °C 13,3 °C 0,0 km/h (0 Bft)
12.06.2018 22:01 13,3 °C 95 % 1005,6 hPa 0,0 mm 0,0 km/h (0 Bft) S-SW 207 ° 0 min 0,000 mm 0,0 UV-I 0 W/m² 12,5 °C 13,3 °C 0,0 km/h (0 Bft)
12.06.2018 22:02 13,3 °C 94 % 1005,6 hPa 0,0 mm 0,0 km/h (0 Bft) S-SW 207 ° 0 min 0,000 mm 0,0 UV-I 0 W/m² 12,4 °C 13,3 °C 0,0 km/h (0 Bft)
12.06.2018 22:03 13,3 °C 94 % 1005,6 hPa 0,0 mm 0,0 km/h (0 Bft) S-SW 207 ° 0 min 0,000 mm 0,0 UV-I 0 W/m² 12,4 °C 13,3 °C 0,0 km/h (0 Bft)
12.06.2018 22:04 13,3 °C 95 % 1005,6 hPa 0,0 mm 0,0 km/h (0 Bft) S-SW 207 ° 0 min 0,000 mm 0,0 UV-I 0 W/m² 12,5 °C 13,3 °C 0,0 km/h (0 Bft)
12.06.2018 22:05 13,3 °C 94 % 1005,6 hPa 0,0 mm 0,0 km/h (0 Bft) S-SW 207 ° 0 min 0,000 mm 0,0 UV-I 0 W/m² 12,4 °C 13,3 °C 0,0 km/h (0 Bft)
12.06.2018 22:06 13,3 °C 94 % 1005,6 hPa 0,0 mm 0,0 km/h (0 Bft) S-SW 207 ° 0 min 0,000 mm 0,0 UV-I 0 W/m² 12,4 °C 13,3 °C 0,0 km/h (0 Bft)
12.06.2018 22:07 13,3 °C 94 % 1005,6 hPa 0,0 mm 0,0 km/h (0 Bft) S-SW 207 ° 0 min 0,000 mm 0,0 UV-I 0 W/m² 12,4 °C 13,3 °C 0,0 km/h (0 Bft)
12.06.2018 22:08 13,3 °C 94 % 1005,6 hPa 0,0 mm 0,0 km/h (0 Bft) S-SW 207 ° 0 min 0,000 mm 0,0 UV-I 0 W/m² 12,4 °C 13,3 °C 0,0 km/h (0 Bft)
12.06.2018 22:09 13,3 °C 94 % 1005,6 hPa 0,0 mm 0,4 km/h (0 Bft) S-SW 207 ° 0 min 0,000 mm 0,0 UV-I 0 W/m² 12,4 °C 13,3 °C 1,6 km/h (1 Bft)
12.06.2018 22:10 13,3 °C 94 % 1005,6 hPa 0,0 mm 0,4 km/h (0 Bft) S-SW 207 ° 0 min 0,000 mm 0,0 UV-I 0 W/m² 12,4 °C 13,3 °C 1,6 km/h (1 Bft)
12.06.2018 22:11 13,3 °C 94 % 1005,5 hPa 0,0 mm 0,0 km/h (0 Bft) S-SW 207 ° 0 min 0,000 mm 0,0 UV-I 0 W/m² 12,4 °C 13,3 °C 0,0 km/h (0 Bft)
12.06.2018 22:12 13,3 °C 95 % 1005,5 hPa 0,0 mm 0,5 km/h (0 Bft) S-SW 207 ° 0 min 0,000 mm 0,0 UV-I 0 W/m² 12,5 °C 13,3 °C 1,6 km/h (1 Bft)
12.06.2018 22:13 13,3 °C 94 % 1005,5 hPa 0,0 mm 0,4 km/h (0 Bft) S-SW 207 ° 0 min 0,000 mm 0,0 UV-I 0 W/m² 12,4 °C 13,3 °C 1,6 km/h (1 Bft)
12.06.2018 22:14 13,3 °C 94 % 1005,5 hPa 0,0 mm 0,0 km/h (0 Bft) S-SW 207 ° 0 min 0,000 mm 0,0 UV-I 0 W/m² 12,4 °C 13,3 °C 0,0 km/h (0 Bft)
12.06.2018 22:15 13,2 °C 95 % 1005,5 hPa 0,0 mm 0,0 km/h (0 Bft) S-SW 207 ° 0 min 0,000 mm 0,0 UV-I 0 W/m² 12,4 °C 13,2 °C 0,0 km/h (0 Bft)
12.06.2018 22:16 13,2 °C 94 % 1005,5 hPa 0,0 mm 0,0 km/h (0 Bft) S-SW 207 ° 0 min 0,000 mm 0,0 UV-I 0 W/m² 12,3 °C 13,2 °C 0,0 km/h (0 Bft)
12.06.2018 22:17 13,2 °C 95 % 1005,5 hPa 0,0 mm 0,5 km/h (0 Bft) S-SW 207 ° 0 min 0,000 mm 0,0 UV-I 0 W/m² 12,4 °C 13,2 °C 1,6 km/h (1 Bft)
12.06.2018 22:18 13,2 °C 95 % 1005,6 hPa 0,0 mm 0,0 km/h (0 Bft) S-SW 207 ° 0 min 0,000 mm 0,0 UV-I 0 W/m² 12,4 °C 13,2 °C 0,0 km/h (0 Bft)
12.06.2018 22:19 13,3 °C 95 % 1005,6 hPa 0,0 mm 0,3 km/h (0 Bft) S-SW 207 ° 0 min 0,000 mm 0,0 UV-I 0 W/m² 12,5 °C 13,3 °C 1,6 km/h (1 Bft)
12.06.2018 22:20 13,2 °C 95 % 1005,6 hPa 0,0 mm 0,0 km/h (0 Bft) S-SW 207 ° 0 min 0,000 mm 0,0 UV-I 0 W/m² 12,4 °C 13,2 °C 0,0 km/h (0 Bft)
12.06.2018 22:21 13,2 °C 95 % 1005,6 hPa 0,0 mm 0,0 km/h (0 Bft) S-SW 207 ° 0 min 0,000 mm 0,0 UV-I 0 W/m² 12,4 °C 13,2 °C 0,0 km/h (0 Bft)
12.06.2018 22:22 13,3 °C 95 % 1005,7 hPa 0,0 mm 0,0 km/h (0 Bft) S-SW 207 ° 0 min 0,000 mm 0,0 UV-I 0 W/m² 12,5 °C 13,3 °C 0,0 km/h (0 Bft)
12.06.2018 22:23 13,2 °C 95 % 1005,8 hPa 0,0 mm 0,0 km/h (0 Bft) S-SW 207 ° 0 min 0,000 mm 0,0 UV-I 0 W/m² 12,4 °C 13,2 °C 0,0 km/h (0 Bft)
12.06.2018 22:24 13,2 °C 95 % 1005,7 hPa 0,0 mm 0,0 km/h (0 Bft) S-SW 207 ° 0 min 0,000 mm 0,0 UV-I 0 W/m² 12,4 °C 13,2 °C 0,0 km/h (0 Bft)
12.06.2018 22:25 13,2 °C 95 % 1005,8 hPa 0,0 mm 0,0 km/h (0 Bft) S-SW 207 ° 0 min 0,000 mm 0,0 UV-I 0 W/m² 12,4 °C 13,2 °C 0,0 km/h (0 Bft)
12.06.2018 22:26 13,2 °C 95 % 1005,8 hPa 0,0 mm 0,0 km/h (0 Bft) S-SW 207 ° 0 min 0,000 mm 0,0 UV-I 0 W/m² 12,4 °C 13,2 °C 0,0 km/h (0 Bft)
12.06.2018 22:27 13,2 °C 95 % 1005,8 hPa 0,0 mm 0,0 km/h (0 Bft) S-SW 207 ° 0 min 0,000 mm 0,0 UV-I 0 W/m² 12,4 °C 13,2 °C 0,0 km/h (0 Bft)
12.06.2018 22:28 13,1 °C 95 % 1005,8 hPa 0,0 mm 0,0 km/h (0 Bft) S-SW 207 ° 0 min 0,000 mm 0,0 UV-I 0 W/m² 12,3 °C 13,1 °C 0,0 km/h (0 Bft)
12.06.2018 22:29 13,1 °C 95 % 1005,8 hPa 0,0 mm 0,0 km/h (0 Bft) S-SW 207 ° 0 min 0,000 mm 0,0 UV-I 0 W/m² 12,3 °C 13,1 °C 0,0 km/h (0 Bft)
12.06.2018 22:30 13,1 °C 95 % 1005,8 hPa 0,0 mm 0,0 km/h (0 Bft) S-SW 207 ° 0 min 0,000 mm 0,0 UV-I 0 W/m² 12,3 °C 13,1 °C 0,0 km/h (0 Bft)
12.06.2018 22:31 13,2 °C 95 % 1005,8 hPa 0,0 mm 0,0 km/h (0 Bft) S-SW 207 ° 0 min 0,000 mm 0,0 UV-I 0 W/m² 12,4 °C 13,2 °C 0,0 km/h (0 Bft)
12.06.2018 22:32 13,1 °C 95 % 1005,8 hPa 0,0 mm 0,0 km/h (0 Bft) S-SW 207 ° 0 min 0,000 mm 0,0 UV-I 0 W/m² 12,3 °C 13,1 °C 0,0 km/h (0 Bft)
12.06.2018 22:33 13,1 °C 95 % 1005,8 hPa 0,0 mm 0,0 km/h (0 Bft) S-SW 207 ° 0 min 0,000 mm 0,0 UV-I 0 W/m² 12,3 °C 13,1 °C 0,0 km/h (0 Bft)
12.06.2018 22:34 13,1 °C 95 % 1005,8 hPa 0,0 mm 0,0 km/h (0 Bft) S-SW 207 ° 0 min 0,000 mm 0,0 UV-I 0 W/m² 12,3 °C 13,1 °C 0,0 km/h (0 Bft)
12.06.2018 22:35 13,1 °C 95 % 1005,8 hPa 0,0 mm 0,0 km/h (0 Bft) S-SW 207 ° 0 min 0,000 mm 0,0 UV-I 0 W/m² 12,3 °C 13,1 °C 0,0 km/h (0 Bft)
12.06.2018 22:36 13,1 °C 95 % 1005,8 hPa 0,0 mm 0,0 km/h (0 Bft) S-SW 207 ° 0 min 0,000 mm 0,0 UV-I 0 W/m² 12,3 °C 13,1 °C 0,0 km/h (0 Bft)
12.06.2018 22:37 13,1 °C 95 % 1005,8 hPa 0,0 mm 0,0 km/h (0 Bft) S-SW 207 ° 0 min 0,000 mm 0,0 UV-I 0 W/m² 12,3 °C 13,1 °C 0,0 km/h (0 Bft)
12.06.2018 22:38 13,1 °C 95 % 1005,9 hPa 0,0 mm 0,0 km/h (0 Bft) S-SW 207 ° 0 min 0,000 mm 0,0 UV-I 0 W/m² 12,3 °C 13,1 °C 0,0 km/h (0 Bft)
12.06.2018 22:39 13,2 °C 95 % 1005,9 hPa 0,0 mm 0,0 km/h (0 Bft) S-SW 207 ° 0 min 0,000 mm 0,0 UV-I 0 W/m² 12,4 °C 13,2 °C 0,0 km/h (0 Bft)
12.06.2018 22:40 13,2 °C 95 % 1005,9 hPa 0,0 mm 0,0 km/h (0 Bft) S-SW 207 ° 0 min 0,000 mm 0,0 UV-I 0 W/m² 12,4 °C 13,2 °C 0,0 km/h (0 Bft)
12.06.2018 22:41 13,2 °C 95 % 1005,9 hPa 0,0 mm 0,0 km/h (0 Bft) S-SW 207 ° 0 min 0,000 mm 0,0 UV-I 0 W/m² 12,4 °C 13,2 °C 0,0 km/h (0 Bft)
12.06.2018 22:42 13,1 °C 95 % 1005,9 hPa 0,0 mm 0,0 km/h (0 Bft) S-SW 207 ° 0 min 0,000 mm 0,0 UV-I 0 W/m² 12,3 °C 13,1 °C 0,0 km/h (0 Bft)
12.06.2018 22:43 13,2 °C 95 % 1005,9 hPa 0,0 mm 0,0 km/h (0 Bft) S-SW 207 ° 0 min 0,000 mm 0,0 UV-I 0 W/m² 12,4 °C 13,2 °C 0,0 km/h (0 Bft)
12.06.2018 22:44 13,2 °C 95 % 1005,9 hPa 0,0 mm 0,0 km/h (0 Bft) S-SW 207 ° 0 min 0,000 mm 0,0 UV-I 0 W/m² 12,4 °C 13,2 °C 0,0 km/h (0 Bft)
12.06.2018 22:45 13,2 °C 95 % 1005,9 hPa 0,0 mm 0,0 km/h (0 Bft) S-SW 207 ° 0 min 0,000 mm 0,0 UV-I 0 W/m² 12,4 °C 13,2 °C 0,0 km/h (0 Bft)
12.06.2018 22:46 13,2 °C 95 % 1005,9 hPa 0,0 mm 0,0 km/h (0 Bft) S-SW 207 ° 0 min 0,000 mm 0,0 UV-I 0 W/m² 12,4 °C 13,2 °C 0,0 km/h (0 Bft)
12.06.2018 22:47 13,2 °C 95 % 1005,9 hPa 0,0 mm 0,0 km/h (0 Bft) S-SW 207 ° 0 min 0,000 mm 0,0 UV-I 0 W/m² 12,4 °C 13,2 °C 0,0 km/h (0 Bft)
12.06.2018 22:48 13,2 °C 95 % 1005,9 hPa 0,0 mm 0,0 km/h (0 Bft) S-SW 207 ° 0 min 0,000 mm 0,0 UV-I 0 W/m² 12,4 °C 13,2 °C 0,0 km/h (0 Bft)
12.06.2018 22:49 13,2 °C 95 % 1005,9 hPa 0,0 mm 0,0 km/h (0 Bft) S-SW 207 ° 0 min 0,000 mm 0,0 UV-I 0 W/m² 12,4 °C 13,2 °C 0,0 km/h (0 Bft)
12.06.2018 22:50 13,2 °C 95 % 1005,9 hPa 0,0 mm 0,0 km/h (0 Bft) S-SW 207 ° 0 min 0,000 mm 0,0 UV-I 0 W/m² 12,4 °C 13,2 °C 0,0 km/h (0 Bft)
12.06.2018 22:51 13,2 °C 95 % 1006,0 hPa 0,0 mm 0,0 km/h (0 Bft) S-SW 207 ° 0 min 0,000 mm 0,0 UV-I 0 W/m² 12,4 °C 13,2 °C 0,0 km/h (0 Bft)
12.06.2018 22:52 13,2 °C 95 % 1006,0 hPa 0,0 mm 0,0 km/h (0 Bft) S-SW 207 ° 0 min 0,000 mm 0,0 UV-I 0 W/m² 12,4 °C 13,2 °C 0,0 km/h (0 Bft)
12.06.2018 22:53 13,2 °C 95 % 1006,0 hPa 0,0 mm 0,0 km/h (0 Bft) S-SW 207 ° 0 min 0,000 mm 0,0 UV-I 0 W/m² 12,4 °C 13,2 °C 0,0 km/h (0 Bft)
12.06.2018 22:54 13,2 °C 95 % 1006,0 hPa 0,0 mm 0,0 km/h (0 Bft) S-SW 207 ° 0 min 0,000 mm 0,0 UV-I 0 W/m² 12,4 °C 13,2 °C 0,0 km/h (0 Bft)
12.06.2018 22:55 13,2 °C 95 % 1006,0 hPa 0,0 mm 0,0 km/h (0 Bft) S-SW 207 ° 0 min 0,000 mm 0,0 UV-I 0 W/m² 12,4 °C 13,2 °C 0,0 km/h (0 Bft)
12.06.2018 22:56 13,2 °C 95 % 1006,0 hPa 0,0 mm 0,0 km/h (0 Bft) S-SW 207 ° 0 min 0,000 mm 0,0 UV-I 0 W/m² 12,4 °C 13,2 °C 0,0 km/h (0 Bft)
12.06.2018 22:57 13,2 °C 95 % 1006,0 hPa 0,0 mm 0,0 km/h (0 Bft) S-SW 207 ° 0 min 0,000 mm 0,0 UV-I 0 W/m² 12,4 °C 13,2 °C 0,0 km/h (0 Bft)
12.06.2018 22:58 13,2 °C 95 % 1006,0 hPa 0,0 mm 0,0 km/h (0 Bft) S-SW 207 ° 0 min 0,000 mm 0,0 UV-I 0 W/m² 12,4 °C 13,2 °C 0,0 km/h (0 Bft)
12.06.2018 22:59 13,3 °C 95 % 1006,0 hPa 0,0 mm 0,0 km/h (0 Bft) S-SW 207 ° 0 min 0,000 mm 0,0 UV-I 0 W/m² 12,5 °C 13,3 °C 0,0 km/h (0 Bft)
12.06.2018 23:00 13,3 °C 95 % 1006,0 hPa 0,0 mm 0,0 km/h (0 Bft) S-SW 207 ° 0 min 0,000 mm 0,0 UV-I 0 W/m² 12,5 °C 13,3 °C 0,0 km/h (0 Bft)
12.06.2018 23:01 13,3 °C 95 % 1006,0 hPa 0,0 mm 0,0 km/h (0 Bft) S-SW 207 ° 0 min 0,000 mm 0,0 UV-I 0 W/m² 12,5 °C 13,3 °C 0,0 km/h (0 Bft)
12.06.2018 23:02 13,3 °C 95 % 1006,1 hPa 0,0 mm 0,0 km/h (0 Bft) S-SW 207 ° 0 min 0,000 mm 0,0 UV-I 0 W/m² 12,5 °C 13,3 °C 0,0 km/h (0 Bft)
12.06.2018 23:03 13,3 °C 95 % 1006,0 hPa 0,0 mm 0,0 km/h (0 Bft) S-SW 207 ° 0 min 0,000 mm 0,0 UV-I 0 W/m² 12,5 °C 13,3 °C 0,0 km/h (0 Bft)
12.06.2018 23:04 13,3 °C 95 % 1006,0 hPa 0,0 mm 0,0 km/h (0 Bft) S-SW 207 ° 0 min 0,000 mm 0,0 UV-I 0 W/m² 12,5 °C 13,3 °C 0,0 km/h (0 Bft)
12.06.2018 23:05 13,3 °C 95 % 1006,1 hPa 0,0 mm 0,0 km/h (0 Bft) S-SW 207 ° 0 min 0,000 mm 0,0 UV-I 0 W/m² 12,5 °C 13,3 °C 0,0 km/h (0 Bft)
12.06.2018 23:06 13,4 °C 95 % 1006,0 hPa 0,0 mm 0,3 km/h (0 Bft) S-SW 207 ° 0 min 0,000 mm 0,0 UV-I 0 W/m² 12,6 °C 13,4 °C 1,6 km/h (1 Bft)
12.06.2018 23:07 13,4 °C 95 % 1006,1 hPa 0,0 mm 0,0 km/h (0 Bft) S-SW 207 ° 0 min 0,000 mm 0,0 UV-I 0 W/m² 12,6 °C 13,4 °C 0,0 km/h (0 Bft)
12.06.2018 23:08 13,4 °C 95 % 1006,0 hPa 0,0 mm 0,0 km/h (0 Bft) S-SW 207 ° 0 min 0,000 mm 0,0 UV-I 0 W/m² 12,6 °C 13,4 °C 0,0 km/h (0 Bft)
12.06.2018 23:09 13,4 °C 95 % 1006,0 hPa 0,0 mm 0,0 km/h (0 Bft) S-SW 207 ° 0 min 0,000 mm 0,0 UV-I 0 W/m² 12,6 °C 13,4 °C 0,0 km/h (0 Bft)
12.06.2018 23:10 13,4 °C 95 % 1006,0 hPa 0,0 mm 0,0 km/h (0 Bft) S-SW 207 ° 0 min 0,000 mm 0,0 UV-I 0 W/m² 12,6 °C 13,4 °C 0,0 km/h (0 Bft)
12.06.2018 23:11 13,4 °C 95 % 1006,1 hPa 0,0 mm 0,0 km/h (0 Bft) S-SW 207 ° 0 min 0,000 mm 0,0 UV-I 0 W/m² 12,6 °C 13,4 °C 0,0 km/h (0 Bft)
12.06.2018 23:12 13,4 °C 95 % 1006,1 hPa 0,0 mm 0,0 km/h (0 Bft) S-SW 207 ° 0 min 0,000 mm 0,0 UV-I 0 W/m² 12,6 °C 13,4 °C 0,0 km/h (0 Bft)
12.06.2018 23:13 13,4 °C 95 % 1006,1 hPa 0,0 mm 0,0 km/h (0 Bft) S-SW 207 ° 0 min 0,000 mm 0,0 UV-I 0 W/m² 12,6 °C 13,4 °C 0,0 km/h (0 Bft)
12.06.2018 23:14 13,4 °C 95 % 1006,1 hPa 0,0 mm 0,0 km/h (0 Bft) S-SW 207 ° 0 min 0,000 mm 0,0 UV-I 0 W/m² 12,6 °C 13,4 °C 0,0 km/h (0 Bft)
12.06.2018 23:15 13,4 °C 95 % 1006,1 hPa 0,0 mm 0,0 km/h (0 Bft) S-SW 207 ° 0 min 0,000 mm 0,0 UV-I 0 W/m² 12,6 °C 13,4 °C 0,0 km/h (0 Bft)
12.06.2018 23:16 13,4 °C 95 % 1006,1 hPa 0,0 mm 0,0 km/h (0 Bft) S-SW 207 ° 0 min 0,000 mm 0,0 UV-I 0 W/m² 12,6 °C 13,4 °C 0,0 km/h (0 Bft)
12.06.2018 23:17 13,4 °C 95 % 1006,1 hPa 0,0 mm 0,0 km/h (0 Bft) S-SW 207 ° 0 min 0,000 mm 0,0 UV-I 0 W/m² 12,6 °C 13,4 °C 0,0 km/h (0 Bft)
12.06.2018 23:18 13,4 °C 95 % 1006,1 hPa 0,0 mm 0,0 km/h (0 Bft) S-SW 207 ° 0 min 0,000 mm 0,0 UV-I 0 W/m² 12,6 °C 13,4 °C 0,0 km/h (0 Bft)
12.06.2018 23:19 13,4 °C 95 % 1006,2 hPa 0,0 mm 0,0 km/h (0 Bft) S-SW 207 ° 0 min 0,000 mm 0,0 UV-I 0 W/m² 12,6 °C 13,4 °C 0,0 km/h (0 Bft)
12.06.2018 23:20 13,5 °C 95 % 1006,1 hPa 0,0 mm 0,0 km/h (0 Bft) S-SW 207 ° 0 min 0,000 mm 0,0 UV-I 0 W/m² 12,7 °C 13,5 °C 0,0 km/h (0 Bft)
12.06.2018 23:21 13,5 °C 95 % 1006,1 hPa 0,0 mm 0,0 km/h (0 Bft) S-SW 207 ° 0 min 0,000 mm 0,0 UV-I 0 W/m² 12,7 °C 13,5 °C 0,0 km/h (0 Bft)
12.06.2018 23:22 13,5 °C 95 % 1006,1 hPa 0,0 mm 0,0 km/h (0 Bft) S-SW 207 ° 0 min 0,000 mm 0,0 UV-I 0 W/m² 12,7 °C 13,5 °C 0,0 km/h (0 Bft)
12.06.2018 23:23 13,5 °C 95 % 1006,1 hPa 0,0 mm 0,0 km/h (0 Bft) S-SW 207 ° 0 min 0,000 mm 0,0 UV-I 0 W/m² 12,7 °C 13,5 °C 0,0 km/h (0 Bft)
12.06.2018 23:24 13,5 °C 95 % 1006,1 hPa 0,0 mm 2,4 km/h (1 Bft) S-SW 207 ° 0 min 0,000 mm 0,0 UV-I 0 W/m² 12,7 °C 13,5 °C 4,8 km/h (1 Bft)
12.06.2018 23:25 13,5 °C 95 % 1006,1 hPa 0,0 mm 0,2 km/h (0 Bft) S-SW 207 ° 0 min 0,000 mm 0,0 UV-I 0 W/m² 12,7 °C 13,5 °C 1,6 km/h (1 Bft)
12.06.2018 23:26 13,5 °C 95 % 1006,1 hPa 0,0 mm 0,5 km/h (0 Bft) S-SW 207 ° 0 min 0,000 mm 0,0 UV-I 0 W/m² 12,7 °C 13,5 °C 1,6 km/h (1 Bft)
12.06.2018 23:27 13,5 °C 95 % 1006,1 hPa 0,0 mm 2,5 km/h (1 Bft) S-SW 207 ° 0 min 0,000 mm 0,0 UV-I 0 W/m² 12,7 °C 13,5 °C 4,8 km/h (1 Bft)
12.06.2018 23:28 13,6 °C 95 % 1006,1 hPa 0,0 mm 2,4 km/h (1 Bft) SW 216 ° 0 min 0,000 mm 0,0 UV-I 0 W/m² 12,8 °C 13,6 °C 4,8 km/h (1 Bft)
12.06.2018 23:29 13,6 °C 95 % 1006,1 hPa 0,0 mm 2,2 km/h (1 Bft) SW 216 ° 0 min 0,000 mm 0,0 UV-I 0 W/m² 12,8 °C 13,6 °C 4,8 km/h (1 Bft)
12.06.2018 23:30 13,6 °C 95 % 1006,0 hPa 0,0 mm 3,4 km/h (1 Bft) SW 216 ° 0 min 0,000 mm 0,0 UV-I 0 W/m² 12,8 °C 13,6 °C 4,8 km/h (1 Bft)
12.06.2018 23:31 13,6 °C 95 % 1006,0 hPa 0,0 mm 1,8 km/h (1 Bft) SW 216 ° 0 min 0,000 mm 0,0 UV-I 0 W/m² 12,8 °C 13,6 °C 3,2 km/h (1 Bft)
12.06.2018 23:32 13,6 °C 95 % 1006,0 hPa 0,0 mm 0,3 km/h (0 Bft) SW 216 ° 0 min 0,000 mm 0,0 UV-I 0 W/m² 12,8 °C 13,6 °C 1,6 km/h (1 Bft)
12.06.2018 23:33 13,6 °C 95 % 1006,0 hPa 0,0 mm 0,9 km/h (0 Bft) SW 216 ° 0 min 0,000 mm 0,0 UV-I 0 W/m² 12,8 °C 13,6 °C 3,2 km/h (1 Bft)
12.06.2018 23:34 13,6 °C 95 % 1006,0 hPa 0,0 mm 0,8 km/h (0 Bft) SW 216 ° 0 min 0,000 mm 0,0 UV-I 0 W/m² 12,8 °C 13,6 °C 3,2 km/h (1 Bft)
12.06.2018 23:35 13,6 °C 95 % 1006,0 hPa 0,0 mm 0,8 km/h (0 Bft) SW 216 ° 0 min 0,000 mm 0,0 UV-I 0 W/m² 12,8 °C 13,6 °C 3,2 km/h (1 Bft)
12.06.2018 23:36 13,6 °C 95 % 1006,0 hPa 0,0 mm 1,1 km/h (1 Bft) SW 216 ° 0 min 0,000 mm 0,0 UV-I 0 W/m² 12,8 °C 13,6 °C 4,8 km/h (1 Bft)
12.06.2018 23:37 13,5 °C 95 % 1006,0 hPa 0,0 mm 0,9 km/h (0 Bft) SW 216 ° 0 min 0,000 mm 0,0 UV-I 0 W/m² 12,7 °C 13,5 °C 3,2 km/h (1 Bft)
12.06.2018 23:38 13,6 °C 95 % 1005,9 hPa 0,0 mm 1,5 km/h (1 Bft) SW 216 ° 0 min 0,000 mm 0,0 UV-I 0 W/m² 12,8 °C 13,6 °C 4,8 km/h (1 Bft)
12.06.2018 23:39 13,5 °C 95 % 1006,0 hPa 0,0 mm 3,2 km/h (1 Bft) SW 217 ° 0 min 0,000 mm 0,0 UV-I 0 W/m² 12,7 °C 13,5 °C 4,8 km/h (1 Bft)
12.06.2018 23:40 13,5 °C 95 % 1005,9 hPa 0,0 mm 0,7 km/h (0 Bft) SW 217 ° 0 min 0,000 mm 0,0 UV-I 0 W/m² 12,7 °C 13,5 °C 3,2 km/h (1 Bft)
12.06.2018 23:41 13,5 °C 95 % 1005,9 hPa 0,0 mm 0,1 km/h (0 Bft) SW 217 ° 0 min 0,000 mm 0,0 UV-I 0 W/m² 12,7 °C 13,5 °C 1,6 km/h (1 Bft)
12.06.2018 23:42 13,5 °C 95 % 1005,9 hPa 0,0 mm 0,3 km/h (0 Bft) SW 217 ° 0 min 0,000 mm 0,0 UV-I 0 W/m² 12,7 °C 13,5 °C 1,6 km/h (1 Bft)
12.06.2018 23:43 13,4 °C 95 % 1005,9 hPa 0,0 mm 0,0 km/h (0 Bft) SW 217 ° 0 min 0,000 mm 0,0 UV-I 0 W/m² 12,6 °C 13,4 °C 0,0 km/h (0 Bft)
12.06.2018 23:44 13,5 °C 95 % 1005,9 hPa 0,0 mm 2,8 km/h (1 Bft) W-SW 249 ° 0 min 0,000 mm 0,0 UV-I 0 W/m² 12,7 °C 13,5 °C 4,8 km/h (1 Bft)
12.06.2018 23:45 13,4 °C 95 % 1005,8 hPa 0,0 mm 1,7 km/h (1 Bft) W-SW 249 ° 0 min 0,000 mm 0,0 UV-I 0 W/m² 12,6 °C 13,4 °C 4,8 km/h (1 Bft)
12.06.2018 23:46 13,4 °C 95 % 1005,9 hPa 0,0 mm 0,0 km/h (0 Bft) W-SW 249 ° 0 min 0,000 mm 0,0 UV-I 0 W/m² 12,6 °C 13,4 °C 0,0 km/h (0 Bft)
12.06.2018 23:47 13,4 °C 95 % 1005,8 hPa 0,0 mm 0,0 km/h (0 Bft) W-SW 249 ° 0 min 0,000 mm 0,0 UV-I 0 W/m² 12,6 °C 13,4 °C 0,0 km/h (0 Bft)
12.06.2018 23:48 13,4 °C 95 % 1005,8 hPa 0,0 mm 0,0 km/h (0 Bft) W-SW 249 ° 0 min 0,000 mm 0,0 UV-I 0 W/m² 12,6 °C 13,4 °C 0,0 km/h (0 Bft)
12.06.2018 23:49 13,4 °C 95 % 1005,9 hPa 0,0 mm 1,0 km/h (0 Bft) W-SW 249 ° 0 min 0,000 mm 0,0 UV-I 0 W/m² 12,6 °C 13,4 °C 3,2 km/h (1 Bft)
12.06.2018 23:50 13,4 °C 95 % 1005,9 hPa 0,0 mm 0,0 km/h (0 Bft) W-SW 249 ° 0 min 0,000 mm 0,0 UV-I 0 W/m² 12,6 °C 13,4 °C 0,0 km/h (0 Bft)
12.06.2018 23:51 13,4 °C 95 % 1005,8 hPa 0,0 mm 0,1 km/h (0 Bft) W-SW 249 ° 0 min 0,000 mm 0,0 UV-I 0 W/m² 12,6 °C 13,4 °C 1,6 km/h (1 Bft)
12.06.2018 23:52 13,4 °C 95 % 1005,9 hPa 0,0 mm 0,7 km/h (0 Bft) W-SW 249 ° 0 min 0,000 mm 0,0 UV-I 0 W/m² 12,6 °C 13,4 °C 1,6 km/h (1 Bft)
12.06.2018 23:53 13,4 °C 95 % 1005,9 hPa 0,0 mm 0,0 km/h (0 Bft) W-SW 249 ° 0 min 0,000 mm 0,0 UV-I 0 W/m² 12,6 °C 13,4 °C 0,0 km/h (0 Bft)
12.06.2018 23:54 13,5 °C 95 % 1005,8 hPa 0,0 mm 0,6 km/h (0 Bft) W-SW 249 ° 0 min 0,000 mm 0,0 UV-I 0 W/m² 12,7 °C 13,5 °C 1,6 km/h (1 Bft)
12.06.2018 23:55 13,4 °C 95 % 1005,8 hPa 0,0 mm 0,0 km/h (0 Bft) W-SW 249 ° 0 min 0,000 mm 0,0 UV-I 0 W/m² 12,6 °C 13,4 °C 0,0 km/h (0 Bft)
12.06.2018 23:56 13,5 °C 95 % 1005,8 hPa 0,0 mm 0,0 km/h (0 Bft) W-SW 249 ° 0 min 0,000 mm 0,0 UV-I 0 W/m² 12,7 °C 13,5 °C 0,0 km/h (0 Bft)
12.06.2018 23:57 13,4 °C 95 % 1005,8 hPa 0,0 mm 0,0 km/h (0 Bft) W-SW 249 ° 0 min 0,000 mm 0,0 UV-I 0 W/m² 12,6 °C 13,4 °C 0,0 km/h (0 Bft)
12.06.2018 23:58 13,4 °C 95 % 1005,8 hPa 0,0 mm 0,0 km/h (0 Bft) W-SW 249 ° 0 min 0,000 mm 0,0 UV-I 0 W/m² 12,6 °C 13,4 °C 0,0 km/h (0 Bft)
12.06.2018 23:59 13,4 °C 95 % 1005,8 hPa 0,0 mm 0,0 km/h (0 Bft) W-SW 249 ° 0 min 0,000 mm 0,0 UV-I 0 W/m² 12,6 °C 13,4 °C 0,0 km/h (0 Bft)
_ Min-Zeit 22:42 13:44 14:34 - 23:59 - - - - - - 02:53 22:42 23:59
Minimum _ 13,1 °C 73 % 1004,3 hPa - 0,0 km/h (0 Bft) - - - - - - 12,0 °C 13,1 °C 0,0 km/h (0 Bft)
_ Max-Zeit 13:30 23:59 00:23 15:34 13:25 - - 13:35 14:01 13:19 13:19 13:40 13:30 13:25
Maximum _ 20,8 °C 95 % 1006,4 hPa 0,6 mm 14,5 km/h
O (3 Bft)
- - 1 min 0,406 mm 8,3 UV-I 1132 W/m² 17,0 °C 20,8 °C 22,5 km/h
O (4 Bft)
Durchschnitt _ 15,6 °C 89 % 1005,7 hPa #11,2 mm 1,9 km/h (1 Bft) O-NO - #41 min. #1,524 mm 2,4 UV-I 109 W/m² 13,9 °C 15,6 °C 3,6 km/h (1 Bft)